[[{"header":{"parameterUnit":"m.s-1","parameterCategory":1,"la1":31.0,"la2":29.5877,"lo1":-88.7671,"lo2":-86.6584,"dy":0.0162,"dx":0.0185,"nx":115,"ny":88,"refTime":"2023-11-03T06:00:00:Z","depth":0,"parameterNumber":2,"parameterNumberName":"U-component_of_WINDS"},"data":[0.0,0.0,0.0,0.0,0.0,0.0,0.0,0.0,0.0,0.0,0.0,0.0,0.0,0.0,0.0,0.0,0.0,0.0,0.0,0.0,0.0,0.0,0.0,0.0,0.0,0.0,0.0,0.0,0.0,0.0,0.0,0.0,0.0,0.0,0.0,0.0,0.0,0.0,0.0,0.0,0.0,0.0,0.0,0.0,0.0,0.0,0.0,0.0,0.0,0.0,0.0,0.0,0.0,0.0,0.0,0.0,0.0,0.0,0.0,0.0,0.0,0.0,0.0,0.0,0.0,0.0,0.0,0.0,0.0,0.0,0.0,0.0,0.0,0.0,0.0,0.0,0.0,0.0,0.0,0.0,0.0,0.0,0.0,0.0,0.0,0.0,0.0,0.0,0.0,0.0,0.0,0.0,0.0,0.0,0.0,0.0,0.0,0.0,0.0,0.0,0.0,0.0,0.0,0.0,0.0,0.0,0.0,0.0,0.0,0.0,0.0,0.0,0.0,0.0,0.0,0.0,0.0,0.0,0.0,0.0,0.0,0.0,0.0,0.0,0.0,0.0,0.0,0.0,0.0,0.0,0.0,0.0,0.0,0.0,0.0,0.0,0.0,0.0,0.0,0.0,0.0,0.0,0.0,0.0,0.0,0.0,0.0,0.0,0.0,0.0,0.0,0.0,0.0,0.0,0.0,0.0,0.0,0.0,0.0,0.0,0.0,0.0,0.0,0.0,0.0,0.0,0.0,0.0,0.0,0.0,0.0,0.0,0.0,0.0,0.0,0.0,0.0,0.0,0.0,0.0,0.0,0.0,0.0,0.0,0.0,0.0,0.0,0.0,0.0,0.0,0.0,0.0,0.0,0.0,0.0,0.0,0.0,0.0,0.0,0.0,0.0,0.0,0.0,0.0,0.0,0.0,0.0,0.0,0.0,0.0,0.0,0.0,0.0,0.0,0.0,0.0,0.0,0.0,0.0,0.0,0.0,0.0,0.0,0.0,0.0,0.0,0.0,0.0,0.0,0.0,0.0,0.0,0.0,0.0,0.0,0.0,0.0,0.0,0.0,0.0,0.0,0.0,0.0,0.0,0.0,0.0,0.0,0.0,0.0,0.0,0.0,0.0,0.0,0.0,0.0,0.0,0.0,0.0,0.0,0.0,0.0,0.0,0.0,0.0,0.0,0.0,0.0,0.0,0.0,0.0,0.0,0.0,0.0,0.0,0.0,0.0,0.0,0.0,0.0,0.0,0.0,0.0,0.0,0.0,0.0,0.0,0.0,0.0,0.0,0.0,0.0,0.0,0.0,0.0,0.0,0.0,0.0,0.0,0.0,0.0,0.0,0.0,0.0,0.0,0.0,0.0,0.0,0.0,0.0,0.0,0.0,0.0,0.0,0.0,0.0,0.0,0.0,0.0,0.0,0.0,0.0,0.0,0.0,0.0,0.0,0.0,0.0,0.0,0.0,0.0,0.0,0.0,0.0,0.0,0.0,0.0,0.0,0.0,0.0,0.0,0.0,0.0,0.0,0.0,0.0,0.0,0.0,0.0,0.0,0.0,0.0,0.0,0.0,0.0,0.0,0.0,0.0,0.0,0.0,0.0,0.0,0.0,0.0,0.0,0.0,0.0,0.0,0.0,0.0,0.0,0.0,0.0,0.0,0.0,0.0,0.0,0.0,0.0,0.0,0.0,0.0,0.0,0.0,0.0,0.0,0.0,0.0,0.0,0.0,0.0,0.0,0.0,0.0,0.0,0.0,0.0,0.0,0.0,0.0,0.0,0.0,0.0,0.0,0.0,0.0,0.0,0.0,0.0,0.0,0.0,0.0,0.0,0.0,0.0,0.0,0.0,0.0,0.0,0.0,0.0,0.0,0.0,0.0,0.0,0.0,0.0,0.0,0.0,0.0,0.0,0.0,0.0,0.0,0.0,0.0,0.0,0.0,0.0,0.0,0.0,0.0,0.0,0.0,0.0,0.0,0.0,0.0,0.0,0.0,0.0,0.0,0.0,0.0,0.0,0.0,0.0,0.0,0.0,0.0,0.0,0.0,0.0,0.0,0.0,0.0,0.0,0.0,0.0,0.0,0.0,0.0,0.0,0.0,0.0,0.0,0.0,0.0,0.0,0.0,0.0,0.0,0.0,0.0,0.0,0.0,0.0,0.0,0.0,0.0,0.0,0.0,0.0,0.0,0.0,0.0,0.0,0.0,0.0,0.0,0.0,0.0,0.0,0.0,0.0,0.0,0.0,0.0,0.0,0.0,0.0,0.0,0.0,0.0,0.0,0.0,0.0,0.0,0.0,0.0,0.0,0.0,0.0,0.0,0.0,0.0,0.0,0.0,0.0,0.0,0.0,0.0,0.0,0.0,0.0,0.0,0.0,0.0,0.0,0.0,0.0,0.0,0.0,0.0,0.0,0.0,0.0,0.0,0.0,0.0,0.0,0.0,0.0,0.0,0.0,0.0,0.0,0.0,0.0,0.0,0.0,0.0,0.0,0.0,0.0,0.0,0.0,0.0,0.0,0.0,0.0,0.0,0.0,0.0,0.0,0.0,0.0,0.0,0.0,0.0,0.0,0.0,0.0,0.0,0.0,0.0,0.0,0.0,0.0,0.0,0.0,0.0,0.0,0.0,0.0,0.0,0.0,0.0,0.0,0.0,0.0,0.0,0.0,0.0,0.0,0.0,0.0,0.0,0.0,0.0,0.0,0.0,0.0,0.0,0.0,0.0,0.0,0.0,0.0,0.0,0.0,0.0,0.0,0.0,0.0,0.0,0.0,0.0,0.0,0.0,0.0,0.0,0.0,0.0,0.0,0.0,0.0,0.0,0.0,0.0,0.0,0.0,0.0,0.0,0.0,0.0,0.0,0.0,0.0,0.0,0.0,0.0,0.0,0.0,0.0,0.0,0.0,0.0,0.0,0.0,0.0,0.0,0.0,0.0,0.0,0.0,0.0,0.0,0.0,0.0,0.0,0.0,0.0,0.0,0.0,0.0,0.0,0.0,0.0,0.0,0.0,0.0,0.0,0.0,0.0,0.0,0.0,0.0,0.0,0.0,0.0,0.0,0.0,0.0,0.0,0.0,0.0,0.0,0.0,0.0,0.0,0.0,0.0,0.0,0.0,0.0,0.0,0.0,0.0,0.0,0.0,0.0,0.0,0.0,0.0,0.0,0.0,0.0,0.0,0.0,0.0,0.0,0.0,0.0,0.0,0.0,0.0,0.0,0.0,0.0,0.0,0.0,0.0,0.0,0.0,0.0,0.0,0.0,0.0,0.0,0.0,0.0,0.0,0.0,0.0,0.0,0.0,0.0,0.0,0.0,0.0,0.0,0.0,0.0,0.0,0.0,0.0,0.0,0.0,0.0,0.0,0.0,0.0,0.0,0.0,0.0,0.0,0.0,0.0,0.0,0.0,0.0,0.0,0.0,0.0,0.0,0.0,0.0,0.0,0.0,0.0,0.0,0.0,0.0,0.0,0.0,0.0,0.0,0.0,0.0,0.0,0.0,0.0,0.0,0.0,0.0,0.0,0.0,0.0,0.0,0.0,0.0,0.0,0.0,0.0,0.0,0.0,0.0,0.0,0.0,0.0,0.0,0.0,0.0,0.0,0.0,0.0,0.0,0.0,0.0,0.0,0.0,0.0,0.0,0.0,0.0,0.0,0.0,0.0,0.0,0.0,0.0,0.0,0.0,0.0,0.0,0.0,0.0,0.0,0.0,0.0,0.0,0.0,0.0,0.0,0.0,0.0,0.0,0.0,0.0,0.0,0.0,0.0,0.0,0.0,0.0,0.0,0.0,0.0,0.0,0.0,0.0,0.0,0.0,0.0,0.0,0.0,0.0,0.0,0.0,0.0,0.0,0.0,0.0,0.0,0.0,0.0,0.0,0.0,0.0,0.0,0.0,0.0,0.0,0.0,0.0,0.0,0.0,0.0,0.0,0.0,0.0,0.0,0.0,0.0,0.0,0.0,0.0,0.0,0.0,0.0,0.0,0.0,0.0,0.0,0.0,0.0,0.0,0.0,0.0,0.0,0.0,0.0,0.0,0.0,0.0,0.0,0.0,0.0,0.0,0.0,0.0,0.0,0.0,0.0,0.0,0.0,0.0,0.0,0.0,0.0,0.0,0.0,0.0,0.0,0.0,0.0,0.0,0.0,0.0,0.0,0.0,0.0,0.0,0.0,0.0,0.0,0.0,0.0,0.0,0.0,0.0,0.0,0.0,0.0,0.0,0.0,0.0,0.0,0.0,0.0,0.0,0.0,0.0,0.0,0.0,0.0,-1.8614,0.0,0.0,0.0,0.0,0.0,0.0,0.0,0.0,0.0,0.0,0.0,0.0,0.0,0.0,0.0,0.0,0.0,0.0,0.0,0.0,0.0,0.0,0.0,0.0,0.0,0.0,0.0,0.0,0.0,0.0,0.0,0.0,0.0,0.0,0.0,0.0,0.0,0.0,0.0,0.0,0.0,0.0,0.0,0.0,0.0,0.0,0.0,0.0,0.0,0.0,0.0,0.0,0.0,0.0,0.0,0.0,0.0,0.0,0.0,0.0,0.0,0.0,0.0,0.0,0.0,0.0,0.0,0.0,0.0,0.0,0.0,0.0,0.0,0.0,0.0,0.0,0.0,0.0,0.0,0.0,0.0,0.0,0.0,0.0,0.0,0.0,0.0,0.0,0.0,0.0,0.0,0.0,0.0,0.0,0.0,0.0,0.0,0.0,0.0,0.0,0.0,0.0,0.0,0.0,0.0,0.0,0.0,0.0,0.0,0.0,-1.853,-1.8422,-1.8533,-1.856,-1.8491,0.0,0.0,0.0,0.0,0.0,0.0,0.0,0.0,0.0,0.0,0.0,0.0,0.0,0.0,0.0,0.0,0.0,0.0,0.0,0.0,0.0,0.0,0.0,0.0,0.0,0.0,0.0,0.0,0.0,0.0,0.0,0.0,0.0,0.0,0.0,0.0,0.0,0.0,0.0,0.0,0.0,0.0,0.0,0.0,0.0,0.0,0.0,0.0,0.0,0.0,0.0,0.0,0.0,0.0,0.0,0.0,0.0,0.0,0.0,0.0,0.0,0.0,0.0,0.0,0.0,0.0,0.0,0.0,0.0,0.0,0.0,0.0,0.0,0.0,0.0,0.0,0.0,0.0,0.0,0.0,0.0,0.0,0.0,0.0,0.0,0.0,0.0,0.0,0.0,0.0,0.0,0.0,0.0,0.0,0.0,0.0,0.0,0.0,0.0,0.0,0.0,0.0,0.0,0.0,0.0,0.0,0.0,0.0,0.0,0.0,0.0,0.0,-1.8518,-1.8513,-1.83,0.0,0.0,0.0,0.0,0.0,0.0,0.0,0.0,0.0,0.0,0.0,0.0,0.0,0.0,0.0,0.0,0.0,0.0,0.0,0.0,0.0,0.0,0.0,0.0,0.0,0.0,0.0,0.0,0.0,0.0,0.0,0.0,0.0,0.0,0.0,0.0,0.0,0.0,0.0,0.0,0.0,0.0,0.0,0.0,0.0,0.0,0.0,0.0,0.0,0.0,0.0,0.0,0.0,0.0,0.0,0.0,0.0,0.0,0.0,0.0,0.0,0.0,0.0,0.0,0.0,0.0,0.0,0.0,0.0,0.0,0.0,0.0,0.0,0.0,0.0,0.0,0.0,0.0,0.0,0.0,0.0,0.0,0.0,0.0,0.0,0.0,0.0,0.0,0.0,0.0,0.0,0.0,0.0,0.0,0.0,0.0,0.0,0.0,0.0,0.0,0.0,0.0,0.0,0.0,0.0,0.0,0.0,0.0,0.0,0.0,-1.8518,-1.8394,-1.8545,0.0,-1.8045,0.0,0.0,0.0,0.0,0.0,0.0,0.0,0.0,0.0,0.0,0.0,0.0,0.0,0.0,0.0,0.0,0.0,0.0,0.0,0.0,0.0,0.0,0.0,0.0,0.0,0.0,0.0,0.0,0.0,0.0,0.0,0.0,0.0,0.0,0.0,0.0,0.0,0.0,0.0,0.0,0.0,0.0,0.0,0.0,0.0,0.0,0.0,0.0,0.0,0.0,0.0,0.0,0.0,0.0,0.0,0.0,0.0,0.0,0.0,0.0,0.0,0.0,0.0,0.0,0.0,0.0,0.0,0.0,0.0,0.0,0.0,0.0,0.0,0.0,0.0,0.0,0.0,0.0,0.0,0.0,0.0,0.0,0.0,0.0,0.0,0.0,0.0,0.0,0.0,0.0,0.0,0.0,0.0,0.0,0.0,0.0,0.0,0.0,0.0,0.0,0.0,0.0,0.0,0.0,0.0,0.0,0.0,0.0,0.0,0.0,-1.856,-1.8506,-1.8652,-1.8432,0.0,0.0,0.0,0.0,0.0,0.0,0.0,0.0,0.0,0.0,0.0,0.0,0.0,0.0,0.0,0.0,0.0,0.0,0.0,0.0,0.0,0.0,0.0,0.0,0.0,0.0,0.0,0.0,0.0,0.0,0.0,0.0,0.0,0.0,0.0,0.0,0.0,0.0,0.0,0.0,0.0,0.0,0.0,0.0,0.0,0.0,0.0,0.0,0.0,0.0,0.0,0.0,0.0,0.0,0.0,0.0,0.0,0.0,0.0,0.0,0.0,0.0,0.0,0.0,0.0,0.0,0.0,0.0,0.0,0.0,0.0,0.0,0.0,0.0,0.0,0.0,0.0,0.0,0.0,0.0,0.0,0.0,0.0,0.0,0.0,0.0,0.0,0.0,0.0,0.0,0.0,0.0,0.0,0.0,0.0,0.0,0.0,0.0,0.0,0.0,0.0,0.0,0.0,0.0,0.0,0.0,0.0,0.0,0.0,0.0,-1.8774,-1.8774,-1.8839,-1.8878,-1.8518,-1.7666,0.0,0.0,0.0,0.0,0.0,0.0,0.0,0.0,0.0,0.0,0.0,0.0,0.0,0.0,0.0,0.0,0.0,0.0,0.0,0.0,0.0,0.0,0.0,0.0,0.0,0.0,0.0,0.0,0.0,0.0,0.0,0.0,0.0,0.0,0.0,0.0,0.0,0.0,0.0,0.0,0.0,0.0,0.0,0.0,0.0,0.0,0.0,0.0,0.0,0.0,0.0,0.0,0.0,0.0,0.0,0.0,0.0,0.0,0.0,0.0,0.0,0.0,0.0,0.0,0.0,0.0,0.0,0.0,0.0,0.0,0.0,0.0,0.0,0.0,0.0,0.0,0.0,0.0,0.0,0.0,0.0,0.0,0.0,0.0,0.0,0.0,0.0,0.0,0.0,0.0,0.0,0.0,0.0,0.0,0.0,0.0,0.0,0.0,0.0,0.0,0.0,0.0,0.0,0.0,0.0,0.0,0.0,0.0,-1.8825,-1.904,-1.9239,-1.9368,-1.9237,-1.875,0.0,0.0,0.0,0.0,0.0,0.0,0.0,0.0,0.0,0.0,0.0,0.0,0.0,0.0,0.0,0.0,0.0,0.0,0.0,0.0,0.0,0.0,0.0,0.0,0.0,0.0,0.0,0.0,0.0,0.0,0.0,0.0,0.0,0.0,0.0,0.0,0.0,0.0,0.0,0.0,0.0,0.0,0.0,0.0,0.0,0.0,0.0,0.0,0.0,0.0,0.0,0.0,0.0,0.0,0.0,0.0,0.0,0.0,0.0,0.0,0.0,0.0,0.0,0.0,0.0,0.0,0.0,0.0,0.0,0.0,0.0,0.0,0.0,0.0,0.0,0.0,0.0,0.0,0.0,0.0,0.0,0.0,0.0,0.0,0.0,0.0,0.0,0.0,0.0,0.0,0.0,0.0,0.0,0.0,0.0,0.0,0.0,0.0,0.0,0.0,0.0,0.0,0.0,0.0,0.0,0.0,0.0,0.0,0.0,-1.933,-1.9592,-1.9785,-1.9901,-1.9785,-1.9196,0.0,0.0,0.0,0.0,0.0,0.0,0.0,0.0,0.0,0.0,0.0,0.0,0.0,0.0,0.0,0.0,0.0,0.0,0.0,0.0,0.0,0.0,0.0,0.0,0.0,0.0,0.0,0.0,0.0,0.0,0.0,0.0,0.0,0.0,0.0,0.0,0.0,0.0,0.0,0.0,0.0,0.0,0.0,0.0,0.0,0.0,0.0,0.0,0.0,0.0,0.0,0.0,0.0,0.0,0.0,0.0,0.0,0.0,0.0,0.0,0.0,0.0,0.0,0.0,0.0,0.0,0.0,0.0,0.0,0.0,0.0,0.0,0.0,0.0,0.0,0.0,0.0,0.0,0.0,0.0,0.0,0.0,0.0,0.0,0.0,0.0,0.0,0.0,0.0,0.0,0.0,0.0,0.0,0.0,0.0,0.0,0.0,0.0,0.0,0.0,0.0,0.0,0.0,0.0,0.0,0.0,0.0,0.0,0.0,-2.0169,0.0,-2.0595,-2.0658,-2.0497,-1.9869,0.0,0.0,0.0,0.0,0.0,0.0,0.0,0.0,0.0,0.0,0.0,0.0,0.0,0.0,0.0,0.0,0.0,0.0,0.0,0.0,0.0,0.0,0.0,0.0,0.0,0.0,0.0,0.0,0.0,0.0,0.0,0.0,0.0,0.0,0.0,0.0,0.0,0.0,0.0,0.0,0.0,0.0,0.0,0.0,0.0,0.0,0.0,0.0,0.0,0.0,0.0,0.0,0.0,0.0,0.0,0.0,0.0,0.0,0.0,0.0,0.0,0.0,0.0,0.0,0.0,0.0,0.0,0.0,0.0,0.0,0.0,0.0,0.0,0.0,0.0,0.0,0.0,0.0,0.0,0.0,0.0,0.0,0.0,0.0,0.0,0.0,0.0,0.0,0.0,0.0,0.0,0.0,0.0,0.0,0.0,0.0,0.0,0.0,0.0,0.0,0.0,0.0,0.0,0.0,0.0,0.0,0.0,0.0,-2.0684,-2.1407,-2.1653,-2.1833,-2.1734,-2.1465,-2.0858,0.0,0.0,0.0,0.0,0.0,0.0,0.0,0.0,0.0,0.0,0.0,0.0,0.0,0.0,0.0,0.0,0.0,0.0,0.0,0.0,0.0,0.0,0.0,0.0,0.0,0.0,0.0,0.0,0.0,0.0,0.0,0.0,0.0,0.0,0.0,0.0,0.0,0.0,0.0,0.0,0.0,0.0,0.0,0.0,0.0,0.0,0.0,0.0,0.0,0.0,0.0,0.0,0.0,0.0,0.0,0.0,0.0,0.0,0.0,0.0,0.0,0.0,0.0,0.0,0.0,0.0,0.0,0.0,0.0,0.0,0.0,0.0,0.0,0.0,0.0,0.0,0.0,0.0,0.0,0.0,0.0,0.0,0.0,0.0,0.0,0.0,0.0,0.0,0.0,0.0,0.0,0.0,0.0,0.0,0.0,0.0,0.0,0.0,0.0,0.0,0.0,0.0,0.0,0.0,0.0,0.0,0.0,0.0,0.0,-2.353,-2.3918,-2.416,-2.4225,-2.3822,-2.2815,0.0,0.0,0.0,0.0,0.0,0.0,0.0,0.0,0.0,0.0,0.0,0.0,0.0,0.0,0.0,0.0,0.0,0.0,0.0,0.0,0.0,0.0,0.0,0.0,0.0,0.0,0.0,0.0,0.0,0.0,0.0,0.0,0.0,0.0,0.0,0.0,0.0,0.0,0.0,0.0,0.0,0.0,0.0,0.0,0.0,0.0,0.0,0.0,0.0,0.0,0.0,0.0,0.0,0.0,0.0,0.0,0.0,0.0,0.0,0.0,0.0,0.0,0.0,0.0,0.0,0.0,0.0,0.0,0.0,0.0,0.0,0.0,0.0,0.0,0.0,0.0,0.0,0.0,0.0,0.0,0.0,0.0,0.0,0.0,0.0,0.0,0.0,0.0,0.0,0.0,0.0,0.0,0.0,0.0,0.0,0.0,0.0,0.0,0.0,0.0,0.0,0.0,0.0,0.0,0.0,0.0,0.0,0.0,0.0,-2.6967,-2.6827,-2.677,-2.6842,-2.6034,-2.4798,-2.3095,0.0,0.0,0.0,0.0,0.0,0.0,0.0,0.0,0.0,0.0,0.0,0.0,0.0,0.0,0.0,0.0,0.0,0.0,0.0,0.0,0.0,0.0,0.0,0.0,0.0,0.0,0.0,0.0,0.0,0.0,0.0,0.0,0.0,0.0,0.0,0.0,0.0,0.0,0.0,0.0,0.0,0.0,0.0,0.0,0.0,0.0,0.0,0.0,0.0,0.0,0.0,0.0,0.0,0.0,0.0,0.0,0.0,0.0,0.0,0.0,0.0,0.0,0.0,0.0,0.0,0.0,0.0,0.0,0.0,0.0,0.0,0.0,0.0,0.0,0.0,0.0,0.0,0.0,0.0,0.0,0.0,0.0,0.0,0.0,0.0,0.0,0.0,0.0,0.0,0.0,0.0,0.0,0.0,0.0,0.0,0.0,0.0,0.0,0.0,0.0,0.0,0.0,0.0,0.0,0.0,0.0,0.0,0.0,-3.127,-3.0314,-2.9711,-2.9455,-2.8104,-2.6758,0.0,0.0,0.0,0.0,0.0,0.0,0.0,0.0,0.0,0.0,0.0,0.0,0.0,0.0,0.0,0.0,0.0,0.0,0.0,0.0,0.0,0.0,0.0,0.0,0.0,0.0,0.0,0.0,0.0,0.0,0.0,0.0,0.0,0.0,0.0,0.0,0.0,0.0,0.0,0.0,0.0,0.0,0.0,0.0,0.0,0.0,0.0,0.0,0.0,0.0,0.0,0.0,0.0,0.0,0.0,0.0,0.0,0.0,0.0,0.0,0.0,0.0,0.0,0.0,0.0,0.0,0.0,0.0,0.0,0.0,0.0,0.0,0.0,0.0,0.0,0.0,0.0,0.0,0.0,0.0,0.0,0.0,0.0,0.0,0.0,0.0,0.0,0.0,0.0,0.0,0.0,0.0,0.0,0.0,0.0,0.0,0.0,0.0,0.0,0.0,0.0,0.0,0.0,0.0,0.0,0.0,0.0,0.0,0.0,-3.2647,-3.4671,-3.4446,-3.1832,-3.0787,-2.919,0.0,0.0,0.0,0.0,0.0,0.0,0.0,0.0,0.0,0.0,0.0,0.0,0.0,0.0,0.0,0.0,0.0,0.0,0.0,0.0,0.0,0.0,0.0,0.0,0.0,0.0,0.0,0.0,0.0,0.0,0.0,0.0,0.0,0.0,0.0,0.0,0.0,0.0,0.0,0.0,0.0,0.0,0.0,0.0,0.0,0.0,0.0,0.0,0.0,0.0,0.0,0.0,0.0,0.0,0.0,0.0,0.0,0.0,0.0,0.0,0.0,0.0,0.0,0.0,0.0,0.0,0.0,0.0,0.0,0.0,0.0,0.0,0.0,0.0,0.0,0.0,0.0,0.0,0.0,0.0,0.0,0.0,0.0,0.0,0.0,0.0,0.0,0.0,0.0,0.0,0.0,0.0,0.0,0.0,0.0,0.0,0.0,0.0,0.0,0.0,0.0,0.0,0.0,0.0,0.0,0.0,0.0,0.0,-3.2844,-3.3968,-3.675,-3.7048,-3.4634,-3.3375,-3.1378,0.0,0.0,0.0,0.0,0.0,0.0,0.0,0.0,0.0,0.0,0.0,0.0,0.0,0.0,0.0,0.0,0.0,0.0,0.0,0.0,0.0,0.0,0.0,0.0,0.0,0.0,0.0,0.0,0.0,0.0,0.0,0.0,0.0,0.0,0.0,0.0,0.0,0.0,0.0,0.0,0.0,0.0,0.0,0.0,0.0,0.0,0.0,0.0,0.0,0.0,0.0,0.0,0.0,0.0,0.0,0.0,0.0,0.0,0.0,0.0,0.0,0.0,0.0,0.0,0.0,0.0,0.0,0.0,0.0,0.0,0.0,0.0,0.0,0.0,0.0,0.0,0.0,0.0,0.0,0.0,0.0,0.0,0.0,0.0,0.0,0.0,0.0,0.0,0.0,0.0,0.0,0.0,0.0,0.0,0.0,0.0,0.0,0.0,0.0,0.0,0.0,0.0,0.0,0.0,0.0,0.0,0.0,0.0,-3.4282,-3.5172,-3.7526,-3.8313,-3.7294,-3.5585,-3.3299,0.0,0.0,0.0,0.0,0.0,0.0,0.0,0.0,0.0,0.0,0.0,0.0,0.0,0.0,0.0,0.0,0.0,0.0,0.0,0.0,0.0,0.0,0.0,0.0,0.0,0.0,0.0,0.0,0.0,0.0,0.0,0.0,0.0,0.0,0.0,0.0,0.0,0.0,0.0,0.0,0.0,0.0,0.0,0.0,0.0,0.0,0.0,0.0,0.0,0.0,0.0,0.0,0.0,0.0,0.0,0.0,0.0,0.0,0.0,0.0,0.0,0.0,0.0,0.0,0.0,0.0,0.0,0.0,0.0,0.0,0.0,0.0,0.0,0.0,0.0,0.0,0.0,0.0,0.0,0.0,0.0,0.0,0.0,0.0,0.0,0.0,0.0,0.0,0.0,0.0,0.0,0.0,0.0,0.0,0.0,0.0,0.0,0.0,0.0,0.0,0.0,0.0,0.0,0.0,0.0,0.0,0.0,0.0,-3.5503,-3.6373,-3.91,-3.9477,-3.7262,-3.6345,-3.4577,0.0,0.0,0.0,0.0,0.0,0.0,0.0,0.0,0.0,0.0,0.0,0.0,0.0,0.0,0.0,0.0,0.0,0.0,0.0,0.0,0.0,0.0,0.0,0.0,0.0,0.0,0.0,0.0,0.0,0.0,0.0,0.0,0.0,0.0,0.0,0.0,0.0,0.0,0.0,0.0,0.0,0.0,0.0,0.0,0.0,0.0,0.0,0.0,-2.0446,0.0,0.0,0.0,0.0,0.0,0.0,0.0,0.0,0.0,0.0,0.0,0.0,0.0,0.0,0.0,0.0,0.0,0.0,0.0,0.0,0.0,0.0,0.0,0.0,0.0,0.0,0.0,0.0,0.0,0.0,0.0,0.0,0.0,0.0,0.0,0.0,0.0,0.0,0.0,0.0,0.0,0.0,0.0,0.0,0.0,0.0,0.0,0.0,0.0,0.0,0.0,0.0,0.0,0.0,0.0,0.0,0.0,0.0,0.0,-3.5996,-3.6825,-3.9179,-3.96,-3.7895,-3.7371,-3.5895,0.0,0.0,0.0,0.0,0.0,0.0,0.0,0.0,0.0,0.0,0.0,0.0,0.0,0.0,0.0,0.0,0.0,0.0,0.0,0.0,0.0,0.0,0.0,0.0,0.0,0.0,0.0,0.0,0.0,0.0,0.0,0.0,0.0,0.0,0.0,0.0,0.0,0.0,0.0,0.0,0.0,0.0,0.0,0.0,0.0,0.0,0.0,0.0,0.0,0.0,0.0,0.0,0.0,0.0,0.0,0.0,0.0,0.0,0.0,0.0,0.0,0.0,0.0,0.0,0.0,0.0,0.0,0.0,0.0,0.0,0.0,0.0,0.0,0.0,0.0,0.0,0.0,0.0,0.0,0.0,0.0,0.0,0.0,0.0,0.0,0.0,0.0,0.0,0.0,0.0,0.0,0.0,0.0,0.0,0.0,0.0,0.0,0.0,0.0,0.0,0.0,0.0,0.0,0.0,0.0,0.0,0.0,-3.4534,-3.6339,-3.7337,-3.8894,-3.9376,-3.8721,-3.8376,-3.7031,-3.4497,0.0,0.0,0.0,0.0,0.0,0.0,0.0,0.0,0.0,0.0,0.0,0.0,0.0,0.0,0.0,0.0,0.0,0.0,0.0,0.0,0.0,0.0,0.0,0.0,0.0,0.0,0.0,0.0,0.0,0.0,0.0,0.0,0.0,0.0,0.0,0.0,0.0,0.0,-1.6193,-1.9091,0.0,0.0,0.0,0.0,0.0,0.0,0.0,0.0,-2.4386,0.0,0.0,0.0,0.0,0.0,0.0,0.0,0.0,0.0,0.0,0.0,0.0,0.0,0.0,0.0,0.0,0.0,0.0,0.0,0.0,0.0,0.0,0.0,0.0,0.0,0.0,0.0,0.0,0.0,0.0,0.0,0.0,0.0,0.0,0.0,0.0,0.0,0.0,0.0,0.0,0.0,0.0,0.0,0.0,0.0,0.0,0.0,0.0,0.0,0.0,0.0,0.0,0.0,0.0,0.0,0.0,-3.3403,-3.5211,-3.7137,-3.9175,-3.9528,-3.9634,-3.9485,-3.8661,-3.7324,-3.5437,0.0,0.0,0.0,0.0,0.0,0.0,0.0,0.0,0.0,0.0,0.0,0.0,0.0,0.0,0.0,0.0,0.0,0.0,0.0,0.0,0.0,0.0,0.0,0.0,0.0,0.0,0.0,0.0,0.0,0.0,0.0,0.0,0.0,0.0,0.0,0.0,0.0,0.0,0.0,-2.0996,-2.3121,0.0,0.0,0.0,0.0,0.0,0.0,0.0,0.0,-2.5195,0.0,0.0,0.0,0.0,0.0,0.0,0.0,0.0,0.0,0.0,0.0,0.0,0.0,0.0,0.0,0.0,0.0,0.0,0.0,0.0,0.0,0.0,0.0,0.0,0.0,0.0,0.0,0.0,0.0,0.0,0.0,0.0,0.0,0.0,0.0,0.0,0.0,0.0,0.0,0.0,0.0,0.0,0.0,0.0,0.0,0.0,0.0,0.0,0.0,0.0,0.0,0.0,0.0,0.0,0.0,-3.454,-3.6273,-3.7964,-3.9636,-3.9701,-3.9695,-3.9695,-3.869,-3.7359,0.0,0.0,0.0,0.0,0.0,0.0,0.0,0.0,0.0,0.0,0.0,0.0,0.0,0.0,0.0,0.0,0.0,0.0,0.0,0.0,0.0,0.0,0.0,0.0,0.0,0.0,0.0,0.0,0.0,0.0,0.0,0.0,0.0,0.0,0.0,0.0,0.0,0.0,0.0,0.0,-2.2529,-2.45,-2.5878,0.0,0.0,0.0,0.0,0.0,0.0,-2.6834,-2.6149,0.0,0.0,0.0,0.0,0.0,0.0,0.0,0.0,0.0,0.0,0.0,0.0,0.0,0.0,0.0,0.0,0.0,0.0,0.0,0.0,0.0,0.0,0.0,0.0,0.0,0.0,0.0,0.0,0.0,0.0,0.0,0.0,0.0,0.0,0.0,0.0,0.0,0.0,0.0,0.0,0.0,0.0,0.0,0.0,0.0,0.0,0.0,0.0,0.0,0.0,0.0,0.0,0.0,0.0,0.0,-3.5392,-3.7141,-3.8642,-3.9869,-3.9776,-3.9776,-3.9912,-3.8725,-3.7172,0.0,0.0,0.0,0.0,0.0,0.0,0.0,0.0,0.0,0.0,0.0,0.0,0.0,0.0,0.0,0.0,0.0,0.0,0.0,0.0,0.0,0.0,0.0,0.0,0.0,0.0,0.0,0.0,0.0,0.0,0.0,0.0,0.0,0.0,0.0,0.0,0.0,0.0,0.0,0.0,0.0,-2.5482,-2.7002,-2.7025,0.0,0.0,0.0,0.0,-2.7741,-2.7465,0.0,0.0,0.0,0.0,0.0,0.0,0.0,0.0,0.0,0.0,0.0,0.0,0.0,0.0,0.0,0.0,0.0,0.0,0.0,0.0,0.0,0.0,0.0,0.0,0.0,0.0,0.0,0.0,0.0,0.0,0.0,0.0,0.0,0.0,0.0,0.0,0.0,0.0,0.0,0.0,0.0,0.0,0.0,0.0,0.0,0.0,0.0,0.0,0.0,0.0,0.0,0.0,0.0,0.0,0.0,0.0,-3.5599,-3.7278,-3.8949,-4.0611,-4.0068,-4.0029,-4.0708,-3.8923,-3.6829,0.0,0.0,0.0,0.0,0.0,0.0,0.0,0.0,0.0,0.0,0.0,0.0,0.0,0.0,0.0,0.0,0.0,0.0,0.0,0.0,0.0,0.0,0.0,0.0,0.0,0.0,0.0,0.0,0.0,0.0,0.0,0.0,0.0,0.0,0.0,0.0,0.0,0.0,0.0,0.0,0.0,-2.5821,-2.7407,-2.7601,-2.7609,0.0,0.0,-2.802,-2.8128,-2.7996,0.0,0.0,0.0,0.0,0.0,0.0,0.0,0.0,0.0,0.0,0.0,0.0,0.0,0.0,0.0,0.0,0.0,0.0,0.0,0.0,0.0,0.0,0.0,0.0,0.0,0.0,0.0,0.0,0.0,0.0,0.0,0.0,0.0,0.0,0.0,0.0,0.0,0.0,0.0,0.0,0.0,0.0,0.0,0.0,0.0,0.0,0.0,0.0,0.0,0.0,0.0,0.0,0.0,0.0,0.0,-3.3839,-3.6568,-3.8652,-4.0082,-4.0864,-4.0577,-4.0538,-4.0888,-3.8942,-3.7001,0.0,0.0,0.0,0.0,0.0,0.0,0.0,0.0,0.0,0.0,0.0,0.0,0.0,0.0,0.0,0.0,0.0,0.0,0.0,0.0,0.0,0.0,0.0,0.0,0.0,0.0,0.0,0.0,0.0,0.0,0.0,0.0,0.0,0.0,0.0,0.0,0.0,0.0,0.0,0.0,0.0,0.0,-2.8193,-2.9052,0.0,0.0,0.0,-2.9354,-2.847,0.0,0.0,0.0,0.0,0.0,0.0,0.0,0.0,0.0,0.0,0.0,0.0,0.0,0.0,0.0,0.0,0.0,0.0,0.0,0.0,0.0,0.0,0.0,0.0,0.0,0.0,0.0,0.0,0.0,0.0,0.0,0.0,0.0,0.0,0.0,0.0,0.0,0.0,0.0,0.0,0.0,0.0,0.0,0.0,0.0,0.0,0.0,0.0,0.0,0.0,0.0,0.0,0.0,0.0,0.0,0.0,0.0,-3.73,-3.9683,-4.0888,-4.0888,-4.0888,-4.0888,-4.0864,-3.8974,0.0,0.0,0.0,0.0,0.0,0.0,0.0,0.0,0.0,0.0,0.0,0.0,0.0,0.0,0.0,0.0,0.0,0.0,0.0,0.0,0.0,0.0,0.0,0.0,0.0,0.0,0.0,-1.9413,0.0,0.0,0.0,0.0,0.0,0.0,0.0,0.0,0.0,0.0,0.0,0.0,0.0,0.0,-2.7555,-2.8778,-3.0116,-3.0808,0.0,0.0,-3.0161,-2.8918,-2.8945,-2.856,0.0,0.0,0.0,0.0,0.0,0.0,0.0,0.0,0.0,0.0,0.0,0.0,0.0,0.0,0.0,0.0,0.0,0.0,0.0,0.0,0.0,0.0,0.0,0.0,0.0,0.0,0.0,0.0,0.0,0.0,0.0,0.0,0.0,0.0,0.0,0.0,0.0,0.0,0.0,0.0,0.0,0.0,0.0,0.0,0.0,0.0,0.0,0.0,0.0,0.0,0.0,0.0,0.0,0.0,0.0,-3.7355,-3.9714,-4.0888,-4.0888,-4.0888,-4.0888,-4.0864,-3.9091,-3.7425,0.0,0.0,0.0,0.0,0.0,0.0,0.0,0.0,0.0,0.0,0.0,0.0,0.0,0.0,0.0,0.0,0.0,0.0,0.0,0.0,0.0,0.0,0.0,0.0,0.0,0.0,0.0,0.0,0.0,0.0,0.0,0.0,0.0,0.0,0.0,0.0,0.0,0.0,0.0,0.0,0.0,-2.7775,-2.8935,-3.0194,-3.1025,0.0,0.0,-2.9755,-2.9616,-2.906,-2.8237,-2.7072,0.0,0.0,0.0,0.0,0.0,0.0,0.0,0.0,0.0,0.0,0.0,0.0,0.0,0.0,0.0,0.0,0.0,0.0,0.0,0.0,0.0,0.0,0.0,0.0,0.0,0.0,0.0,0.0,0.0,0.0,0.0,0.0,0.0,0.0,0.0,0.0,0.0,0.0,0.0,0.0,0.0,0.0,0.0,0.0,0.0,0.0,0.0,0.0,0.0,0.0,0.0,0.0,0.0,-3.5447,-3.7511,-3.9752,-4.0888,-4.0888,-4.0888,-4.0888,-4.0888,-3.9633,-3.8331,0.0,0.0,0.0,0.0,0.0,0.0,0.0,0.0,0.0,0.0,0.0,0.0,0.0,0.0,0.0,0.0,0.0,0.0,0.0,0.0,0.0,0.0,0.0,0.0,0.0,0.0,0.0,0.0,-2.6221,-2.6623,-2.6017,0.0,0.0,0.0,0.0,0.0,0.0,0.0,0.0,0.0,0.0,-2.9151,-3.0724,-3.1936,0.0,0.0,-3.1046,-3.0718,-2.9565,-2.9583,-2.9307,-2.808,-2.725,0.0,0.0,0.0,0.0,0.0,0.0,0.0,0.0,0.0,0.0,0.0,0.0,0.0,0.0,0.0,0.0,0.0,0.0,0.0,0.0,0.0,0.0,0.0,0.0,0.0,0.0,0.0,0.0,0.0,0.0,0.0,0.0,0.0,0.0,0.0,0.0,0.0,0.0,0.0,0.0,0.0,0.0,0.0,0.0,0.0,0.0,0.0,0.0,0.0,0.0,0.0,0.0,-3.5974,-3.7636,-3.9789,-4.0888,-4.0888,-4.0888,-4.0888,-4.0869,-4.0024,-3.9108,0.0,0.0,0.0,0.0,0.0,0.0,0.0,0.0,0.0,0.0,0.0,0.0,0.0,0.0,0.0,0.0,0.0,0.0,0.0,0.0,0.0,0.0,0.0,0.0,0.0,0.0,0.0,0.0,-2.7501,-2.7337,-2.5896,0.0,0.0,0.0,0.0,0.0,0.0,0.0,0.0,0.0,0.0,-3.0508,-3.1877,-3.2964,-3.3102,-3.1755,-3.1714,-3.1401,-3.0071,-3.0163,-3.0057,-2.9139,0.0,0.0,0.0,0.0,0.0,0.0,0.0,0.0,0.0,0.0,0.0,0.0,0.0,0.0,0.0,0.0,0.0,0.0,0.0,0.0,0.0,0.0,0.0,0.0,0.0,0.0,0.0,0.0,0.0,0.0,-2.1295,0.0,0.0,0.0,0.0,0.0,0.0,0.0,0.0,0.0,0.0,0.0,0.0,0.0,0.0,0.0,0.0,0.0,0.0,0.0,0.0,0.0,0.0,-3.6245,-3.7696,-3.982,-4.0888,-4.0888,-4.0888,-4.0888,-4.0869,-4.0145,-3.9552,-3.9226,0.0,0.0,0.0,0.0,0.0,0.0,0.0,0.0,0.0,0.0,0.0,0.0,0.0,0.0,0.0,0.0,0.0,0.0,0.0,0.0,0.0,0.0,0.0,0.0,0.0,0.0,-2.8262,-2.8002,-2.7207,0.0,0.0,0.0,0.0,0.0,0.0,0.0,0.0,0.0,0.0,-2.9818,-3.1664,-3.1974,-3.2828,-3.3316,-3.3009,-3.2166,-3.1495,-3.1408,-3.0792,-3.0249,0.0,0.0,0.0,0.0,0.0,0.0,0.0,0.0,0.0,0.0,0.0,0.0,0.0,0.0,0.0,0.0,0.0,0.0,0.0,0.0,0.0,0.0,0.0,0.0,0.0,0.0,0.0,-2.3002,-2.5715,0.0,0.0,0.0,0.0,0.0,0.0,0.0,0.0,0.0,0.0,0.0,-3.5006,-3.4924,0.0,0.0,0.0,0.0,0.0,0.0,0.0,0.0,0.0,0.0,0.0,0.0,-3.7224,-3.8689,-4.0148,-4.0888,-4.0888,-4.0888,-4.0888,-4.0888,-4.0636,-4.0112,-3.9257,0.0,0.0,0.0,0.0,0.0,0.0,0.0,0.0,0.0,0.0,0.0,0.0,0.0,0.0,0.0,0.0,0.0,0.0,0.0,0.0,0.0,0.0,0.0,0.0,0.0,-2.7923,0.0,0.0,0.0,0.0,0.0,0.0,0.0,0.0,0.0,0.0,0.0,-2.8304,-2.9744,-3.0864,-3.1829,-3.2673,-3.3481,-3.3501,0.0,0.0,0.0,0.0,0.0,0.0,0.0,0.0,0.0,0.0,0.0,0.0,0.0,0.0,-2.5711,-2.4941,-2.5197,-2.5591,-2.5844,0.0,0.0,0.0,0.0,0.0,0.0,0.0,0.0,0.0,0.0,0.0,0.0,0.0,0.0,-2.7317,0.0,-3.0098,0.0,0.0,0.0,0.0,0.0,0.0,0.0,0.0,-3.6102,-3.7144,-3.7464,-3.7608,-3.7373,0.0,-3.597,-3.4304,0.0,0.0,0.0,0.0,0.0,0.0,0.0,0.0,-3.8197,-3.9244,-4.0325,-4.0888,-4.0888,-4.0888,-4.0888,-4.0888,-4.0888,-4.056,-3.9818,-3.8574,-3.7071,0.0,0.0,0.0,0.0,0.0,0.0,0.0,0.0,0.0,0.0,0.0,0.0,0.0,0.0,0.0,0.0,0.0,0.0,0.0,0.0,0.0,0.0,0.0,-2.9221,0.0,0.0,0.0,0.0,0.0,0.0,0.0,0.0,0.0,-2.6312,-2.8048,-2.9884,-3.1367,-3.182,-3.2456,-3.3671,0.0,0.0,0.0,0.0,0.0,0.0,0.0,-3.2174,-3.183,-3.1533,-3.1184,-3.071,-3.0107,-2.973,-2.9815,0.0,0.0,-2.7708,-2.7745,-2.8085,-2.8282,-2.8531,-2.8763,-2.8991,-2.9261,-2.9661,0.0,0.0,0.0,0.0,0.0,0.0,0.0,0.0,-3.0922,-3.1249,0.0,-3.2151,0.0,0.0,0.0,0.0,0.0,-3.545,0.0,0.0,-3.8313,-3.9254,-3.8474,-3.9115,-3.9408,-3.9247,-3.7523,-3.6987,-3.7379,-3.5042,0.0,0.0,0.0,0.0,0.0,0.0,-3.908,-3.9494,-4.051,-4.1005,-4.1005,-4.1005,-4.0985,-4.0942,-4.0927,-4.0893,-4.0858,-3.9818,-3.9038,-3.8562,-3.5454,0.0,0.0,0.0,0.0,0.0,0.0,0.0,0.0,0.0,0.0,0.0,0.0,0.0,0.0,0.0,0.0,0.0,0.0,0.0,0.0,-3.0344,0.0,0.0,0.0,0.0,0.0,0.0,0.0,0.0,0.0,0.0,-2.7172,-2.9221,-3.115,-3.2144,0.0,0.0,0.0,0.0,-3.3828,-3.431,-3.4349,-3.4268,-3.4181,-3.3575,-3.3183,-3.3352,0.0,0.0,-3.2466,-3.1912,-3.1614,-3.2122,-3.1856,-3.1127,-2.9265,-2.9231,-2.9403,-2.9419,-2.964,-2.9772,-2.9938,-3.0446,-3.0963,-2.7911,0.0,0.0,0.0,0.0,-2.6574,-2.9109,-3.318,-3.3405,-3.4741,-3.6749,-3.688,0.0,0.0,0.0,0.0,0.0,0.0,-3.831,-3.8365,-3.9906,-4.0468,-4.0231,-4.0427,-4.0533,-4.0494,-3.9911,-3.9741,-3.9892,-3.9181,-3.7755,-3.5704,0.0,0.0,0.0,0.0,-4.0118,-4.206,-4.2546,-4.2753,-4.2753,-4.2753,-4.2451,-4.1829,-4.1228,-4.0883,-4.0837,-4.0563,-3.9966,-3.8988,-3.7794,0.0,0.0,0.0,0.0,0.0,0.0,0.0,0.0,0.0,0.0,0.0,0.0,0.0,0.0,0.0,0.0,0.0,0.0,0.0,-3.0549,-3.1563,-3.1727,0.0,0.0,0.0,0.0,0.0,0.0,0.0,0.0,0.0,-2.9989,-3.1533,-3.2932,0.0,0.0,-3.3615,-3.39,-3.4072,-3.401,-3.3567,-3.4827,0.0,-3.4291,-3.3963,-3.3675,-3.3253,-3.2757,-3.2436,-3.2554,-3.2634,-3.2732,-3.287,-3.2523,-3.201,-3.1574,-3.1834,-3.1946,-3.155,-3.1864,-3.2364,-3.2578,-3.3125,-3.3555,-3.3856,-3.184,-2.8678,-2.856,-3.0478,-3.058,-3.3002,-3.6845,-3.6912,-3.7818,-3.9232,-3.9212,-3.9,-3.867,-3.9292,0.0,0.0,0.0,-3.961,-3.9194,-4.0057,-4.0477,-4.05,-4.0813,-4.0952,-4.0928,-4.0591,-4.0771,-4.1393,-4.1063,-3.9909,-3.7997,0.0,0.0,-4.0007,-4.0214,-4.1313,-4.3245,-4.3455,-4.3486,-4.3486,-4.3486,-4.3223,-4.2673,-4.2165,-4.1703,-4.1333,-4.1344,-4.0879,-3.9834,-3.9114,-3.7681,0.0,0.0,0.0,0.0,0.0,0.0,0.0,0.0,0.0,0.0,0.0,-2.4685,-2.5096,0.0,0.0,0.0,-2.9653,-3.0969,-3.2379,-3.2662,0.0,0.0,0.0,0.0,0.0,0.0,0.0,-2.9934,-3.0738,-3.1611,-3.241,-3.317,-3.3828,-3.4336,-3.3969,-3.3811,-3.4189,0.0,-3.4096,-3.3554,-3.4641,-3.5209,-3.4251,-3.3837,-3.3475,-3.3102,-3.293,-3.295,-3.3353,-3.3692,-3.3878,-3.3679,-3.3403,-3.3009,-3.2502,-3.2993,-3.3226,-3.2482,-3.2918,-3.3411,-3.3264,-3.3877,-3.4457,-3.9177,-3.9256,-3.19,-3.1042,-3.4481,-3.4543,-3.6896,-4.0642,-4.0687,-4.0336,-3.9725,-3.9756,-4.0229,-4.1024,-4.2539,0.0,-3.996,-4.0739,-4.0356,-3.8942,-3.9671,-4.0003,-4.0031,-4.077,-4.1102,-4.1082,-4.0344,-4.0791,-4.2214,-4.151,-4.1112,-4.1087,-4.1053,-4.1324,-4.1912,-4.2021,-4.2612,-4.3571,-4.3679,-4.3719,-4.3699,-4.3641,-4.3568,-4.3516,-4.3424,-4.3009,-4.2227,-4.2188,-4.1828,-4.1023,-3.9868,-3.9029,-3.848,0.0,0.0,0.0,0.0,0.0,0.0,0.0,0.0,0.0,0.0,0.0,0.0,0.0,0.0,0.0,-3.2317,0.0,-3.4334,-3.3573,0.0,0.0,0.0,-3.0854,-3.0685,-3.0653,-3.0954,-3.1652,0.0,0.0,-3.4217,-3.4094,-3.407,-3.4588,-3.4023,-3.3984,-3.5072,-3.4466,-3.401,-3.3923,-3.4061,-3.4113,-3.4096,-3.3494,-3.2978,-3.2802,-3.3082,-3.3475,-3.4054,-3.4465,-3.4598,-3.4215,-3.4222,-3.3876,-3.2684,-3.3159,-3.34,-3.2803,-3.3063,-3.3281,-3.2821,-3.3396,-3.4173,-4.2305,-4.234,-4.0405,-3.9469,-3.9179,-3.9186,-3.9785,-4.0752,-4.0771,-4.0731,-4.0678,-4.0692,-4.1192,-4.2036,-4.2422,-4.2623,-4.2671,-4.2869,-4.2743,-4.2396,-4.2585,-4.2646,-4.2612,-4.2796,-4.2884,-4.2869,-4.2689,-4.2806,-4.318,-4.2986,-4.2884,-4.2879,-4.2883,-4.2615,-4.2161,-4.2748,-4.3837,-4.5379,-4.5389,-4.5403,-4.5382,-4.4821,-4.4475,-4.4405,-4.3763,-4.328,-4.3027,-4.3008,-4.2912,-4.2686,-4.1815,-4.0834,-3.9881,-3.7991,0.0,0.0,0.0,0.0,0.0,0.0,0.0,0.0,0.0,-2.9549,-2.9059,0.0,-3.2305,0.0,-3.3538,-3.4056,-3.3634,-3.3799,0.0,0.0,-3.3283,-3.2926,-3.2791,-3.2949,-3.3035,-3.2973,-3.3194,-3.3529,-3.3913,-3.3651,-3.3653,-3.4232,-3.3811,-3.349,-3.3649,-3.3394,-3.3179,-3.3248,-3.3734,-3.4096,-3.4079,-3.3635,-3.3031,-3.2182,-3.2369,-3.2546,-3.2503,-3.2756,-3.2998,-3.3114,-3.2877,-3.2871,-3.3424,-3.3643,-3.3973,-3.4165,-3.3511,-3.2826,-3.3208,-3.3994,-3.4641,-4.3543,-4.3543,-4.3543,-4.2974,-4.2071,-4.157,-4.1421,-4.1459,-4.1066,-4.0935,-4.1052,-4.1462,-4.1683,-4.1889,-4.3041,-4.3368,-4.3124,-4.3852,-4.3945,-4.356,-4.3565,-4.3523,-4.3486,-4.3486,-4.3486,-4.3486,-4.3486,-4.3704,-4.4074,-4.4074,-4.4093,-4.4074,-4.4074,-4.3641,-4.2854,-4.3606,-4.4665,-4.5963,-4.5982,-4.5991,-4.5994,-4.5583,-4.529,-4.5233,-4.4779,-4.431,-4.3899,-4.3892,-4.3692,-4.3324,-4.2841,-4.213,-4.1085,-3.9747,-3.789,0.0,0.0,0.0,0.0,0.0,0.0,0.0,0.0,0.0,0.0,0.0,-3.3557,-3.3649,-3.4225,-3.4392,-3.3877,-3.4177,-3.4328,-3.4197,-3.4049,-3.3917,-3.3813,-3.3941,-3.3954,-3.3778,-3.3889,-3.4094,-3.4279,-3.4026,-3.3986,-3.4517,-3.42,-3.3714,-3.325,-3.3294,-3.3358,-3.299,-3.3598,-3.4256,-3.4545,-3.4251,-3.4141,-3.4517,-3.4453,-3.4491,-3.5018,-3.5118,-3.5171,-3.5314,-3.4893,-3.4787,-3.5729,-3.5642,-3.562,-3.5775,-3.5058,-3.4251,-3.4233,-3.4891,-3.553,-4.4055,-4.4037,-4.4036,-4.4036,-4.3954,-4.2902,-4.2475,-4.2412,-4.1668,-4.1367,-4.15,-4.222,-4.2141,-4.1594,-4.3915,-4.4157,-4.2846,-4.4338,-4.4619,-4.3856,-4.3831,-4.3826,-4.3821,-4.3816,-4.3821,-4.3821,-4.3816,-4.421,-4.4928,-4.4948,-4.4948,-4.4948,-4.487,-4.4423,-4.3724,-4.4326,-4.5084,-4.5982,-4.5982,-4.5997,-4.5997,-4.5997,-4.5969,-4.5905,-4.5905,-4.5544,-4.4794,-4.4748,-4.4407,-4.3692,-4.3537,-4.3137,-4.2342,-4.1146,-3.9852,0.0,-3.6559,0.0,0.0,0.0,0.0,0.0,0.0,0.0,0.0,-3.3611,-3.4363,-3.4487,-3.458,-3.4572,-3.4517,-3.4506,-3.4473,-3.437,-3.4328,-3.4305,-3.4245,-3.4326,-3.4389,-3.4376,-3.4383,-3.4594,-3.505,-3.4785,-3.4668,-3.4956,-3.4693,-3.4168,-3.3531,-3.3821,-3.3902,-3.3166,-3.3708,-3.4399,-3.4964,-3.4967,-3.548,-3.7255,-3.7075,-3.7391,-3.843,-3.8316,-3.8169,-3.8162,-3.7538,-3.7595,-3.8593,-3.8181,-3.7841,-3.797,-3.7441,-3.6582,-3.5522,-3.5701,-3.6384,-4.5812,-4.5812,-4.5812,-4.5812,-4.5714,-4.484,-4.4057,-4.3441,-4.3246,-4.3211,-4.3235,-4.3391,-4.3343,-4.3249,-4.4378,-4.4733,-4.4488,-4.5478,-4.5827,-4.5611,-4.5598,-4.5595,-4.5536,-4.5511,-4.553,-4.5536,-4.553,-4.5608,-4.5763,-4.5763,-4.5769,-4.5744,-4.5122,-4.4734,-4.454,0.0,0.0,0.0,-4.5982,-4.5991,-4.5989,-4.5986,-4.5964,-4.5893,-4.5899,0.0,-4.5575,-4.5575,-4.549,-4.5323,-4.4697,0.0,0.0,0.0,0.0,0.0,0.0,0.0,0.0,0.0,0.0,0.0,-3.3875,-3.3272,-3.2747,-3.3743,-3.4495,-3.458,-3.4602,-3.4602,-3.4572,-3.4572,-3.4561,-3.4539,-3.4558,-3.4517,-3.448,-3.5021,-3.5403,-3.5342,-3.5599,-3.5822,-3.5846,-3.5395,-3.5005,-3.5081,-3.4764,-3.4451,-3.429,-3.4337,-3.426,-3.4025,-3.4172,-3.4444,-3.5097,-3.5451,-3.6004,-3.6906,-3.7023,-3.7071,-3.7516,-3.7241,-3.6967,-3.7268,-3.7317,-3.7882,-3.8952,-3.9289,-3.9641,-4.027,-4.0233,-3.9368,-3.667,-3.6193,-3.6497,-4.6302,0.0,-4.6302,-4.6302,0.0,-4.5831,-4.5402,-4.4914,-4.4075,-4.3705,-4.3725,-4.4153,-4.4323,-4.437,-4.5623,-4.6176,-4.6196,-4.661,-4.6777,-4.6735,-4.6246,-4.6027,-4.5982,-4.5982,-4.5982,-4.5982,-4.5982,-4.5982,-4.5982,-4.5982,-4.5982,-4.5982,-4.5181,-4.4792,-4.4773,-4.3938,-4.3918,-4.4753,-4.4743,-4.4713,-4.4716,-4.4716,-4.4707,-4.466,-4.5041,0.0,0.0,0.0,0.0,0.0,0.0,0.0,0.0,-4.4041,0.0,-4.2167,-4.1973,-4.1544,-4.0806,-3.9114,-3.7725,-3.6825,-3.5187,-3.3987,-3.3524,-3.4109,-3.4495,-3.4506,-3.4495,-3.4495,-3.4525,-3.4881,-3.512,-3.5116,-3.5441,-3.5661,-3.5639,-3.5938,-3.6117,-3.5948,-3.6057,-3.6065,-3.5727,-3.5729,-3.5616,-3.5491,-3.5642,-3.57,-3.5682,-3.5268,-3.4992,-3.5255,-3.5261,-3.5614,-3.6602,-3.6844,-3.7494,-3.8728,-3.8845,-3.8772,-3.915,-3.8855,-3.8781,-3.9271,-3.9349,-3.9656,-4.0959,-4.1216,-4.1203,-4.157,-4.1699,-4.113,-3.9074,-3.867,-3.8765,-4.6302,-4.6302,-4.6302,-4.6302,-4.6302,-4.6302,-4.6302,-4.6204,0.0,0.0,0.0,-4.4914,-4.5223,-4.5316,-4.6816,-4.7482,-4.7486,-4.7583,-4.7621,-4.7592,-4.6814,-4.6468,-4.6463,-4.6468,-4.6371,-4.623,-4.6249,-4.6157,-4.6002,-4.5982,-4.5982,-4.5924,-4.5181,-4.4715,-4.454,-4.386,-4.3486,-4.3486,-4.3426,-4.3396,-4.3391,-4.3402,-4.3393,-4.3395,-4.4034,-4.4363,-4.4369,-4.5142,-4.5594,-4.5594,-4.5722,-4.5483,-4.4798,-4.4723,-4.4342,-4.3495,-4.3395,-4.3365,-4.3178,-4.1331,-3.9647,-3.8281,-3.6009,-3.4584,-3.4377,-3.442,-3.4484,-3.4439,-3.457,-3.4663,-3.4663,-3.543,-3.5923,-3.5863,-3.6447,-3.6783,-3.6763,-3.6879,-3.6843,-3.6564,-3.6586,-3.6334,-3.5854,-3.6132,-3.6324,-3.6169,-3.6515,-3.697,-3.686,-3.6215,-3.5971,-3.6571,-3.6589,-3.7059,-3.8382,-3.8616,-3.9336,-4.1078,-4.094,-4.0858,-4.148,-4.1445,-4.1485,-4.1769,-4.1669,-4.1932,-4.2977,-4.2804,-4.2543,-4.2506,-4.2525,-4.2323,-4.1701,-4.1499,-4.1315,-4.6302,-4.6302,-4.6302,-4.6302,-4.6302,-4.6302,-4.6302,-4.6282,-4.6027,-4.5929,-4.5948,-4.6066,-4.6095,-4.6092,-4.7061,-4.7453,-4.7464,-4.8195,-4.8482,-4.8436,-4.8294,-4.823,-4.823,-4.823,-4.7842,-4.7162,-4.7118,-4.6715,-4.6079,-4.6002,-4.5982,-4.5905,-4.52,-4.4443,-4.3743,-4.3563,-4.3486,-4.3486,-4.3426,-4.3405,-4.3397,-4.3391,-4.3393,-4.3395,-4.3492,-4.3557,-4.3498,-4.4311,-4.4768,-4.4775,-4.5432,-4.5722,-4.5626,-4.5599,-4.5554,-4.5423,-4.5397,-4.531,-4.5049,-4.2879,-4.0083,-3.69,-3.601,-3.5346,-3.4559,-3.4495,-3.4517,-3.4599,-3.5263,-3.5706,-3.5743,-3.64,-3.6876,-3.6883,-3.6948,-3.6987,-3.7025,-3.7479,-3.778,-3.77,-3.7784,-3.7753,-3.7461,-3.7147,-3.6821,-3.6814,-3.6884,-3.6968,-3.6923,-3.6721,-3.6946,-3.7574,-3.7683,-3.8264,-3.9303,-3.9852,-4.0453,-4.2085,-4.1845,-4.1703,-4.2438,-4.2271,-4.2068,-4.2248,-4.242,-4.2739,-4.305,-4.3213,-4.3224,-4.3258,-4.3222,-4.3184,-4.2965,-4.2983,-4.2653,-4.6729,-4.6319,-4.6302,-4.6302,-4.6302,-4.6302,-4.6302,-4.6302,-4.6302,-4.6294,-4.6362,-4.7238,-4.7613,-4.7678,-4.8923,-4.9476,-4.945,-4.9391,-4.9326,-4.9265,-4.8813,-4.858,-4.858,-4.858,-4.8405,-4.8017,-4.8017,-4.757,-4.6773,-4.6715,-4.6482,-4.6002,-4.5608,-4.5239,-4.4851,-4.4423,-4.4199,-4.4125,-4.3192,-4.271,-4.2673,-4.2232,-4.1995,-4.1996,-4.2383,-4.2628,-4.2609,-4.3421,-4.3885,-4.3904,-4.4233,-4.4659,-4.5104,-4.5142,-4.5355,-4.5768,-4.5807,-4.5752,-4.5685,-4.325,-4.0556,-3.7773,-3.7016,-3.6481,-3.5968,-3.5473,-3.5387,-3.5806,-3.6237,-3.6443,-3.6461,-3.7173,-3.7641,-3.7641,-3.8016,-3.8259,-3.8239,-3.8449,-3.8571,-3.8362,-3.8188,-3.8034,-3.7809,-3.7337,-3.7007,-3.6989,-3.6989,-3.7091,-3.7399,-3.7154,-3.6991,-3.7292,-3.791,-3.8655,-3.946,-4.0079,-4.0853,-4.2014,-4.216,-4.2105,-4.2228,-4.2164,-4.2345,-4.2173,-4.2595,-4.3069,-4.3232,-4.3409,-4.3513,-4.3515,-4.3479,-4.3479,-4.3479,-4.3479,-4.3204,-4.7373,-4.6593,-4.6593,-4.6475,-4.6302,-4.6302,-4.6302,-4.6302,-4.6302,-4.6366,-4.6657,-4.7747,-4.8386,-4.883,-5.0077,-5.0831,-5.1069,-5.0487,-5.0178,-5.0114,-4.9493,-4.9182,-4.9182,-4.9182,-4.9085,-4.891,-4.8891,-4.8444,-4.7667,-4.7584,-4.7143,-4.6346,-4.6099,-4.5982,-4.5982,-4.5375,-4.5054,-4.4896,-4.3472,-4.2602,-4.2391,-4.1724,-4.1383,-4.1416,-4.199,-4.2202,-4.2048,-4.2841,-4.3208,-4.3034,-4.3189,-4.3608,-4.4246,-4.4304,-4.4678,-4.5394,-4.5529,-4.5413,-4.5123,-4.3096,-4.0891,-3.8859,-3.8057,-3.7602,-3.7333,-3.6763,-3.6492,-3.6887,-3.7074,-3.7212,-3.7336,-3.796,-3.8428,-3.8465,-3.8988,-3.9266,-3.9237,-3.9229,-3.9027,-3.8658,-3.8298,-3.7948,-3.7578,-3.7223,-3.6989,-3.6989,-3.6989,-3.7271,-3.7654,-3.7426,-3.7171,-3.7158,-3.8074,-3.9211,-3.9512,-4.0437,-4.1313,-4.2021,-4.2442,-4.2481,-4.225,-4.2522,-4.2668,-4.2591,-4.2898,-4.3334,-4.3599,-4.3651,-4.3634,-4.36,-4.3566,-4.3513,-4.3515,-4.3479,-4.3479,-4.8232,-4.7528,-4.7469,-4.7022,-4.6358,-4.63,-4.6302,-4.6302,-4.6302,-4.6718,-4.724,-4.6733,-4.7359,-4.8593,-4.8954,-4.9858,-5.1136,-5.1125,-5.1066,-5.1047,-5.1008,-5.0969,-5.0891,-5.093,-5.0542,-4.9868,-4.9771,-4.9324,-4.8522,-4.8444,-4.8017,-4.7181,-4.6385,-4.6021,-4.6002,-4.5924,-4.588,-4.5861,-4.4955,-4.4081,-4.333,-4.3221,-4.3124,-4.3092,-4.3131,-4.2802,-4.2106,-4.2841,-4.2937,-4.228,-4.2899,-4.3343,-4.344,-4.344,-4.3827,-4.4659,-4.4736,-4.4388,-4.3569,-4.2398,-4.0877,-3.9116,-3.8659,-3.8404,-3.8211,-3.81,-3.7763,-3.7444,-3.7788,-3.8164,-3.8201,-3.8914,-3.9358,-3.9308,-3.937,-3.9405,-3.936,-3.9215,-3.8984,-3.8658,-3.8314,-3.7966,-3.756,-3.7206,-3.6989,-3.6989,-3.6989,-3.7112,-3.7323,-3.7584,-3.769,-3.7459,-3.8281,-3.9662,-4.0691,-4.1669,-4.1989,-4.2491,-4.2977,-4.312,-4.3286,-4.3476,-4.3707,-4.3187,-4.3634,-4.3747,-4.3734,-4.3788,-4.3769,-4.3719,-4.3651,-4.3565,-4.3513,-4.3496,-4.3496,-4.9072,-4.831,-4.831,-4.7822,-4.7061,-4.6515,-4.6302,-4.6302,-4.6302,-4.6464,-4.6755,-4.6889,-4.7866,-4.9425,-4.9946,-5.0572,-5.1183,-5.1202,-5.1202,-5.1202,-5.1202,-5.1202,-5.1202,-5.1202,-5.0989,-5.0697,-5.0658,-5.0212,-4.9415,-4.8871,-4.8405,-4.8017,-4.7201,-4.6773,-4.6715,-4.6274,-4.5991,-4.5994,-4.5653,-4.5264,-4.4821,-4.3905,-4.3363,-4.3305,-4.3305,-4.315,-4.2841,-4.3131,-4.3131,-4.2821,-4.3131,-4.3556,-4.4033,-4.4072,-4.4446,-4.52,-4.4871,-4.4001,-4.2609,-4.2013,-4.1116,-3.9765,-3.9478,-3.9293,-3.9088,-3.9082,-3.8913,-3.8707,-3.8876,-3.9082,-3.9082,-3.9383,-3.9608,-3.9608,-3.9558,-3.9508,-3.9457,-3.9386,-3.9175,-3.8715,-3.8376,-3.7981,-3.7578,-3.7223,-3.7009,-3.6989,-3.7007,-3.7165,-3.7532,-3.7567,-3.7725,-3.8286,-3.8954,-3.9196,-3.9751,-4.0775,-4.1574,-4.2156,-4.2849,-4.3436,-4.3341,-4.3751,-4.3812,-4.3367,-4.3682,-4.391,-4.3867,-4.3851,-4.3851,-4.3802,-4.3769,-4.3667,-4.3565,-4.3548,-4.3548,-4.993,-4.9169,-4.8915,-4.833,-4.7567,-4.6924,-4.6515,-4.6321,-4.6302,-4.6409,-4.6667,-4.7496,-4.8633,-4.9895,-5.0578,-5.0966,-5.1189,-5.1202,-5.1047,-5.0872,-5.0833,-5.0833,-5.0853,-5.0853,-5.0969,-5.1163,-5.1183,-5.0853,-5.0192,-4.9376,-4.8949,-4.8832,-4.8094,-4.7662,-4.757,-4.6773,-4.6374,-4.6346,-4.6152,-4.5962,-4.5732,-4.4718,-4.406,-4.3988,-4.3982,-4.3885,-4.3653,-4.3421,-4.3189,-4.2957,-4.2744,-4.3015,-4.3827,-4.3885,-4.4253,-4.4949,-4.4581,-4.3595,-4.2086,-4.1663,-4.1088,-4.0309,-4.006,-3.987,-3.9674,-3.9608,-3.9608,-3.9552,-3.9608,-3.957,-3.9608,-3.9608,-3.9608,-3.9608,-3.9577,-3.9558,-3.9527,-3.9444,-3.9147,-3.864,-3.8245,-3.7912,-3.7504,-3.7341,-3.7338,-3.7338,-3.7341,-3.7426,-3.7848,-3.7514,-3.7429,-3.848,-3.8638,-3.8638,-3.8573,-4.0404,-4.1439,-4.1869,-4.2718,-4.3492,-4.316,-4.3711,-4.382,-4.3463,-4.3759,-4.3852,-4.3747,-4.3765,-4.3897,-4.3851,-4.3818,-4.3769,-4.3615,-4.3599,-4.3565,-5.0848,-4.9967,-4.915,-4.8408,-4.7606,-4.7528,-4.7061,-4.6397,-4.6339,-4.6766,-4.758,-4.8399,-4.9208,-4.9968,-5.0105,-5.0441,-5.113,-5.1163,-5.0736,-5.0081,-4.9984,-4.9945,-4.9945,-4.9965,-5.0367,-5.1047,-5.1086,-5.1086,-5.1008,-5.027,-4.9848,-4.979,-4.8968,-4.8541,-4.8425,-4.7662,-4.7243,-4.7175,-4.6496,-4.602,-4.5925,-4.5822,-4.5628,-4.5555,-4.5652,-4.5239,-4.4562,-4.375,-4.2995,-4.2144,-4.1622,-4.1512,-4.2125,-4.2299,-4.2783,-4.3363,-4.344,-4.2976,-4.2048,-4.1274,-4.0668,-4.0269,-4.0148,-4.001,-3.965,-3.9608,-3.9608,-3.9608,-3.9608,-3.9608,-3.9608,-3.9608,-3.9608,-3.9589,-3.9527,-3.952,-3.9495,-3.9256,-3.8807,-3.8326,-3.7981,-3.7596,-3.7143,-3.7639,-3.79,-3.797,-3.8023,-3.8128,-3.8076,-3.7532,-3.7288,-3.7288,-3.7446,-3.7622,-3.9054,-4.0493,-4.1681,-4.2196,-4.2749,-4.3871,-4.3955,-4.3955,-4.3703,-4.3584,-4.382,-4.3823,-4.3627,-4.3644,-4.386,-4.3929,-4.3897,-4.3814,-4.3699,-4.3634,-4.36,-5.1219,-5.0867,-4.9989,-4.9148,-4.833,-4.782,-4.7412,-4.7137,-4.7084,-4.7565,-4.8399,-4.9211,-4.9718,-4.9969,-5.05,-5.0908,-5.1144,-5.0639,-5.0192,-4.9848,-4.9337,-4.9066,-4.9066,-4.9085,-4.9518,-5.027,-5.0367,-5.0658,-5.1144,-5.0872,-5.0717,-5.0581,-4.9862,-4.9415,-4.926,-4.8518,-4.8062,-4.7973,-4.7204,-4.672,-4.6621,-4.613,-4.584,-4.5807,-4.5807,-4.5671,-4.5374,-4.5065,-4.4523,-4.3692,-4.3866,-4.3885,-4.373,-4.4156,-4.4027,-4.3401,-4.3305,-4.2686,-4.1422,-4.0847,-4.0489,-4.0233,-4.008,-3.9895,-3.9674,-3.9608,-3.9608,-3.9608,-3.9608,-3.9608,-3.9608,-3.9608,-3.9608,-3.9608,-3.9583,-3.9558,-3.9527,-3.9393,-3.9041,-3.8357,-3.7721,-3.7203,-3.7208,-3.7654,-3.8076,-3.8164,-3.8529,-3.8792,-3.874,-3.8199,-3.7707,-3.7707,-3.7745,-3.8003,-3.8741,-3.9912,-4.1028,-4.1887,-4.268,-4.3492,-4.3857,-4.3989,-4.3823,-4.3705,-4.3889,-4.3939,-4.3761,-4.3777,-4.3974,-4.3974,-4.3961,-4.3913,-4.3816,-4.3751,-4.3667,-5.1394,-5.1297,-5.077,-5.0008,-4.915,-4.833,-4.782,-4.7584,-4.725,-4.7413,-4.8031,-4.881,-4.9273,-4.9576,-5.0101,-5.0561,-5.0717,-5.0159,-4.9615,-4.9027,-4.8444,-4.8172,-4.8172,-4.8191,-4.8794,-4.9809,-5.0192,-5.0639,-5.1125,-5.1202,-5.1202,-5.1144,-5.0581,-5.0314,-5.0167,-4.94,-4.8923,-4.8768,-4.8043,-4.7564,-4.7432,-4.6651,-4.6213,-4.6167,-4.5962,-4.5807,-4.5807,-4.5548,-4.5181,-4.4729,-4.4871,-4.4871,-4.4678,-4.5374,-4.5181,-4.3924,-4.375,-4.2976,-4.1461,-4.1072,-4.0793,-4.0351,-4.012,-3.9914,-3.9727,-3.9638,-3.962,-3.9608,-3.9608,-3.9608,-3.9608,-3.9564,-3.9564,-3.9596,-3.9596,-3.9583,-3.9571,-3.9451,-3.897,-3.8212,-3.7487,-3.7068,-3.7077,-3.7672,-3.8164,-3.8424,-3.9003,-3.9319,-3.9533,-3.9024,-3.8477,-3.8494,-3.8497,-3.8879,-3.9622,-4.0625,-4.1252,-4.2029,-4.2892,-4.3562,-4.386,-4.3958,-4.3974,-4.3892,-4.3908,-4.3974,-4.4005,-4.4005,-4.4005,-4.4005,-4.3989,-4.3942,-4.3897,-4.3849,-4.3658,-5.1394,-5.1375,-5.1375,-5.0809,-4.9909,-4.905,-4.8308,-4.7623,-4.674,-4.6588,-4.6972,-4.7315,-4.821,-4.8647,-4.8899,-4.9149,-4.9635,-4.9635,-4.8871,-4.7609,-4.7376,-4.7298,-4.7279,-4.7298,-4.8172,-4.9771,-5.0736,-5.1163,-5.1202,-5.1202,-5.1202,-5.1183,-5.1144,-5.1047,-5.1144,-5.0234,-4.9795,-4.9608,-4.8896,-4.8389,-4.8283,-4.7444,-4.6922,-4.6844,-4.6174,-4.5807,-4.5807,-4.5123,-4.4748,-4.4555,-4.3975,-4.382,-4.4697,-4.5394,-4.5413,-4.4659,-4.4536,-4.373,-4.2299,-4.2002,-4.1574,-4.0891,-4.0429,-4.0356,-4.0185,-3.9899,-3.9739,-3.9758,-3.9646,-3.9608,-3.9596,-3.9546,-3.9533,-3.9564,-3.9546,-3.9508,-3.9469,-3.928,-3.8778,-3.7999,-3.7446,-3.7066,-3.7165,-3.776,-3.848,-3.8985,-3.9424,-3.9856,-4.0377,-3.9905,-3.9399,-3.937,-3.9411,-3.9674,-4.055,-4.1446,-4.185,-4.2378,-4.3234,-4.3974,-4.3958,-4.3989,-4.3908,-4.3841,-4.3923,-4.3989,-4.4005,-4.4005,-4.4005,-4.4005,-4.3989,-4.3859,-4.3664,-4.3508,-4.3428,-5.1394,-5.1394,-5.1394,-5.0906,-5.0044,-4.9172,-4.8628,-4.8344,-4.7424,-4.7357,-4.7891,-4.8127,-4.8393,-4.8563,-4.8605,-4.8405,-4.8133,-4.8094,-4.7803,-4.7279,-4.6696,-4.6424,-4.6424,-4.6424,-4.7317,-4.9007,-5.0522,-5.1202,-5.126,-5.1241,-5.1202,-5.1202,-5.1222,-5.1202,-5.1196,-5.0862,-5.0688,-5.0577,-4.9787,-4.9035,-4.8399,-4.756,-4.6844,-4.6252,-4.5942,-4.5807,-4.5787,-4.5555,-4.5162,-4.4659,-4.4871,-4.5142,-4.5413,-4.5645,-4.5432,-4.4717,-4.4581,-4.4156,-4.3131,-4.2873,-4.2652,-4.212,-4.1925,-4.1732,-4.1341,-4.0766,-4.044,-4.0359,-3.9946,-3.9608,-3.9596,-3.9546,-3.9601,-3.9533,-3.9469,-3.9444,-3.9461,-3.9537,-3.9126,-3.8281,-3.8133,-3.7887,-3.7492,-3.8043,-3.8995,-3.9378,-4.0151,-4.0971,-4.1357,-4.0958,-4.0735,-4.0876,-4.0684,-4.0596,-4.1506,-4.2159,-4.246,-4.2859,-4.3582,-4.4005,-4.4005,-4.3989,-4.3892,-4.3876,-4.3958,-4.3989,-4.3989,-4.3912,-4.3856,-4.3875,-4.3819,-4.3581,-4.325,-4.3039,-4.2902,-5.1394,-5.1394,-5.1394,-5.1102,-5.0494,-4.9642,-4.9091,-4.8701,-4.7797,-4.7548,-4.768,-4.7631,-4.7842,-4.7997,-4.7784,-4.7531,-4.7273,-4.7007,-4.6987,-4.7118,-4.6404,-4.6002,-4.6138,-4.6721,-4.7861,-4.9532,-5.0989,-5.1824,-5.2096,-5.1804,-5.1649,-5.163,-5.1358,-5.1202,-5.1196,-5.1133,-5.1076,-5.1004,-5.0465,-4.9751,-4.8902,-4.8024,-4.7154,-4.6399,-4.5981,-4.5981,-4.6213,-4.6,-4.5568,-4.522,-4.5555,-4.5787,-4.5807,-4.5787,-4.5568,-4.52,-4.5007,-4.4678,-4.3924,-4.3782,-4.347,-4.2964,-4.2738,-4.2506,-4.2095,-4.1512,-4.1285,-4.1154,-4.0854,-4.0497,-4.0516,-4.0433,-4.0394,-4.0375,-3.9806,-3.9487,-3.9458,-3.9659,-3.9486,-3.8876,-3.9031,-3.8866,-3.8631,-3.8724,-3.9676,-4.0011,-4.0658,-4.1533,-4.1858,-4.1787,-4.1871,-4.1938,-4.1776,-4.196,-4.2531,-4.2886,-4.308,-4.3446,-4.3899,-4.4005,-4.4005,-4.4005,-4.3958,-4.3958,-4.3989,-4.3989,-4.4005,-4.3578,-4.3392,-4.3485,-4.3503,-4.3039,-4.2615,-4.2414,-4.2298,-5.1394,-5.1394,-5.1394,-5.1375,-5.1219,-5.0393,-4.9601,-4.8842,-4.7921,-4.7143,-4.6502,-4.6494,-4.6638,-4.6948,-4.6579,-4.6638,-4.7065,-4.6657,-4.6793,-4.7123,-4.6735,-4.641,-4.6604,-4.7861,-4.9357,-5.0891,-5.1882,-5.2756,-5.3345,-5.2795,-5.2445,-5.2251,-5.1668,-5.1241,-5.1216,-5.1133,-5.1121,-5.1062,-5.0988,-5.0468,-4.9513,-4.8759,-4.7831,-4.6922,-4.6194,-4.6174,-4.6748,-4.6484,-4.602,-4.5826,-4.5761,-4.5807,-4.5807,-4.5807,-4.5761,-4.5691,-4.5768,-4.5374,-4.4833,-4.4659,-4.4271,-4.3483,-4.3187,-4.273,-4.2647,-4.2354,-4.2079,-4.2061,-4.1892,-4.1835,-4.1804,-4.174,-4.1732,-4.1681,-4.0493,-3.9737,-3.9528,-3.9808,-3.9877,-3.9665,-4.0019,-4.0366,-3.9871,-3.9918,-4.0437,-4.0969,-4.1191,-4.1825,-4.2499,-4.2901,-4.2704,-4.2736,-4.2904,-4.2864,-4.3277,-4.3328,-4.352,-4.3675,-4.4005,-4.4005,-4.4005,-4.4005,-4.4005,-4.4005,-4.4005,-4.4005,-4.3912,-4.3578,-4.3188,-4.3076,-4.2835,-4.2333,-4.1962,-4.1668,-4.1449,-5.1394,-5.1394,-5.1394,-5.1394,-5.1275,-5.0479,-4.9979,-4.9653,-4.8737,-4.7862,-4.7169,-4.6989,-4.6754,-4.6366,-4.6215,-4.6482,-4.7104,-4.7104,-4.7414,-4.8114,-4.8055,-4.792,-4.8094,-4.8988,-5.0134,-5.1222,-5.2096,-5.2859,-5.3636,-5.3442,-5.3009,-5.2407,-5.2173,-5.1727,-5.1293,-5.119,-5.116,-5.1107,-5.1074,-5.0296,-4.8999,-4.8585,-4.7637,-4.6245,-4.5942,-4.6271,-4.7076,-4.7521,-4.7045,-4.5904,-4.5807,-4.5807,-4.5807,-4.5807,-4.5807,-4.5807,-4.5807,-4.5722,-4.5529,-4.5452,-4.5225,-4.4902,-4.448,-4.4437,-4.4149,-4.3396,-4.3039,-4.2844,-4.2449,-4.2061,-4.2042,-4.2066,-4.2034,-4.1833,-4.1049,-4.0365,-4.04,-4.0845,-4.1111,-4.0845,-4.1423,-4.135,-4.089,-4.0944,-4.1504,-4.2189,-4.2707,-4.3212,-4.3825,-4.4123,-4.3961,-4.4137,-4.4223,-4.3925,-4.3807,-4.3823,-4.3855,-4.3902,-4.4005,-4.4005,-4.4005,-4.4005,-4.4005,-4.4005,-4.4005,-4.4005,-4.3986,-4.3819,-4.3392,-4.2742,-4.2463,-4.2073,-4.12,-4.0717,-4.0405,-5.1394,-5.1394,-5.1394,-5.1394,-5.1334,-5.0852,-5.0425,-5.0004,-4.9496,-4.8725,-4.8044,-4.7858,-4.757,-4.7104,-4.7109,-4.7337,-4.7803,-4.7842,-4.8327,-4.9124,-4.9512,-4.9473,-4.9454,-5.0037,-5.0872,-5.1707,-5.2523,-5.3417,-5.4038,-5.3902,-5.3417,-5.2989,-5.2562,-5.1999,-5.126,-5.1196,-5.1166,-5.1107,-5.1055,-5.0361,-4.9057,-4.8566,-4.7715,-4.66,-4.6368,-4.6748,-4.7618,-4.8469,-4.814,-4.6786,-4.6329,-4.6194,-4.5826,-4.5807,-4.5807,-4.5807,-4.5807,-4.5807,-4.5807,-4.58,-4.5708,-4.5505,-4.5371,-4.5223,-4.4893,-4.4291,-4.3931,-4.3856,-4.3342,-4.3125,-4.3037,-4.3055,-4.2868,-4.2605,-4.2045,-4.1565,-4.1202,-4.1833,-4.2035,-4.2051,-4.2453,-4.2846,-4.1877,-4.2175,-4.2576,-4.3032,-4.3484,-4.418,-4.4894,-4.5094,-4.5291,-4.5416,-4.5119,-4.4663,-4.4257,-4.4165,-4.3961,-4.3989,-4.4005,-4.4005,-4.4005,-4.4005,-4.4005,-4.4005,-4.4005,-4.3968,-4.3893,-4.3633,-4.2965,-4.2445,-4.2203,-4.1609,-4.0717,-4.0048,-3.9695,-5.1394,-5.1394,-5.1394,-5.1394,-5.1394,-5.1373,-5.0918,-5.0279,-5.0147,-4.9614,-4.8893,-4.8741,-4.858,-4.858,-4.825,-4.8599,-4.8716,-4.8735,-4.9279,-4.9998,-5.0561,-5.0639,-5.0153,-5.0697,-5.1494,-5.2271,-5.3209,-5.3883,-5.4252,-5.3941,-5.3636,-5.3228,-5.264,-5.1979,-5.1358,-5.1202,-5.1166,-5.1101,-5.1095,-5.0588,-4.964,-4.8967,-4.8213,-4.7463,-4.7482,-4.7811,-4.8566,-4.9243,-4.9068,-4.7444,-4.7308,-4.6825,-4.6148,-4.5981,-4.5884,-4.5826,-4.5807,-4.5807,-4.5807,-4.58,-4.5737,-4.5566,-4.5535,-4.5409,-4.5152,-4.4813,-4.4613,-4.4537,-4.4581,-4.4303,-4.4257,-4.4388,-4.4031,-4.3538,-4.3369,-4.2972,-4.2505,-4.2693,-4.2905,-4.2709,-4.3608,-4.3862,-4.3726,-4.3599,-4.3676,-4.4411,-4.482,-4.5589,-4.6083,-4.6246,-4.6386,-4.6483,-4.5974,-4.5249,-4.4859,-4.4506,-4.4193,-4.4005,-4.4005,-4.4005,-4.4005,-4.4005,-4.4005,-4.4005,-4.4005,-4.3856,-4.3633,-4.3169,-4.2556,-4.1794,-4.1311,-4.0773,-4.0178,-3.9695,-3.9268,-5.1394,-5.1394,-5.1394,-5.1394,-5.1394,-5.1394,-5.1249,-5.1008,-5.1008,-5.0432,-4.9787,-4.9629,-4.926,-4.8658,-4.8794,-4.8949,-4.9576,-4.9648,-5.0101,-5.0853,-5.1047,-5.1144,-5.0911,-5.1144,-5.161,-5.2251,-5.2542,-5.3145,-5.3689,-5.3708,-5.3326,-5.2717,-5.2542,-5.1999,-5.1319,-5.1196,-5.1165,-5.1108,-5.1082,-5.0661,-4.9967,-4.9519,-4.8943,-4.8263,-4.8701,-4.9146,-4.9513,-5.0202,-5.0105,-4.9262,-4.8508,-4.7811,-4.7018,-4.6774,-4.6484,-4.602,-4.5826,-4.5807,-4.5807,-4.58,-4.5773,-4.5723,-4.5594,-4.5428,-4.5203,-4.4985,-4.4764,-4.4608,-4.4542,-4.4496,-4.4482,-4.4482,-4.4383,-4.4195,-4.4144,-4.4088,-4.3886,-4.3516,-4.347,-4.3829,-4.4069,-4.4226,-4.411,-4.4573,-4.4969,-4.5692,-4.6362,-4.7105,-4.727,-4.727,-4.7376,-4.7423,-4.6605,-4.5844,-4.5287,-4.4785,-4.4191,-4.4005,-4.4005,-4.3801,-4.3801,-4.3856,-4.3801,-4.3893,-4.4005,-4.3745,-4.328,-4.2927,-4.2352,-4.14,-4.0508,-4.0178,-3.9807,-3.9324,-3.9156,-5.1394,-5.1394,-5.1394,-5.1394,-5.1394,-5.1392,-5.1366,-5.1312,-5.13,-5.0996,-5.0603,-5.0503,-5.0231,-4.9843,-4.9843,-5.0134,-5.0406,-5.0503,-5.0736,-5.1125,-5.1202,-5.1202,-5.1202,-5.1222,-5.1474,-5.1882,-5.2271,-5.2698,-5.2989,-5.3073,-5.2834,-5.2445,-5.2387,-5.196,-5.1319,-5.1222,-5.1165,-5.1101,-5.1095,-5.0817,-5.0421,-4.9896,-4.9577,-4.9134,-4.9494,-4.9823,-5.0279,-5.0627,-5.0627,-5.0268,-4.9784,-4.8972,-4.7831,-4.7308,-4.6851,-4.6503,-4.5955,-4.5845,-4.5807,-4.5807,-4.58,-4.5807,-4.5681,-4.561,-4.5427,-4.5165,-4.4962,-4.4808,-4.4667,-4.4482,-4.4482,-4.4482,-4.4482,-4.4482,-4.4482,-4.4482,-4.4439,-4.412,-4.3975,-4.4346,-4.435,-4.4587,-4.4849,-4.5258,-4.5661,-4.6102,-4.6903,-4.761,-4.7727,-4.78,-4.8151,-4.8017,-4.7163,-4.642,-4.5788,-4.5064,-4.4172,-4.4005,-4.4005,-4.3652,-4.3355,-4.3448,-4.3522,-4.3596,-4.363,-4.3169,-4.2723,-4.2407,-4.1958,-4.1051,-4.029,-3.9863,-3.9524,-3.9226,-3.9205,-5.1394,-5.1394,-5.1394,-5.1394,-5.1394,-5.139,-5.1361,-5.1304,-5.1273,-5.1196,-5.12,-5.1202,-5.1027,-5.1125,-5.1066,-5.1183,-5.1163,-5.1144,-5.1163,-5.1183,-5.1202,-5.1202,-5.1202,-5.1222,-5.1241,-5.1299,-5.1804,-5.2173,-5.2212,-5.2212,-5.2173,-5.2173,-5.2173,-5.1785,-5.1319,-5.1216,-5.119,-5.1133,-5.1108,-5.1089,-5.094,-5.0331,-5.0005,-4.9942,-4.9958,-5.0241,-5.0666,-5.0879,-5.0879,-5.0898,-5.0898,-5.0144,-4.901,-4.785,-4.7045,-4.6922,-4.6109,-4.5865,-4.5807,-4.5807,-4.5807,-4.5807,-4.58,-4.5759,-4.565,-4.5361,-4.515,-4.4969,-4.4764,-4.4482,-4.4482,-4.4482,-4.4482,-4.4482,-4.4482,-4.4482,-4.4482,-4.4482,-4.4444,-4.4449,-4.4468,-4.463,-4.5181,-4.5682,-4.6088,-4.6563,-4.7367,-4.793,-4.8012,-4.8257,-4.8554,-4.85,-4.7664,-4.6494,-4.5769,-4.5053,-4.42,-4.407,-4.4055,-4.3698,-4.323,-4.3208,-4.3316,-4.3177,-4.3032,-4.2567,-4.214,-4.1783,-4.1244,-4.0527,-4.003,-3.9584,-3.9338,-3.9161,-3.9285,-5.1394,-5.1394,-5.1394,-5.1394,-5.1392,-5.1394,-5.1362,-5.1281,-5.1243,-5.121,-5.1208,-5.1202,-5.1202,-5.1202,-5.1202,-5.1202,-5.1202,-5.1202,-5.1202,-5.1202,-5.1202,-5.1202,-5.1202,-5.1202,-5.1202,-5.1222,-5.1435,-5.1513,-5.1494,-5.1396,-5.1532,-5.1455,-5.1474,-5.1299,-5.128,-5.1222,-5.1196,-5.1171,-5.1165,-5.1133,-5.1037,-5.0901,-5.0706,-5.0649,-5.0573,-5.0693,-5.0801,-5.0898,-5.0898,-5.0898,-5.0898,-5.0724,-5.0028,-4.8856,-4.7579,-4.66,-4.602,-4.5807,-4.5807,-4.5807,-4.5807,-4.5807,-4.5807,-4.5715,-4.5558,-4.5352,-4.5161,-4.4879,-4.4681,-4.4482,-4.4482,-4.4482,-4.4482,-4.4482,-4.4482,-4.4482,-4.4482,-4.4482,-4.4482,-4.4501,-4.4533,-4.4697,-4.5319,-4.587,-4.6236,-4.6732,-4.7463,-4.7863,-4.7947,-4.8342,-4.879,-4.8551,-4.8129,-4.6828,-4.5621,-4.4882,-4.4184,-4.418,-4.4124,-4.3968,-4.3554,-4.3247,-4.3102,-4.2648,-4.2288,-4.1901,-4.1491,-4.1138,-4.0514,-3.9821,-3.9524,-3.9305,-3.9235,-3.9178,-3.937,-5.1394,-5.1394,-5.1394,-5.1394,-5.139,-5.1386,-5.1356,-5.1316,-5.123,-5.1219,-5.1214,-5.1202,-5.1202,-5.1202,-5.1202,-5.1202,-5.1202,-5.1202,-5.1202,-5.1202,-5.1202,-5.1202,-5.1202,-5.1202,-5.1202,-5.1202,-5.1202,-5.1202,-5.1222,-5.1241,-5.1202,-5.1222,-5.1202,-5.1202,-5.1202,-5.1202,-5.1202,-5.1202,-5.1196,-5.1177,-5.1159,-5.1127,-5.1063,-5.1,-5.0971,-5.0941,-5.0898,-5.0898,-5.0898,-5.0898,-5.0898,-5.0666,-5.0066,-4.9184,-4.8043,-4.7154,-4.631,-4.5807,-4.5807,-4.5807,-4.5807,-4.5807,-4.5807,-4.5759,-4.5642,-4.5472,-4.5184,-4.4849,-4.4616,-4.4482,-4.4482,-4.4482,-4.4482,-4.4482,-4.4482,-4.4482,-4.4482,-4.4482,-4.4482,-4.4482,-4.4505,-4.481,-4.5467,-4.5929,-4.6315,-4.6884,-4.7523,-4.77,-4.7732,-4.8238,-4.8688,-4.8505,-4.8044,-4.6983,-4.5717,-4.4885,-4.4296,-4.4274,-4.408,-4.3922,-4.3417,-4.2875,-4.2235,-4.1642,-4.1339,-4.1292,-4.0831,-4.0444,-3.9788,-3.9263,-3.9226,-3.9189,-3.9221,-3.9272,-3.9483,-5.1394,-5.1394,-5.1394,-5.1394,-5.139,-5.138,-5.1349,-5.1292,-5.122,-5.1203,-5.1208,-5.1202,-5.1202,-5.1202,-5.1202,-5.1202,-5.1202,-5.1202,-5.1202,-5.1202,-5.1202,-5.1202,-5.1202,-5.1202,-5.1202,-5.1202,-5.1202,-5.1202,-5.1202,-5.1202,-5.1202,-5.1202,-5.1202,-5.1202,-5.1202,-5.1202,-5.1202,-5.1202,-5.1202,-5.1202,-5.1196,-5.1133,-5.1069,-5.1027,-5.0993,-5.0963,-5.0906,-5.0898,-5.0898,-5.0898,-5.084,-5.0635,-4.9958,-4.9146,-4.8604,-4.8159,-4.6748,-4.602,-4.5807,-4.5807,-4.5807,-4.5807,-4.5807,-4.58,-4.5725,-4.5549,-4.5294,-4.4884,-4.4675,-4.4551,-4.451,-4.4482,-4.4482,-4.4482,-4.4482,-4.4482,-4.4482,-4.4482,-4.4482,-4.4482,-4.4482,-4.4857,-4.5495,-4.5744,-4.6056,-4.636,-4.6963,-4.6955,-4.7115,-4.785,-4.8263,-4.8266,-4.7839,-4.6943,-4.5898,-4.4976,-4.4501,-4.4329,-4.3984,-4.3638,-4.295,-4.2244,-4.1622,-4.1143,-4.098,-4.0865,-4.0336,-3.99,-3.95,-3.923,-3.9147,-3.9151,-3.9272,-3.9458,-3.9648,-5.1394,-5.1394,-5.1394,-5.1394,-5.1388,-5.134,-5.1308,-5.1292,-5.1244,-5.1208,-5.1202,-5.1202,-5.1202,-5.1202,-5.1202,-5.1202,-5.1202,-5.1202,-5.1202,-5.1202,-5.1202,-5.1202,-5.1202,-5.1202,-5.1202,-5.1202,-5.1202,-5.1202,-5.1202,-5.1202,-5.1202,-5.1202,-5.1202,-5.1202,-5.1202,-5.1202,-5.1202,-5.1202,-5.1241,-5.126,-5.1255,-5.1211,-5.1173,-5.1081,-5.1027,-5.0998,-5.0921,-5.0914,-5.0906,-5.0906,-5.0898,-5.084,-5.0627,-5.0016,-4.9165,-4.8179,-4.6922,-4.5807,-4.5826,-4.5807,-4.5807,-4.5807,-4.5807,-4.5807,-4.5745,-4.5591,-4.5314,-4.4861,-4.4777,-4.4655,-4.4537,-4.4496,-4.4482,-4.4482,-4.4482,-4.4482,-4.4482,-4.4482,-4.4482,-4.4482,-4.4482,-4.4909,-4.5439,-4.5604,-4.5777,-4.6077,-4.6307,-4.6338,-4.6776,-4.7701,-4.8078,-4.8137,-4.7673,-4.6794,-4.5933,-4.5028,-4.463,-4.4387,-4.3891,-4.339,-4.265,-4.1962,-4.1421,-4.1003,-4.0777,-4.0571,-4.0276,-3.9892,-3.9413,-3.9264,-3.9292,-3.9357,-3.9439,-3.9632,-3.9848,-5.1394,-5.1394,-5.1394,-5.1394,-5.1388,-5.1333,-5.13,-5.128,-5.1233,-5.1202,-5.1202,-5.1202,-5.1202,-5.1202,-5.1202,-5.1202,-5.1202,-5.1202,-5.1202,-5.1202,-5.1202,-5.1202,-5.1202,-5.1202,-5.1202,-5.1202,-5.1202,-5.1202,-5.1202,-5.1202,-5.1202,-5.1202,-5.1202,-5.1202,-5.1202,-5.1202,-5.1202,-5.1338,-5.1591,-5.1882,-5.1857,-5.1812,-5.1574,-5.1115,-5.1075,-5.1029,-5.0993,-5.0963,-5.0963,-5.0956,-5.0921,-5.0898,-5.0724,-5.019,-4.9475,-4.9107,-4.7502,-4.6406,-4.5904,-4.5845,-4.5807,-4.5807,-4.5807,-4.5807,-4.5752,-4.5618,-4.5399,-4.5055,-4.4891,-4.4726,-4.456,-4.4496,-4.4482,-4.4482,-4.4482,-4.4482,-4.4482,-4.4482,-4.4482,-4.4482,-4.4519,-4.4871,-4.5115,-4.5115,-4.519,-4.5326,-4.5796,-4.6194,-4.6986,-4.8205,-4.834,-4.8175,-4.7503,-4.666,-4.585,-4.5021,-4.4665,-4.4346,-4.3765,-4.3192,-4.246,-4.1798,-4.121,-4.0647,-4.0268,-4.0131,-4.0139,-3.997,-3.9619,-3.9532,-3.9482,-3.9597,-3.9713,-3.9897,-4.011,-5.1394,-5.1394,-5.1394,-5.1394,-5.139,-5.1333,-5.13,-5.1288,-5.1233,-5.1202,-5.1202,-5.1202,-5.1202,-5.1202,-5.1202,-5.1202,-5.1202,-5.1202,-5.1202,-5.1202,-5.1202,-5.1202,-5.1202,-5.1202,-5.1202,-5.1202,-5.1202,-5.1202,-5.1202,-5.1202,-5.1202,-5.1202,-5.1202,-5.1202,-5.1202,-5.1241,-5.128,-5.1668,-5.2057,-5.229,-5.2329,-5.2348,-5.1845,-5.1379,-5.1095,-5.1082,-5.1081,-5.1053,-5.1039,-5.1012,-5.0978,-5.0956,-5.0832,-5.0465,-4.9946,-4.9502,-4.8348,-4.7376,-4.6556,-4.6046,-4.5865,-4.5807,-4.5807,-4.58,-4.5773,-4.5642,-4.5509,-4.5284,-4.5074,-4.485,-4.4635,-4.4546,-4.4482,-4.4482,-4.4482,-4.4482,-4.4482,-4.4482,-4.4482,-4.4482,-4.4482,-4.4482,-4.4651,-4.4576,-4.4576,-4.4646,-4.5134,-4.5904,-4.7105,-4.8457,-4.8217,-4.7939,-4.7395,-4.6461,-4.5425,-4.482,-4.4538,-4.4158,-4.3589,-4.3176,-4.2538,-4.1661,-4.0891,-4.0345,-3.9955,-3.9887,-4.0011,-3.9928,-3.9851,-3.9761,-3.9705,-3.9861,-4.0003,-4.0167,-4.0286,-5.1394,-5.1394,-5.1394,-5.1394,-5.1392,-5.1333,-5.13,-5.1292,-5.1233,-5.1208,-5.1202,-5.1202,-5.1202,-5.1202,-5.1202,-5.1202,-5.1202,-5.1202,-5.1202,-5.1202,-5.1202,-5.1202,-5.1202,-5.1202,-5.1202,-5.1202,-5.1202,-5.1202,-5.1202,-5.1202,-5.1202,-5.1202,-5.1202,-5.1202,-5.126,-5.1358,-5.1785,-5.2212,-5.2659,-5.2698,-5.2659,-5.2504,-5.2084,-5.1379,-5.1114,-5.1082,-5.1081,-5.1101,-5.1094,-5.1094,-5.106,-5.1046,-5.0947,-5.0811,-5.0448,-4.9911,-4.9461,-4.8468,-4.7551,-4.6505,-4.5904,-4.5826,-4.5807,-4.5807,-4.5814,-4.58,-4.5685,-4.5463,-4.5264,-4.5041,-4.4814,-4.4629,-4.456,-4.4482,-4.4482,-4.4482,-4.4482,-4.4482,-4.4482,-4.4482,-4.4482,-4.4482,-4.4482,-4.4482,-4.4482,-4.4538,-4.5378,-4.6167,-4.7237,-4.8307,-4.7856,-4.7485,-4.7147,-4.6246,-4.4876,-4.4271,-4.3825,-4.3509,-4.3098,-4.2991,-4.2822,-4.1863,-4.0575,-4.0476,-4.0179,-4.0017,-3.9937,-4.0081,-4.0129,-3.9956,-3.9947,-4.0129,-4.023,-4.0347,-4.0397,-5.1394,-5.1394,-5.1394,-5.1394,-5.1392,-5.1375,-5.1342,-5.1292,-5.123,-5.1211,-5.1202,-5.1202,-5.1202,-5.1202,-5.1202,-5.1202,-5.1202,-5.1202,-5.1202,-5.1202,-5.1202,-5.1202,-5.1202,-5.1202,-5.1202,-5.1202,-5.1202,-5.1202,-5.1202,-5.1202,-5.1202,-5.1202,-5.1202,-5.1202,-5.128,-5.168,-5.2354,-5.3106,-5.365,-5.396,-5.3883,-5.3358,-5.2795,-5.1967,-5.1301,-5.1198,-5.1166,-5.1121,-5.1095,-5.1089,-5.1095,-5.1074,-5.106,-5.106,-5.0852,-5.0451,-5.0104,-4.9433,-4.8631,-4.7449,-4.6499,-4.5912,-4.584,-4.5814,-4.5854,-4.5821,-4.5708,-4.5533,-4.5427,-4.5214,-4.4868,-4.472,-4.4649,-4.4546,-4.4496,-4.4524,-4.4524,-4.4537,-4.451,-4.4524,-4.451,-4.4482,-4.4482,-4.4482,-4.4482,-4.4576,-4.551,-4.6411,-4.7331,-4.8025,-4.7631,-4.6955,-4.6542,-4.5665,-4.4293,-4.3641,-4.3088,-4.2886,-4.268,-4.2662,-4.2591,-4.1388,-4.0363,-4.0364,-4.0432,-4.0301,-4.0278,-4.0414,-4.0411,-4.0262,-4.0307,-4.0434,-4.0512,-4.0512,-4.0512,-5.1394,-5.1394,-5.1394,-5.1394,-5.1392,-5.1386,-5.1356,-5.1296,-5.123,-5.1219,-5.1202,-5.1202,-5.1202,-5.1202,-5.1202,-5.1202,-5.1202,-5.1202,-5.1202,-5.1202,-5.1202,-5.1202,-5.1202,-5.1202,-5.1202,-5.1202,-5.1202,-5.1202,-5.1202,-5.1202,-5.1202,-5.1202,-5.1202,-5.1214,-5.1399,-5.203,-5.2836,-5.3681,-5.4485,-5.4971,-5.4835,-5.4096,-5.3228,-5.2348,-5.1585,-5.1235,-5.119,-5.1159,-5.1146,-5.114,-5.1128,-5.1108,-5.1101,-5.1095,-5.1088,-5.0875,-5.0584,-5.0106,-4.944,-4.8238,-4.6862,-4.6048,-4.5861,-4.5854,-4.5867,-4.5854,-4.5771,-4.5615,-4.5533,-4.5352,-4.5,-4.4977,-4.4915,-4.4814,-4.4655,-4.4629,-4.4635,-4.4635,-4.4587,-4.4565,-4.4537,-4.4537,-4.4687,-4.4694,-4.4621,-4.4751,-4.5341,-4.6092,-4.6749,-4.7312,-4.7481,-4.6674,-4.5829,-4.4795,-4.3664,-4.3095,-4.2661,-4.2912,-4.2686,-4.2424,-4.2017,-4.0979,-4.0558,-4.0759,-4.0778,-4.0567,-4.0539,-4.0576,-4.0598,-4.0579,-4.0619,-4.0626,-4.0593,-4.0579,-4.0557,-5.1396,-5.1394,-5.1394,-5.1394,-5.1392,-5.1386,-5.1359,-5.1304,-5.1239,-5.121,-5.122,-5.1214,-5.1208,-5.1208,-5.1208,-5.1202,-5.1202,-5.1202,-5.1202,-5.1202,-5.1202,-5.1202,-5.1202,-5.1202,-5.1202,-5.1202,-5.1202,-5.1202,-5.1202,-5.1202,-5.1202,-5.1222,-5.1234,-5.1303,-5.1312,-5.2095,-5.2908,-5.3732,-5.4647,-5.5047,-5.499,-5.433,-5.3494,-5.264,-5.1824,-5.1455,-5.1216,-5.1196,-5.119,-5.1184,-5.1184,-5.1153,-5.1121,-5.1114,-5.1121,-5.1056,-5.1043,-5.061,-4.9789,-4.8147,-4.7055,-4.6235,-4.6087,-4.5886,-4.5887,-4.5893,-4.5873,-4.5723,-4.5634,-4.5552,-4.5399,-4.5314,-4.5213,-4.5055,-4.4884,-4.4825,-4.4831,-4.4819,-4.4814,-4.4801,-4.4661,-4.46,-4.4814,-4.4927,-4.4826,-4.4965,-4.535,-4.5876,-4.6511,-4.6925,-4.7282,-4.6447,-4.5455,-4.4342,-4.335,-4.2605,-4.2299,-4.2603,-4.2506,-4.2,-4.1963,-4.1598,-4.1329,-4.1274,-4.0978,-4.0653,-4.0639,-4.0679,-4.0673,-4.0694,-4.0726,-4.0733,-4.0694,-4.0647,-4.0593,-5.1391,-5.1394,-5.1394,-5.1394,-5.1392,-5.1386,-5.1386,-5.1356,-5.1296,-5.1267,-5.1269,-5.122,-5.1219,-5.1214,-5.12,-5.1202,-5.1202,-5.1202,-5.1202,-5.1202,-5.1202,-5.1202,-5.1202,-5.1202,-5.1202,-5.1202,-5.1202,-5.1202,-5.1202,-5.1214,-5.1205,-5.121,-5.1392,-5.1606,-5.2145,-5.2925,-5.3818,-5.4583,-5.5347,-5.5841,-5.5721,-5.4938,-5.4038,-5.3145,-5.229,-5.1668,-5.1241,-5.1222,-5.1202,-5.1202,-5.1202,-5.1196,-5.1165,-5.1165,-5.1159,-5.1166,-5.1165,-5.0777,-4.9903,-4.8726,-4.7802,-4.7008,-4.6253,-4.595,-4.5893,-4.5906,-4.586,-4.584,-4.5778,-4.5685,-4.558,-4.5513,-4.5416,-4.5265,-4.5135,-4.5154,-4.5144,-4.5123,-4.5112,-4.5112,-4.5025,-4.4985,-4.5096,-4.5204,-4.5161,-4.5252,-4.5605,-4.622,-4.6859,-4.7124,-4.7369,-4.6278,-4.5224,-4.4075,-4.305,-4.2146,-4.1482,-4.1485,-4.1395,-4.1044,-4.1163,-4.1649,-4.1428,-4.102,-4.0856,-4.0713,-4.072,-4.0745,-4.0771,-4.079,-4.0784,-4.0752,-4.0726,-4.0661,-4.0588,-5.1397,-5.1394,-5.1394,-5.1394,-5.1394,-5.1394,-5.1401,-5.1391,-5.1339,-5.1292,-5.1252,-5.122,-5.1211,-5.1215,-5.1214,-5.1211,-5.1211,-5.1211,-5.1208,-5.1208,-5.1202,-5.1202,-5.1202,-5.1222,-5.1202,-5.1222,-5.1227,-5.1214,-5.121,-5.1205,-5.1224,-5.1333,-5.1629,-5.2269,-5.2896,-5.3632,-5.4194,-5.4937,-5.5684,-5.6003,-5.5616,-5.4916,-5.4044,-5.3164,-5.2368,-5.1707,-5.1358,-5.1202,-5.1202,-5.1202,-5.1202,-5.1202,-5.1202,-5.1202,-5.1202,-5.1202,-5.1144,-5.0891,-5.0328,-4.9571,-4.8679,-4.7833,-4.669,-4.6019,-4.5929,-4.5931,-4.5906,-4.5887,-4.5867,-4.5827,-4.5737,-4.5679,-4.5634,-4.5486,-4.5433,-4.5433,-4.5453,-4.5416,-4.5323,-4.5342,-4.5323,-4.5295,-4.5343,-4.5436,-4.55,-4.5655,-4.5868,-4.6455,-4.6917,-4.6955,-4.6955,-4.6037,-4.4898,-4.3703,-4.2575,-4.1569,-4.0943,-4.0485,-4.0538,-4.0723,-4.0875,-4.1398,-4.11,-4.0855,-4.0797,-4.0765,-4.0778,-4.0797,-4.0797,-4.079,-4.0784,-4.0752,-4.0739,-4.0694,-4.0635,-5.1398,-5.1396,-5.1394,-5.1394,-5.1394,-5.1394,-5.1401,-5.1394,-5.1342,-5.1288,-5.1205,-5.1234,-5.1234,-5.122,-5.1211,-5.1201,-5.122,-5.1201,-5.1214,-5.1211,-5.1211,-5.1245,-5.1322,-5.1289,-5.1378,-5.1342,-5.1383,-5.1546,-5.1316,-5.1476,-5.1486,-5.1478,-5.205,-5.2809,-5.347,-5.388,-5.4367,-5.5089,-5.561,-5.5606,-5.5041,-5.4456,-5.3661,-5.2872,-5.2175,-5.1692,-5.1369,-5.1202,-5.1202,-5.1202,-5.1202,-5.1202,-5.1202,-5.1202,-5.1202,-5.1202,-5.1202,-5.1125,-5.093,-5.0173,-4.9357,-4.8341,-4.7021,-4.633,-4.5978,-4.596,-4.5937,-4.5925,-4.5905,-4.5905,-4.5873,-4.588,-4.5873,-4.5769,-4.5687,-4.5699,-4.5718,-4.5646,-4.553,-4.5488,-4.5451,-4.546,-4.5579,-4.5688,-4.5715,-4.5788,-4.5854,-4.588,-4.6201,-4.6023,-4.5965,-4.5706,-4.4526,-4.3308,-4.2268,-4.1477,-4.0885,-4.0591,-4.0981,-4.119,-4.1261,-4.1145,-4.1023,-4.0913,-4.0835,-4.0797,-4.0797,-4.0797,-4.0797,-4.079,-4.0784,-4.0784,-4.0778,-4.0746,-4.0707,-5.1385,-5.1396,-5.1394,-5.1394,-5.1394,-5.1394,-5.139,-5.1384,-5.1377,-5.1366,-5.1361,-5.1356,-5.1319,-5.1339,-5.1243,-5.122,-5.1215,-5.1211,-5.1201,-5.1215,-5.1249,-5.1662,-5.1769,-5.1628,-5.173,-5.1981,-5.2127,-5.2064,-5.2157,-5.2148,-5.1775,-5.1523,-5.2452,-5.3251,-5.372,-5.3991,-5.4511,-5.4872,-5.5331,-5.4966,-5.4691,-5.4385,-5.3549,-5.2786,-5.2689,-5.2198,-5.1433,-5.1241,-5.1202,-5.1202,-5.1202,-5.1202,-5.1202,-5.1202,-5.1202,-5.1202,-5.1202,-5.1183,-5.1066,-5.0386,-4.9537,-4.8696,-4.7531,-4.6679,-4.6241,-4.5978,-4.5966,-4.5955,-4.5955,-4.5941,-4.5947,-4.5953,-4.5958,-4.591,-4.5854,-4.5854,-4.5873,-4.5829,-4.5735,-4.5701,-4.5667,-4.5679,-4.5802,-4.5822,-4.5828,-4.5873,-4.5867,-4.5789,-4.5725,-4.563,-4.5552,-4.5371,-4.4588,-4.3489,-4.2666,-4.1892,-4.1248,-4.0823,-4.1126,-4.128,-4.1081,-4.0965,-4.0965,-4.0932,-4.0835,-4.0797,-4.0797,-4.0797,-4.0797,-4.0797,-4.079,-4.079,-4.079,-4.0778,-4.0752,-5.1386,-5.1398,-5.1394,-5.1394,-5.1394,-5.1394,-5.1394,-5.1394,-5.1394,-5.139,-5.1399,-5.14,-5.1394,-5.1388,-5.1331,-5.1292,-5.1292,-5.1292,-5.1284,-5.1267,-5.1273,-5.1838,-5.2025,-5.1911,-5.2136,-5.2548,-5.2789,-5.2637,-5.2926,-5.3005,-5.2708,-5.209,-5.2984,-5.3609,-5.414,-5.466,-5.4814,-5.4745,-5.4589,-5.4314,-5.4287,-5.433,-5.3588,-5.2967,-5.3187,-5.2431,-5.1439,-5.1227,-5.1202,-5.1202,-5.1202,-5.1202,-5.1202,-5.1202,-5.1202,-5.1202,-5.1202,-5.1202,-5.1125,-5.0814,-4.9804,-4.8871,-4.8075,-4.7215,-4.6452,-4.5994,-4.5969,-4.5964,-4.5969,-4.5994,-4.598,-4.5986,-4.5991,-4.5977,-4.5977,-4.5977,-4.5977,-4.5977,-4.5966,-4.5961,-4.5944,-4.5922,-4.5941,-4.5935,-4.5935,-4.5953,-4.5958,-4.5941,-4.588,-4.5815,-4.5789,-4.5698,-4.4828,-4.386,-4.3051,-4.2239,-4.1499,-4.0958,-4.0874,-4.0951,-4.0797,-4.0816,-4.0874,-4.0874,-4.0816,-4.0797,-4.0797,-4.0797,-4.0797,-4.0797,-4.0797,-4.0797,-4.0797,-4.079,-4.0784,-5.1387,-5.1398,-5.1394,-5.1394,-5.1394,-5.1394,-5.1394,-5.1394,-5.1394,-5.1403,-5.1383,-5.14,-5.1403,-5.14,-5.1366,-5.1362,-5.1359,-5.1359,-5.1346,-5.1304,-5.1303,-5.1798,-5.2181,-5.1968,-5.2518,-5.3059,-5.343,-5.3514,-5.387,-5.3918,-5.3627,-5.2952,-5.4223,-5.4752,-5.4484,-5.5333,-5.5349,-5.4652,-5.4273,-5.3945,-5.3887,-5.3781,-5.3552,-5.2737,-5.2561,-5.2275,-5.1502,-5.122,-5.1208,-5.1208,-5.1202,-5.1202,-5.1202,-5.1202,-5.1202,-5.1202,-5.1202,-5.1202,-5.1202,-5.1047,-5.0076,-4.9221,-4.8522,-4.7512,-4.6632,-4.6049,-4.5986,-4.598,-4.5986,-4.5986,-4.5991,-4.5997,-4.5997,-4.5982,-4.5982,-4.5982,-4.5982,-4.5982,-4.6002,-4.5997,-4.5991,-4.5975,-4.5975,-4.5969,-4.5964,-4.5986,-4.5991,-4.5991,-4.598,-4.5953,-4.5941,-4.5891,-4.5076,-4.4164,-4.3321,-4.2509,-4.171,-4.1228,-4.0919,-4.0797,-4.0797,-4.0797,-4.0797,-4.0797,-4.0797,-4.0797,-4.0797,-4.0797,-4.0797,-4.0797,-4.0797,-4.0797,-4.0797,-4.0797,-4.0797,-5.136,-5.14,-5.1384,-5.1394,-5.1394,-5.1394,-5.1394,-5.1394,-5.1394,-5.139,-5.1386,-5.1386,-5.1384,-5.1401,-5.1386,-5.14,-5.1397,-5.14,-5.1391,-5.1372,-5.1361,-5.184,-5.2518,-5.2404,-5.298,-5.3769,-5.4252,-5.4572,-5.4811,-5.48,-5.4512,-5.3821,-5.4817,-5.5109,-5.4845,-5.5694,-5.5433,-5.4791,-5.4488,-5.3912,-5.3505,-5.415,-5.4334,-5.3415,-5.2918,-5.2533,-5.183,-5.1224,-5.1215,-5.1206,-5.1208,-5.1202,-5.1202,-5.1202,-5.1202,-5.1202,-5.1202,-5.1202,-5.1163,-5.1027,-5.0153,-4.9182,-4.8347,-4.7414,-4.6676,-4.6235,-4.5982,-4.5982,-4.5982,-4.5982,-4.5982,-4.5982,-4.5982,-4.5982,-4.5982,-4.5982,-4.5982,-4.5982,-4.5982,-4.5997,-4.5991,-4.5997,-4.5997,-4.5997,-4.5997,-4.5997,-4.5997,-4.5997,-4.5982,-4.5972,-4.5986,-4.5845,-4.5281,-4.4436,-4.3569,-4.2803,-4.2011,-4.1284,-4.086,-4.0809,-4.0797,-4.0809,-4.0796,-4.0803,-4.0797,-4.0803,-4.0803,-4.0797,-4.0797,-4.0797,-4.0797,-4.0797,-4.0797,-4.0797,-4.0797,-5.1348,-5.1386,-5.14,-5.1385,-5.1396,-5.1394,-5.1394,-5.1394,-5.1394,-5.1394,-5.1394,-5.1394,-5.1394,-5.1394,-5.1399,-5.1433,-5.1433,-5.1394,-5.1394,-5.1401,-5.1527,-5.1968,-5.2353,-5.2773,-5.3592,-5.4383,-5.5284,-5.5759,-5.5708,-5.5704,-5.5396,-5.4742,-5.5275,-5.5601,-5.5412,-5.5527,-5.5599,-5.5231,-5.5016,-5.4589,-5.3793,-5.4326,-5.4693,-5.3885,-5.3319,-5.2819,-5.2201,-5.1525,-5.1213,-5.121,-5.1217,-5.1202,-5.1202,-5.1202,-5.1202,-5.1202,-5.1202,-5.1202,-5.1125,-5.0717,-5.0076,-4.9066,-4.8114,-4.7143,-4.641,-4.5982,-4.5982,-4.5982,-4.5982,-4.5982,-4.5982,-4.5982,-4.5982,-4.5982,-4.5982,-4.5982,-4.5982,-4.5982,-4.5982,-4.6002,-4.5997,-4.5997,-4.6002,-4.6002,-4.6002,-4.6017,-4.5998,-4.5998,-4.5998,-4.6003,-4.6022,-4.593,-4.5444,-4.4579,-4.3585,-4.2928,-4.233,-4.161,-4.0825,-4.0806,-4.0806,-4.0806,-4.08,-4.0814,-4.0808,-4.0808,-4.0808,-4.0796,-4.0809,-4.0796,-4.0803,-4.0797,-4.0797,-4.0797,-4.0797,-5.1336,-5.1399,-5.1387,-5.1397,-5.1396,-5.1394,-5.1394,-5.1394,-5.1394,-5.1394,-5.1394,-5.1394,-5.1394,-5.1394,-5.1394,-5.1472,-5.149,-5.1466,-5.1429,-5.1773,-5.1519,-5.2199,-5.2656,-5.2984,-5.4041,-5.5045,-5.5996,-5.6266,-5.6331,-5.6273,-5.6043,-5.5631,-5.5794,-5.6133,-5.5812,-5.5919,-5.6124,-5.584,-5.5725,-5.5887,-5.5367,-5.475,-5.4847,-5.4507,-5.3867,-5.2928,-5.244,-5.1979,-5.1453,-5.1204,-5.1205,-5.122,-5.1202,-5.1202,-5.1202,-5.1202,-5.1202,-5.1202,-5.1066,-5.0464,-4.9629,-4.8696,-4.7803,-4.6987,-4.6254,-4.5982,-4.5982,-4.5982,-4.5982,-4.5982,-4.5982,-4.5982,-4.5982,-4.5982,-4.5982,-4.5982,-4.5982,-4.5982,-4.5982,-4.5982,-4.5982,-4.5982,-4.5982,-4.5982,-4.5993,-4.6008,-4.6018,-4.6018,-4.6022,-4.6022,-4.6042,-4.6036,-4.5832,-4.4846,-4.367,-4.3111,-4.2615,-4.154,-4.0821,-4.0807,-4.0807,-4.0809,-4.0809,-4.0796,-4.0809,-4.0804,-4.0792,-4.0806,-4.08,-4.0814,-4.0802,-4.0809,-4.0797,-4.0797,-4.0797,-5.1333,-5.1399,-5.1387,-5.1398,-5.1398,-5.1414,-5.1394,-5.1394,-5.1433,-5.1394,-5.1472,-5.1414,-5.1394,-5.1394,-5.1394,-5.1629,-5.2138,-5.1845,-5.2565,-5.3256,-5.2222,-5.2637,-5.3178,-5.3469,-5.47,-5.5544,-5.6145,-5.6355,-5.5996,-5.6195,-5.639,-5.6028,-5.6098,-5.6301,-5.6324,-5.6374,-5.6287,-5.6156,-5.6215,-5.6316,-5.6364,-5.5909,-5.5708,-5.5386,-5.4979,-5.3862,-5.3027,-5.2497,-5.19,-5.1456,-5.1201,-5.1211,-5.1214,-5.1208,-5.1202,-5.1202,-5.1202,-5.1202,-5.095,-5.0192,-4.9343,-4.8638,-4.7745,-4.6832,-4.6274,-4.5982,-4.5982,-4.5982,-4.5982,-4.5982,-4.5982,-4.5982,-4.5982,-4.5982,-4.5982,-4.5982,-4.5982,-4.5982,-4.5982,-4.5982,-4.5982,-4.5982,-4.5982,-4.5982,-4.6002,-4.6003,-4.6032,-4.6032,-4.6032,-4.6036,-4.6054,-4.6076,-4.6076,-4.501,-4.3816,-4.3433,-4.2859,-4.1683,-4.0839,-4.084,-4.0835,-4.0812,-4.0807,-4.0823,-4.0818,-4.0807,-4.0796,-4.0821,-4.0823,-4.0812,-4.08,-4.0808,-4.0809,-4.0797,-4.0797]},{"header":{"parameterUnit":"m.s-1","parameterCategory":1,"la1":31.0,"la2":29.5877,"lo1":-88.7671,"lo2":-86.6584,"dy":0.0162,"dx":0.0185,"nx":115,"ny":88,"refTime":"2023-11-03T06:00:00:Z","depth":0,"parameterNumber":3,"parameterNumberName":"V-component_of_WINDS"},"data":[0.0,0.0,0.0,0.0,0.0,0.0,0.0,0.0,0.0,0.0,0.0,0.0,0.0,0.0,0.0,0.0,0.0,0.0,0.0,0.0,0.0,0.0,0.0,0.0,0.0,0.0,0.0,0.0,0.0,0.0,0.0,0.0,0.0,0.0,0.0,0.0,0.0,0.0,0.0,0.0,0.0,0.0,0.0,0.0,0.0,0.0,0.0,0.0,0.0,0.0,0.0,0.0,0.0,0.0,0.0,0.0,0.0,0.0,0.0,0.0,0.0,0.0,0.0,0.0,0.0,0.0,0.0,0.0,0.0,0.0,0.0,0.0,0.0,0.0,0.0,0.0,0.0,0.0,0.0,0.0,0.0,0.0,0.0,0.0,0.0,0.0,0.0,0.0,0.0,0.0,0.0,0.0,0.0,0.0,0.0,0.0,0.0,0.0,0.0,0.0,0.0,0.0,0.0,0.0,0.0,0.0,0.0,0.0,0.0,0.0,0.0,0.0,0.0,0.0,0.0,0.0,0.0,0.0,0.0,0.0,0.0,0.0,0.0,0.0,0.0,0.0,0.0,0.0,0.0,0.0,0.0,0.0,0.0,0.0,0.0,0.0,0.0,0.0,0.0,0.0,0.0,0.0,0.0,0.0,0.0,0.0,0.0,0.0,0.0,0.0,0.0,0.0,0.0,0.0,0.0,0.0,0.0,0.0,0.0,0.0,0.0,0.0,0.0,0.0,0.0,0.0,0.0,0.0,0.0,0.0,0.0,0.0,0.0,0.0,0.0,0.0,0.0,0.0,0.0,0.0,0.0,0.0,0.0,0.0,0.0,0.0,0.0,0.0,0.0,0.0,0.0,0.0,0.0,0.0,0.0,0.0,0.0,0.0,0.0,0.0,0.0,0.0,0.0,0.0,0.0,0.0,0.0,0.0,0.0,0.0,0.0,0.0,0.0,0.0,0.0,0.0,0.0,0.0,0.0,0.0,0.0,0.0,0.0,0.0,0.0,0.0,0.0,0.0,0.0,0.0,0.0,0.0,0.0,0.0,0.0,0.0,0.0,0.0,0.0,0.0,0.0,0.0,0.0,0.0,0.0,0.0,0.0,0.0,0.0,0.0,0.0,0.0,0.0,0.0,0.0,0.0,0.0,0.0,0.0,0.0,0.0,0.0,0.0,0.0,0.0,0.0,0.0,0.0,0.0,0.0,0.0,0.0,0.0,0.0,0.0,0.0,0.0,0.0,0.0,0.0,0.0,0.0,0.0,0.0,0.0,0.0,0.0,0.0,0.0,0.0,0.0,0.0,0.0,0.0,0.0,0.0,0.0,0.0,0.0,0.0,0.0,0.0,0.0,0.0,0.0,0.0,0.0,0.0,0.0,0.0,0.0,0.0,0.0,0.0,0.0,0.0,0.0,0.0,0.0,0.0,0.0,0.0,0.0,0.0,0.0,0.0,0.0,0.0,0.0,0.0,0.0,0.0,0.0,0.0,0.0,0.0,0.0,0.0,0.0,0.0,0.0,0.0,0.0,0.0,0.0,0.0,0.0,0.0,0.0,0.0,0.0,0.0,0.0,0.0,0.0,0.0,0.0,0.0,0.0,0.0,0.0,0.0,0.0,0.0,0.0,0.0,0.0,0.0,0.0,0.0,0.0,0.0,0.0,0.0,0.0,0.0,0.0,0.0,0.0,0.0,0.0,0.0,0.0,0.0,0.0,0.0,0.0,0.0,0.0,0.0,0.0,0.0,0.0,0.0,0.0,0.0,0.0,0.0,0.0,0.0,0.0,0.0,0.0,0.0,0.0,0.0,0.0,0.0,0.0,0.0,0.0,0.0,0.0,0.0,0.0,0.0,0.0,0.0,0.0,0.0,0.0,0.0,0.0,0.0,0.0,0.0,0.0,0.0,0.0,0.0,0.0,0.0,0.0,0.0,0.0,0.0,0.0,0.0,0.0,0.0,0.0,0.0,0.0,0.0,0.0,0.0,0.0,0.0,0.0,0.0,0.0,0.0,0.0,0.0,0.0,0.0,0.0,0.0,0.0,0.0,0.0,0.0,0.0,0.0,0.0,0.0,0.0,0.0,0.0,0.0,0.0,0.0,0.0,0.0,0.0,0.0,0.0,0.0,0.0,0.0,0.0,0.0,0.0,0.0,0.0,0.0,0.0,0.0,0.0,0.0,0.0,0.0,0.0,0.0,0.0,0.0,0.0,0.0,0.0,0.0,0.0,0.0,0.0,0.0,0.0,0.0,0.0,0.0,0.0,0.0,0.0,0.0,0.0,0.0,0.0,0.0,0.0,0.0,0.0,0.0,0.0,0.0,0.0,0.0,0.0,0.0,0.0,0.0,0.0,0.0,0.0,0.0,0.0,0.0,0.0,0.0,0.0,0.0,0.0,0.0,0.0,0.0,0.0,0.0,0.0,0.0,0.0,0.0,0.0,0.0,0.0,0.0,0.0,0.0,0.0,0.0,0.0,0.0,0.0,0.0,0.0,0.0,0.0,0.0,0.0,0.0,0.0,0.0,0.0,0.0,0.0,0.0,0.0,0.0,0.0,0.0,0.0,0.0,0.0,0.0,0.0,0.0,0.0,0.0,0.0,0.0,0.0,0.0,0.0,0.0,0.0,0.0,0.0,0.0,0.0,0.0,0.0,0.0,0.0,0.0,0.0,0.0,0.0,0.0,0.0,0.0,0.0,0.0,0.0,0.0,0.0,0.0,0.0,0.0,0.0,0.0,0.0,0.0,0.0,0.0,0.0,0.0,0.0,0.0,0.0,0.0,0.0,0.0,0.0,0.0,0.0,0.0,0.0,0.0,0.0,0.0,0.0,0.0,0.0,0.0,0.0,0.0,0.0,0.0,0.0,0.0,0.0,0.0,0.0,0.0,0.0,0.0,0.0,0.0,0.0,0.0,0.0,0.0,0.0,0.0,0.0,0.0,0.0,0.0,0.0,0.0,0.0,0.0,0.0,0.0,0.0,0.0,0.0,0.0,0.0,0.0,0.0,0.0,0.0,0.0,0.0,0.0,0.0,0.0,0.0,0.0,0.0,0.0,0.0,0.0,0.0,0.0,0.0,0.0,0.0,0.0,0.0,0.0,0.0,0.0,0.0,0.0,0.0,0.0,0.0,0.0,0.0,0.0,0.0,0.0,0.0,0.0,0.0,0.0,0.0,0.0,0.0,0.0,0.0,0.0,0.0,0.0,0.0,0.0,0.0,0.0,0.0,0.0,0.0,0.0,0.0,0.0,0.0,0.0,0.0,0.0,0.0,0.0,0.0,0.0,0.0,0.0,0.0,0.0,0.0,0.0,0.0,0.0,0.0,0.0,0.0,0.0,0.0,0.0,0.0,0.0,0.0,0.0,0.0,0.0,0.0,0.0,0.0,0.0,0.0,0.0,0.0,0.0,0.0,0.0,0.0,0.0,0.0,0.0,0.0,0.0,0.0,0.0,0.0,0.0,0.0,0.0,0.0,0.0,0.0,0.0,0.0,0.0,0.0,0.0,0.0,0.0,0.0,0.0,0.0,0.0,0.0,0.0,0.0,0.0,0.0,0.0,0.0,0.0,0.0,0.0,0.0,0.0,0.0,0.0,0.0,0.0,0.0,0.0,0.0,0.0,0.0,0.0,0.0,0.0,0.0,0.0,0.0,0.0,0.0,0.0,0.0,0.0,0.0,0.0,0.0,0.0,0.0,0.0,0.0,0.0,0.0,0.0,0.0,0.0,0.0,0.0,0.0,0.0,0.0,0.0,0.0,0.0,0.0,0.0,0.0,0.0,0.0,0.0,0.0,0.0,0.0,0.0,0.0,0.0,0.0,0.0,0.0,0.0,0.0,0.0,0.0,0.0,0.0,0.0,0.0,0.0,0.0,0.0,0.0,0.0,0.0,0.0,0.0,0.0,0.0,0.0,0.0,0.0,0.0,0.0,0.0,0.0,0.0,0.0,0.0,0.0,0.0,0.0,0.0,0.0,0.0,0.0,0.0,0.0,0.0,0.0,0.0,0.0,0.0,0.0,0.0,0.0,0.0,0.0,0.0,0.0,0.0,0.0,0.0,0.0,0.0,0.0,0.0,0.0,0.0,0.0,0.0,0.0,0.0,0.0,0.0,0.0,0.0,0.0,0.0,0.0,0.0,0.0,0.0,0.0,0.0,0.0,0.0,0.0,0.0,0.0,0.0,0.0,0.0,0.0,0.0,0.0,0.0,0.0,0.0,0.0,0.0,0.0,0.0,0.0,0.0,0.0,0.0,0.0,0.0,0.0,0.0,0.0,0.0,0.0,-2.4589,0.0,0.0,0.0,0.0,0.0,0.0,0.0,0.0,0.0,0.0,0.0,0.0,0.0,0.0,0.0,0.0,0.0,0.0,0.0,0.0,0.0,0.0,0.0,0.0,0.0,0.0,0.0,0.0,0.0,0.0,0.0,0.0,0.0,0.0,0.0,0.0,0.0,0.0,0.0,0.0,0.0,0.0,0.0,0.0,0.0,0.0,0.0,0.0,0.0,0.0,0.0,0.0,0.0,0.0,0.0,0.0,0.0,0.0,0.0,0.0,0.0,0.0,0.0,0.0,0.0,0.0,0.0,0.0,0.0,0.0,0.0,0.0,0.0,0.0,0.0,0.0,0.0,0.0,0.0,0.0,0.0,0.0,0.0,0.0,0.0,0.0,0.0,0.0,0.0,0.0,0.0,0.0,0.0,0.0,0.0,0.0,0.0,0.0,0.0,0.0,0.0,0.0,0.0,0.0,0.0,0.0,0.0,0.0,0.0,0.0,-2.4701,-2.4782,-2.465,-2.463,-2.4706,0.0,0.0,0.0,0.0,0.0,0.0,0.0,0.0,0.0,0.0,0.0,0.0,0.0,0.0,0.0,0.0,0.0,0.0,0.0,0.0,0.0,0.0,0.0,0.0,0.0,0.0,0.0,0.0,0.0,0.0,0.0,0.0,0.0,0.0,0.0,0.0,0.0,0.0,0.0,0.0,0.0,0.0,0.0,0.0,0.0,0.0,0.0,0.0,0.0,0.0,0.0,0.0,0.0,0.0,0.0,0.0,0.0,0.0,0.0,0.0,0.0,0.0,0.0,0.0,0.0,0.0,0.0,0.0,0.0,0.0,0.0,0.0,0.0,0.0,0.0,0.0,0.0,0.0,0.0,0.0,0.0,0.0,0.0,0.0,0.0,0.0,0.0,0.0,0.0,0.0,0.0,0.0,0.0,0.0,0.0,0.0,0.0,0.0,0.0,0.0,0.0,0.0,0.0,0.0,0.0,0.0,0.0,0.0,0.0,0.0,0.0,0.0,-2.4686,-2.4567,-2.4507,0.0,0.0,0.0,0.0,0.0,0.0,0.0,0.0,0.0,0.0,0.0,0.0,0.0,0.0,0.0,0.0,0.0,0.0,0.0,0.0,0.0,0.0,0.0,0.0,0.0,0.0,0.0,0.0,0.0,0.0,0.0,0.0,0.0,0.0,0.0,0.0,0.0,0.0,0.0,0.0,0.0,0.0,0.0,0.0,0.0,0.0,0.0,0.0,0.0,0.0,0.0,0.0,0.0,0.0,0.0,0.0,0.0,0.0,0.0,0.0,0.0,0.0,0.0,0.0,0.0,0.0,0.0,0.0,0.0,0.0,0.0,0.0,0.0,0.0,0.0,0.0,0.0,0.0,0.0,0.0,0.0,0.0,0.0,0.0,0.0,0.0,0.0,0.0,0.0,0.0,0.0,0.0,0.0,0.0,0.0,0.0,0.0,0.0,0.0,0.0,0.0,0.0,0.0,0.0,0.0,0.0,0.0,0.0,0.0,0.0,-2.4686,-2.4802,-2.4666,0.0,-2.3623,0.0,0.0,0.0,0.0,0.0,0.0,0.0,0.0,0.0,0.0,0.0,0.0,0.0,0.0,0.0,0.0,0.0,0.0,0.0,0.0,0.0,0.0,0.0,0.0,0.0,0.0,0.0,0.0,0.0,0.0,0.0,0.0,0.0,0.0,0.0,0.0,0.0,0.0,0.0,0.0,0.0,0.0,0.0,0.0,0.0,0.0,0.0,0.0,0.0,0.0,0.0,0.0,0.0,0.0,0.0,0.0,0.0,0.0,0.0,0.0,0.0,0.0,0.0,0.0,0.0,0.0,0.0,0.0,0.0,0.0,0.0,0.0,0.0,0.0,0.0,0.0,0.0,0.0,0.0,0.0,0.0,0.0,0.0,0.0,0.0,0.0,0.0,0.0,0.0,0.0,0.0,0.0,0.0,0.0,0.0,0.0,0.0,0.0,0.0,0.0,0.0,0.0,0.0,0.0,0.0,0.0,0.0,0.0,0.0,0.0,-2.463,-2.467,-2.4584,-2.3966,0.0,0.0,0.0,0.0,0.0,0.0,0.0,0.0,0.0,0.0,0.0,0.0,0.0,0.0,0.0,0.0,0.0,0.0,0.0,0.0,0.0,0.0,0.0,0.0,0.0,0.0,0.0,0.0,0.0,0.0,0.0,0.0,0.0,0.0,0.0,0.0,0.0,0.0,0.0,0.0,0.0,0.0,0.0,0.0,0.0,0.0,0.0,0.0,0.0,0.0,0.0,0.0,0.0,0.0,0.0,0.0,0.0,0.0,0.0,0.0,0.0,0.0,0.0,0.0,0.0,0.0,0.0,0.0,0.0,0.0,0.0,0.0,0.0,0.0,0.0,0.0,0.0,0.0,0.0,0.0,0.0,0.0,0.0,0.0,0.0,0.0,0.0,0.0,0.0,0.0,0.0,0.0,0.0,0.0,0.0,0.0,0.0,0.0,0.0,0.0,0.0,0.0,0.0,0.0,0.0,0.0,0.0,0.0,0.0,0.0,-2.4467,-2.4467,-2.4441,-2.4436,-2.3702,-2.221,0.0,0.0,0.0,0.0,0.0,0.0,0.0,0.0,0.0,0.0,0.0,0.0,0.0,0.0,0.0,0.0,0.0,0.0,0.0,0.0,0.0,0.0,0.0,0.0,0.0,0.0,0.0,0.0,0.0,0.0,0.0,0.0,0.0,0.0,0.0,0.0,0.0,0.0,0.0,0.0,0.0,0.0,0.0,0.0,0.0,0.0,0.0,0.0,0.0,0.0,0.0,0.0,0.0,0.0,0.0,0.0,0.0,0.0,0.0,0.0,0.0,0.0,0.0,0.0,0.0,0.0,0.0,0.0,0.0,0.0,0.0,0.0,0.0,0.0,0.0,0.0,0.0,0.0,0.0,0.0,0.0,0.0,0.0,0.0,0.0,0.0,0.0,0.0,0.0,0.0,0.0,0.0,0.0,0.0,0.0,0.0,0.0,0.0,0.0,0.0,0.0,0.0,0.0,0.0,0.0,0.0,0.0,0.0,-2.4477,-2.4261,-2.4078,-2.4024,-2.413,-2.3519,0.0,0.0,0.0,0.0,0.0,0.0,0.0,0.0,0.0,0.0,0.0,0.0,0.0,0.0,0.0,0.0,0.0,0.0,0.0,0.0,0.0,0.0,0.0,0.0,0.0,0.0,0.0,0.0,0.0,0.0,0.0,0.0,0.0,0.0,0.0,0.0,0.0,0.0,0.0,0.0,0.0,0.0,0.0,0.0,0.0,0.0,0.0,0.0,0.0,0.0,0.0,0.0,0.0,0.0,0.0,0.0,0.0,0.0,0.0,0.0,0.0,0.0,0.0,0.0,0.0,0.0,0.0,0.0,0.0,0.0,0.0,0.0,0.0,0.0,0.0,0.0,0.0,0.0,0.0,0.0,0.0,0.0,0.0,0.0,0.0,0.0,0.0,0.0,0.0,0.0,0.0,0.0,0.0,0.0,0.0,0.0,0.0,0.0,0.0,0.0,0.0,0.0,0.0,0.0,0.0,0.0,0.0,0.0,0.0,-2.403,-2.3767,-2.3631,-2.356,-2.3631,-2.308,0.0,0.0,0.0,0.0,0.0,0.0,0.0,0.0,0.0,0.0,0.0,0.0,0.0,0.0,0.0,0.0,0.0,0.0,0.0,0.0,0.0,0.0,0.0,0.0,0.0,0.0,0.0,0.0,0.0,0.0,0.0,0.0,0.0,0.0,0.0,0.0,0.0,0.0,0.0,0.0,0.0,0.0,0.0,0.0,0.0,0.0,0.0,0.0,0.0,0.0,0.0,0.0,0.0,0.0,0.0,0.0,0.0,0.0,0.0,0.0,0.0,0.0,0.0,0.0,0.0,0.0,0.0,0.0,0.0,0.0,0.0,0.0,0.0,0.0,0.0,0.0,0.0,0.0,0.0,0.0,0.0,0.0,0.0,0.0,0.0,0.0,0.0,0.0,0.0,0.0,0.0,0.0,0.0,0.0,0.0,0.0,0.0,0.0,0.0,0.0,0.0,0.0,0.0,0.0,0.0,0.0,0.0,0.0,0.0,-2.3253,0.0,-2.2823,-2.2793,-2.2965,-2.2607,0.0,0.0,0.0,0.0,0.0,0.0,0.0,0.0,0.0,0.0,0.0,0.0,0.0,0.0,0.0,0.0,0.0,0.0,0.0,0.0,0.0,0.0,0.0,0.0,0.0,0.0,0.0,0.0,0.0,0.0,0.0,0.0,0.0,0.0,0.0,0.0,0.0,0.0,0.0,0.0,0.0,0.0,0.0,0.0,0.0,0.0,0.0,0.0,0.0,0.0,0.0,0.0,0.0,0.0,0.0,0.0,0.0,0.0,0.0,0.0,0.0,0.0,0.0,0.0,0.0,0.0,0.0,0.0,0.0,0.0,0.0,0.0,0.0,0.0,0.0,0.0,0.0,0.0,0.0,0.0,0.0,0.0,0.0,0.0,0.0,0.0,0.0,0.0,0.0,0.0,0.0,0.0,0.0,0.0,0.0,0.0,0.0,0.0,0.0,0.0,0.0,0.0,0.0,0.0,0.0,0.0,0.0,0.0,-2.2822,-2.2119,-2.1795,-2.1643,-2.1687,-2.2035,-2.2076,0.0,0.0,0.0,0.0,0.0,0.0,0.0,0.0,0.0,0.0,0.0,0.0,0.0,0.0,0.0,0.0,0.0,0.0,0.0,0.0,0.0,0.0,0.0,0.0,0.0,0.0,0.0,0.0,0.0,0.0,0.0,0.0,0.0,0.0,0.0,0.0,0.0,0.0,0.0,0.0,0.0,0.0,0.0,0.0,0.0,0.0,0.0,0.0,0.0,0.0,0.0,0.0,0.0,0.0,0.0,0.0,0.0,0.0,0.0,0.0,0.0,0.0,0.0,0.0,0.0,0.0,0.0,0.0,0.0,0.0,0.0,0.0,0.0,0.0,0.0,0.0,0.0,0.0,0.0,0.0,0.0,0.0,0.0,0.0,0.0,0.0,0.0,0.0,0.0,0.0,0.0,0.0,0.0,0.0,0.0,0.0,0.0,0.0,0.0,0.0,0.0,0.0,0.0,0.0,0.0,0.0,0.0,0.0,0.0,-2.0772,-2.0293,-2.0005,-1.9926,-2.0436,-2.0633,0.0,0.0,0.0,0.0,0.0,0.0,0.0,0.0,0.0,0.0,0.0,0.0,0.0,0.0,0.0,0.0,0.0,0.0,0.0,0.0,0.0,0.0,0.0,0.0,0.0,0.0,0.0,0.0,0.0,0.0,0.0,0.0,0.0,0.0,0.0,0.0,0.0,0.0,0.0,0.0,0.0,0.0,0.0,0.0,0.0,0.0,0.0,0.0,0.0,0.0,0.0,0.0,0.0,0.0,0.0,0.0,0.0,0.0,0.0,0.0,0.0,0.0,0.0,0.0,0.0,0.0,0.0,0.0,0.0,0.0,0.0,0.0,0.0,0.0,0.0,0.0,0.0,0.0,0.0,0.0,0.0,0.0,0.0,0.0,0.0,0.0,0.0,0.0,0.0,0.0,0.0,0.0,0.0,0.0,0.0,0.0,0.0,0.0,0.0,0.0,0.0,0.0,0.0,0.0,0.0,0.0,0.0,0.0,0.0,-1.7429,-1.7214,-1.7013,-1.6936,-1.7601,-1.8433,-1.9422,0.0,0.0,0.0,0.0,0.0,0.0,0.0,0.0,0.0,0.0,0.0,0.0,0.0,0.0,0.0,0.0,0.0,0.0,0.0,0.0,0.0,0.0,0.0,0.0,0.0,0.0,0.0,0.0,0.0,0.0,0.0,0.0,0.0,0.0,0.0,0.0,0.0,0.0,0.0,0.0,0.0,0.0,0.0,0.0,0.0,0.0,0.0,0.0,0.0,0.0,0.0,0.0,0.0,0.0,0.0,0.0,0.0,0.0,0.0,0.0,0.0,0.0,0.0,0.0,0.0,0.0,0.0,0.0,0.0,0.0,0.0,0.0,0.0,0.0,0.0,0.0,0.0,0.0,0.0,0.0,0.0,0.0,0.0,0.0,0.0,0.0,0.0,0.0,0.0,0.0,0.0,0.0,0.0,0.0,0.0,0.0,0.0,0.0,0.0,0.0,0.0,0.0,0.0,0.0,0.0,0.0,0.0,0.0,-1.2594,-1.2712,-1.288,-1.3076,-1.3974,-1.5683,0.0,0.0,0.0,0.0,0.0,0.0,0.0,0.0,0.0,0.0,0.0,0.0,0.0,0.0,0.0,0.0,0.0,0.0,0.0,0.0,0.0,0.0,0.0,0.0,0.0,0.0,0.0,0.0,0.0,0.0,0.0,0.0,0.0,0.0,0.0,0.0,0.0,0.0,0.0,0.0,0.0,0.0,0.0,0.0,0.0,0.0,0.0,0.0,0.0,0.0,0.0,0.0,0.0,0.0,0.0,0.0,0.0,0.0,0.0,0.0,0.0,0.0,0.0,0.0,0.0,0.0,0.0,0.0,0.0,0.0,0.0,0.0,0.0,0.0,0.0,0.0,0.0,0.0,0.0,0.0,0.0,0.0,0.0,0.0,0.0,0.0,0.0,0.0,0.0,0.0,0.0,0.0,0.0,0.0,0.0,0.0,0.0,0.0,0.0,0.0,0.0,0.0,0.0,0.0,0.0,0.0,0.0,0.0,0.0,-0.8862,-0.7291,-0.7597,-0.9846,-1.2011,-1.3884,0.0,0.0,0.0,0.0,0.0,0.0,0.0,0.0,0.0,0.0,0.0,0.0,0.0,0.0,0.0,0.0,0.0,0.0,0.0,0.0,0.0,0.0,0.0,0.0,0.0,0.0,0.0,0.0,0.0,0.0,0.0,0.0,0.0,0.0,0.0,0.0,0.0,0.0,0.0,0.0,0.0,0.0,0.0,0.0,0.0,0.0,0.0,0.0,0.0,0.0,0.0,0.0,0.0,0.0,0.0,0.0,0.0,0.0,0.0,0.0,0.0,0.0,0.0,0.0,0.0,0.0,0.0,0.0,0.0,0.0,0.0,0.0,0.0,0.0,0.0,0.0,0.0,0.0,0.0,0.0,0.0,0.0,0.0,0.0,0.0,0.0,0.0,0.0,0.0,0.0,0.0,0.0,0.0,0.0,0.0,0.0,0.0,0.0,0.0,0.0,0.0,0.0,0.0,0.0,0.0,0.0,0.0,0.0,-0.9807,-0.7027,-0.4553,-0.4017,-0.5563,-0.8709,-1.1382,0.0,0.0,0.0,0.0,0.0,0.0,0.0,0.0,0.0,0.0,0.0,0.0,0.0,0.0,0.0,0.0,0.0,0.0,0.0,0.0,0.0,0.0,0.0,0.0,0.0,0.0,0.0,0.0,0.0,0.0,0.0,0.0,0.0,0.0,0.0,0.0,0.0,0.0,0.0,0.0,0.0,0.0,0.0,0.0,0.0,0.0,0.0,0.0,0.0,0.0,0.0,0.0,0.0,0.0,0.0,0.0,0.0,0.0,0.0,0.0,0.0,0.0,0.0,0.0,0.0,0.0,0.0,0.0,0.0,0.0,0.0,0.0,0.0,0.0,0.0,0.0,0.0,0.0,0.0,0.0,0.0,0.0,0.0,0.0,0.0,0.0,0.0,0.0,0.0,0.0,0.0,0.0,0.0,0.0,0.0,0.0,0.0,0.0,0.0,0.0,0.0,0.0,0.0,0.0,0.0,0.0,0.0,0.0,-0.8548,-0.636,-0.3572,-0.1882,-0.1506,-0.516,-0.8689,0.0,0.0,0.0,0.0,0.0,0.0,0.0,0.0,0.0,0.0,0.0,0.0,0.0,0.0,0.0,0.0,0.0,0.0,0.0,0.0,0.0,0.0,0.0,0.0,0.0,0.0,0.0,0.0,0.0,0.0,0.0,0.0,0.0,0.0,0.0,0.0,0.0,0.0,0.0,0.0,0.0,0.0,0.0,0.0,0.0,0.0,0.0,0.0,0.0,0.0,0.0,0.0,0.0,0.0,0.0,0.0,0.0,0.0,0.0,0.0,0.0,0.0,0.0,0.0,0.0,0.0,0.0,0.0,0.0,0.0,0.0,0.0,0.0,0.0,0.0,0.0,0.0,0.0,0.0,0.0,0.0,0.0,0.0,0.0,0.0,0.0,0.0,0.0,0.0,0.0,0.0,0.0,0.0,0.0,0.0,0.0,0.0,0.0,0.0,0.0,0.0,0.0,0.0,0.0,0.0,0.0,0.0,0.0,-0.779,-0.5436,-0.3292,-0.2069,-0.179,-0.4946,-0.7547,0.0,0.0,0.0,0.0,0.0,0.0,0.0,0.0,0.0,0.0,0.0,0.0,0.0,0.0,0.0,0.0,0.0,0.0,0.0,0.0,0.0,0.0,0.0,0.0,0.0,0.0,0.0,0.0,0.0,0.0,0.0,0.0,0.0,0.0,0.0,0.0,0.0,0.0,0.0,0.0,0.0,0.0,0.0,0.0,0.0,0.0,0.0,0.0,-1.9961,0.0,0.0,0.0,0.0,0.0,0.0,0.0,0.0,0.0,0.0,0.0,0.0,0.0,0.0,0.0,0.0,0.0,0.0,0.0,0.0,0.0,0.0,0.0,0.0,0.0,0.0,0.0,0.0,0.0,0.0,0.0,0.0,0.0,0.0,0.0,0.0,0.0,0.0,0.0,0.0,0.0,0.0,0.0,0.0,0.0,0.0,0.0,0.0,0.0,0.0,0.0,0.0,0.0,0.0,0.0,0.0,0.0,0.0,0.0,-0.7446,-0.4889,-0.3514,-0.2639,-0.2359,-0.4464,-0.6531,0.0,0.0,0.0,0.0,0.0,0.0,0.0,0.0,0.0,0.0,0.0,0.0,0.0,0.0,0.0,0.0,0.0,0.0,0.0,0.0,0.0,0.0,0.0,0.0,0.0,0.0,0.0,0.0,0.0,0.0,0.0,0.0,0.0,0.0,0.0,0.0,0.0,0.0,0.0,0.0,0.0,0.0,0.0,0.0,0.0,0.0,0.0,0.0,0.0,0.0,0.0,0.0,0.0,0.0,0.0,0.0,0.0,0.0,0.0,0.0,0.0,0.0,0.0,0.0,0.0,0.0,0.0,0.0,0.0,0.0,0.0,0.0,0.0,0.0,0.0,0.0,0.0,0.0,0.0,0.0,0.0,0.0,0.0,0.0,0.0,0.0,0.0,0.0,0.0,0.0,0.0,0.0,0.0,0.0,0.0,0.0,0.0,0.0,0.0,0.0,0.0,0.0,0.0,0.0,0.0,0.0,0.0,-0.9658,-0.7228,-0.4584,-0.3831,-0.3272,-0.2877,-0.3907,-0.5658,-0.8163,0.0,0.0,0.0,0.0,0.0,0.0,0.0,0.0,0.0,0.0,0.0,0.0,0.0,0.0,0.0,0.0,0.0,0.0,0.0,0.0,0.0,0.0,0.0,0.0,0.0,0.0,0.0,0.0,0.0,0.0,0.0,0.0,0.0,0.0,0.0,0.0,0.0,0.0,-2.1056,-2.0971,0.0,0.0,0.0,0.0,0.0,0.0,0.0,0.0,-1.8169,0.0,0.0,0.0,0.0,0.0,0.0,0.0,0.0,0.0,0.0,0.0,0.0,0.0,0.0,0.0,0.0,0.0,0.0,0.0,0.0,0.0,0.0,0.0,0.0,0.0,0.0,0.0,0.0,0.0,0.0,0.0,0.0,0.0,0.0,0.0,0.0,0.0,0.0,0.0,0.0,0.0,0.0,0.0,0.0,0.0,0.0,0.0,0.0,0.0,0.0,0.0,0.0,0.0,0.0,0.0,0.0,-1.0252,-0.8779,-0.6799,-0.4334,-0.3763,-0.3467,-0.3368,-0.3808,-0.5412,-0.8344,0.0,0.0,0.0,0.0,0.0,0.0,0.0,0.0,0.0,0.0,0.0,0.0,0.0,0.0,0.0,0.0,0.0,0.0,0.0,0.0,0.0,0.0,0.0,0.0,0.0,0.0,0.0,0.0,0.0,0.0,0.0,0.0,0.0,0.0,0.0,0.0,0.0,0.0,0.0,-1.9925,-1.9573,0.0,0.0,0.0,0.0,0.0,0.0,0.0,0.0,-1.6994,0.0,0.0,0.0,0.0,0.0,0.0,0.0,0.0,0.0,0.0,0.0,0.0,0.0,0.0,0.0,0.0,0.0,0.0,0.0,0.0,0.0,0.0,0.0,0.0,0.0,0.0,0.0,0.0,0.0,0.0,0.0,0.0,0.0,0.0,0.0,0.0,0.0,0.0,0.0,0.0,0.0,0.0,0.0,0.0,0.0,0.0,0.0,0.0,0.0,0.0,0.0,0.0,0.0,0.0,0.0,-0.9782,-0.7834,-0.6013,-0.4253,-0.3998,-0.3866,-0.3866,-0.4451,-0.6084,0.0,0.0,0.0,0.0,0.0,0.0,0.0,0.0,0.0,0.0,0.0,0.0,0.0,0.0,0.0,0.0,0.0,0.0,0.0,0.0,0.0,0.0,0.0,0.0,0.0,0.0,0.0,0.0,0.0,0.0,0.0,0.0,0.0,0.0,0.0,0.0,0.0,0.0,0.0,0.0,-1.882,-1.8047,-1.5897,0.0,0.0,0.0,0.0,0.0,0.0,-1.476,-1.579,0.0,0.0,0.0,0.0,0.0,0.0,0.0,0.0,0.0,0.0,0.0,0.0,0.0,0.0,0.0,0.0,0.0,0.0,0.0,0.0,0.0,0.0,0.0,0.0,0.0,0.0,0.0,0.0,0.0,0.0,0.0,0.0,0.0,0.0,0.0,0.0,0.0,0.0,0.0,0.0,0.0,0.0,0.0,0.0,0.0,0.0,0.0,0.0,0.0,0.0,0.0,0.0,0.0,0.0,0.0,-0.9483,-0.7093,-0.5302,-0.4278,-0.4225,-0.4225,-0.4239,-0.527,-0.6931,0.0,0.0,0.0,0.0,0.0,0.0,0.0,0.0,0.0,0.0,0.0,0.0,0.0,0.0,0.0,0.0,0.0,0.0,0.0,0.0,0.0,0.0,0.0,0.0,0.0,0.0,0.0,0.0,0.0,0.0,0.0,0.0,0.0,0.0,0.0,0.0,0.0,0.0,0.0,0.0,0.0,-1.6667,-1.4282,-1.4407,0.0,0.0,0.0,0.0,-1.3158,-1.3768,0.0,0.0,0.0,0.0,0.0,0.0,0.0,0.0,0.0,0.0,0.0,0.0,0.0,0.0,0.0,0.0,0.0,0.0,0.0,0.0,0.0,0.0,0.0,0.0,0.0,0.0,0.0,0.0,0.0,0.0,0.0,0.0,0.0,0.0,0.0,0.0,0.0,0.0,0.0,0.0,0.0,0.0,0.0,0.0,0.0,0.0,0.0,0.0,0.0,0.0,0.0,0.0,0.0,0.0,0.0,0.0,-0.9,-0.6783,-0.5214,-0.4313,-0.4255,-0.4251,-0.4324,-0.5817,-0.7367,0.0,0.0,0.0,0.0,0.0,0.0,0.0,0.0,0.0,0.0,0.0,0.0,0.0,0.0,0.0,0.0,0.0,0.0,0.0,0.0,0.0,0.0,0.0,0.0,0.0,0.0,0.0,0.0,0.0,0.0,0.0,0.0,0.0,0.0,0.0,0.0,0.0,0.0,0.0,0.0,0.0,-1.6174,-1.3665,-1.3537,-1.3653,0.0,0.0,-1.2696,-1.2597,-1.2795,0.0,0.0,0.0,0.0,0.0,0.0,0.0,0.0,0.0,0.0,0.0,0.0,0.0,0.0,0.0,0.0,0.0,0.0,0.0,0.0,0.0,0.0,0.0,0.0,0.0,0.0,0.0,0.0,0.0,0.0,0.0,0.0,0.0,0.0,0.0,0.0,0.0,0.0,0.0,0.0,0.0,0.0,0.0,0.0,0.0,0.0,0.0,0.0,0.0,0.0,0.0,0.0,0.0,0.0,0.0,-1.0629,-0.8737,-0.6165,-0.4655,-0.434,-0.4265,-0.4261,-0.4297,-0.582,-0.7402,0.0,0.0,0.0,0.0,0.0,0.0,0.0,0.0,0.0,0.0,0.0,0.0,0.0,0.0,0.0,0.0,0.0,0.0,0.0,0.0,0.0,0.0,0.0,0.0,0.0,0.0,0.0,0.0,0.0,0.0,0.0,0.0,0.0,0.0,0.0,0.0,0.0,0.0,0.0,0.0,0.0,0.0,-1.375,-1.3163,0.0,0.0,0.0,-1.2574,-1.2305,0.0,0.0,0.0,0.0,0.0,0.0,0.0,0.0,0.0,0.0,0.0,0.0,0.0,0.0,0.0,0.0,0.0,0.0,0.0,0.0,0.0,0.0,0.0,0.0,0.0,0.0,0.0,0.0,0.0,0.0,0.0,0.0,0.0,0.0,0.0,0.0,0.0,0.0,0.0,0.0,0.0,0.0,0.0,0.0,0.0,0.0,0.0,0.0,0.0,0.0,0.0,0.0,0.0,0.0,0.0,0.0,0.0,-0.8526,-0.5754,-0.4297,-0.4297,-0.4297,-0.4297,-0.434,-0.5607,0.0,0.0,0.0,0.0,0.0,0.0,0.0,0.0,0.0,0.0,0.0,0.0,0.0,0.0,0.0,0.0,0.0,0.0,0.0,0.0,0.0,0.0,0.0,0.0,0.0,0.0,0.0,-1.8302,0.0,0.0,0.0,0.0,0.0,0.0,0.0,0.0,0.0,0.0,0.0,0.0,0.0,0.0,-1.5511,-1.3842,-1.2978,-1.233,0.0,0.0,-1.257,-1.2201,-1.2436,-1.3204,0.0,0.0,0.0,0.0,0.0,0.0,0.0,0.0,0.0,0.0,0.0,0.0,0.0,0.0,0.0,0.0,0.0,0.0,0.0,0.0,0.0,0.0,0.0,0.0,0.0,0.0,0.0,0.0,0.0,0.0,0.0,0.0,0.0,0.0,0.0,0.0,0.0,0.0,0.0,0.0,0.0,0.0,0.0,0.0,0.0,0.0,0.0,0.0,0.0,0.0,0.0,0.0,0.0,0.0,0.0,-0.8281,-0.567,-0.4297,-0.4297,-0.4297,-0.4297,-0.434,-0.519,-0.6515,0.0,0.0,0.0,0.0,0.0,0.0,0.0,0.0,0.0,0.0,0.0,0.0,0.0,0.0,0.0,0.0,0.0,0.0,0.0,0.0,0.0,0.0,0.0,0.0,0.0,0.0,0.0,0.0,0.0,0.0,0.0,0.0,0.0,0.0,0.0,0.0,0.0,0.0,0.0,0.0,0.0,-1.5317,-1.3647,-1.2894,-1.2417,0.0,0.0,-1.2325,-1.2305,-1.1963,-1.2351,-1.4319,0.0,0.0,0.0,0.0,0.0,0.0,0.0,0.0,0.0,0.0,0.0,0.0,0.0,0.0,0.0,0.0,0.0,0.0,0.0,0.0,0.0,0.0,0.0,0.0,0.0,0.0,0.0,0.0,0.0,0.0,0.0,0.0,0.0,0.0,0.0,0.0,0.0,0.0,0.0,0.0,0.0,0.0,0.0,0.0,0.0,0.0,0.0,0.0,0.0,0.0,0.0,0.0,0.0,-0.9581,-0.793,-0.5543,-0.4297,-0.4297,-0.4297,-0.4297,-0.4297,-0.4954,-0.6071,0.0,0.0,0.0,0.0,0.0,0.0,0.0,0.0,0.0,0.0,0.0,0.0,0.0,0.0,0.0,0.0,0.0,0.0,0.0,0.0,0.0,0.0,0.0,0.0,0.0,0.0,0.0,0.0,-1.3796,-1.4081,-1.5594,0.0,0.0,0.0,0.0,0.0,0.0,0.0,0.0,0.0,0.0,-1.4934,-1.3439,-1.2822,0.0,0.0,-1.2781,-1.296,-1.297,-1.2978,-1.3356,-1.454,-1.5535,0.0,0.0,0.0,0.0,0.0,0.0,0.0,0.0,0.0,0.0,0.0,0.0,0.0,0.0,0.0,0.0,0.0,0.0,0.0,0.0,0.0,0.0,0.0,0.0,0.0,0.0,0.0,0.0,0.0,0.0,0.0,0.0,0.0,0.0,0.0,0.0,0.0,0.0,0.0,0.0,0.0,0.0,0.0,0.0,0.0,0.0,0.0,0.0,0.0,0.0,0.0,0.0,-0.9345,-0.7614,-0.5415,-0.4297,-0.4297,-0.4297,-0.4297,-0.4295,-0.4649,-0.5496,0.0,0.0,0.0,0.0,0.0,0.0,0.0,0.0,0.0,0.0,0.0,0.0,0.0,0.0,0.0,0.0,0.0,0.0,0.0,0.0,0.0,0.0,0.0,0.0,0.0,0.0,0.0,0.0,-1.2934,-1.363,-1.5869,0.0,0.0,0.0,0.0,0.0,0.0,0.0,0.0,0.0,0.0,-1.4388,-1.3326,-1.2985,-1.2956,-1.3113,-1.3462,-1.3695,-1.3704,-1.3786,-1.4016,-1.4568,0.0,0.0,0.0,0.0,0.0,0.0,0.0,0.0,0.0,0.0,0.0,0.0,0.0,0.0,0.0,0.0,0.0,0.0,0.0,0.0,0.0,0.0,0.0,0.0,0.0,0.0,0.0,0.0,0.0,0.0,-2.012,0.0,0.0,0.0,0.0,0.0,0.0,0.0,0.0,0.0,0.0,0.0,0.0,0.0,0.0,0.0,0.0,0.0,0.0,0.0,0.0,0.0,0.0,-0.8744,-0.7413,-0.5331,-0.4297,-0.4297,-0.4297,-0.4297,-0.4295,-0.4264,-0.4813,-0.6037,0.0,0.0,0.0,0.0,0.0,0.0,0.0,0.0,0.0,0.0,0.0,0.0,0.0,0.0,0.0,0.0,0.0,0.0,0.0,0.0,0.0,0.0,0.0,0.0,0.0,0.0,-1.44,-1.3695,-1.3975,0.0,0.0,0.0,0.0,0.0,0.0,0.0,0.0,0.0,0.0,-1.4826,-1.3727,-1.3449,-1.343,-1.363,-1.4011,-1.4237,-1.4395,-1.4396,-1.4195,-1.4065,0.0,0.0,0.0,0.0,0.0,0.0,0.0,0.0,0.0,0.0,0.0,0.0,0.0,0.0,0.0,0.0,0.0,0.0,0.0,0.0,0.0,0.0,0.0,0.0,0.0,0.0,0.0,-1.9046,-1.755,0.0,0.0,0.0,0.0,0.0,0.0,0.0,0.0,0.0,0.0,0.0,-0.9339,-0.9932,0.0,0.0,0.0,0.0,0.0,0.0,0.0,0.0,0.0,0.0,0.0,0.0,-0.8508,-0.6996,-0.5241,-0.4297,-0.4297,-0.4297,-0.4297,-0.4297,-0.445,-0.5058,-0.6218,0.0,0.0,0.0,0.0,0.0,0.0,0.0,0.0,0.0,0.0,0.0,0.0,0.0,0.0,0.0,0.0,0.0,0.0,0.0,0.0,0.0,0.0,0.0,0.0,0.0,-1.4074,0.0,0.0,0.0,0.0,0.0,0.0,0.0,0.0,0.0,0.0,0.0,-1.6714,-1.5319,-1.4639,-1.413,-1.3701,-1.3997,-1.435,0.0,0.0,0.0,0.0,0.0,0.0,0.0,0.0,0.0,0.0,0.0,0.0,0.0,0.0,-1.8939,-1.9973,-1.9554,-1.8937,-1.8691,0.0,0.0,0.0,0.0,0.0,0.0,0.0,0.0,0.0,0.0,0.0,0.0,0.0,0.0,-1.6576,0.0,-1.4477,0.0,0.0,0.0,0.0,0.0,0.0,0.0,0.0,-0.7509,-0.6759,-0.6522,-0.7353,-0.7731,0.0,-0.8636,-1.0447,0.0,0.0,0.0,0.0,0.0,0.0,0.0,0.0,-0.7988,-0.6655,-0.5085,-0.4297,-0.4297,-0.4297,-0.4297,-0.4297,-0.4478,-0.4935,-0.5773,-0.6975,-0.8473,0.0,0.0,0.0,0.0,0.0,0.0,0.0,0.0,0.0,0.0,0.0,0.0,0.0,0.0,0.0,0.0,0.0,0.0,0.0,0.0,0.0,0.0,0.0,-1.3355,0.0,0.0,0.0,0.0,0.0,0.0,0.0,0.0,0.0,-1.7957,-1.7104,-1.6141,-1.5172,-1.4669,-1.445,-1.4597,0.0,0.0,0.0,0.0,0.0,0.0,0.0,-1.6615,-1.6044,-1.5851,-1.5633,-1.527,-1.5423,-1.5725,-1.6104,0.0,0.0,-1.7865,-1.7591,-1.7042,-1.6868,-1.6597,-1.6232,-1.57,-1.5232,-1.4748,0.0,0.0,0.0,0.0,0.0,0.0,0.0,0.0,-1.4378,-1.3506,0.0,-1.1071,0.0,0.0,0.0,0.0,0.0,-0.7575,0.0,0.0,-0.3942,-0.3089,-0.3705,-0.4846,-0.5319,-0.5341,-0.6406,-0.7273,-0.7988,-0.9431,0.0,0.0,0.0,0.0,0.0,0.0,-0.7243,-0.6344,-0.5019,-0.431,-0.431,-0.431,-0.4308,-0.4348,-0.4302,-0.4433,-0.4746,-0.5773,-0.6927,-0.8153,-1.0418,0.0,0.0,0.0,0.0,0.0,0.0,0.0,0.0,0.0,0.0,0.0,0.0,0.0,0.0,0.0,0.0,0.0,0.0,0.0,0.0,-1.3431,0.0,0.0,0.0,0.0,0.0,0.0,0.0,0.0,0.0,0.0,-1.7436,-1.6533,-1.5829,-1.5852,0.0,0.0,0.0,0.0,-1.6408,-1.7153,-1.7596,-1.7839,-1.7794,-1.7478,-1.7045,-1.6493,0.0,0.0,-1.5226,-1.4796,-1.4742,-1.5494,-1.4686,-1.4308,-1.5807,-1.5871,-1.5675,-1.5519,-1.5265,-1.5006,-1.4804,-1.4197,-1.3624,-1.5953,0.0,0.0,0.0,0.0,-1.8093,-1.6094,-1.2861,-1.2656,-1.1079,-0.8653,-0.8345,0.0,0.0,0.0,0.0,0.0,0.0,-0.5129,-0.4371,-0.3491,-0.3096,-0.3122,-0.3804,-0.4126,-0.4122,-0.4768,-0.5188,-0.5385,-0.5812,-0.7211,-0.9525,0.0,0.0,0.0,0.0,-0.6399,-0.5818,-0.4942,-0.4493,-0.4493,-0.4493,-0.4555,-0.4673,-0.4424,-0.4523,-0.4924,-0.507,-0.5839,-0.7314,-0.8552,0.0,0.0,0.0,0.0,0.0,0.0,0.0,0.0,0.0,0.0,0.0,0.0,0.0,0.0,0.0,0.0,0.0,0.0,0.0,-1.2654,-1.2116,-1.2179,0.0,0.0,0.0,0.0,0.0,0.0,0.0,0.0,0.0,-1.582,-1.6024,-1.5929,0.0,0.0,-1.5675,-1.6169,-1.671,-1.7142,-1.7195,-1.8033,0.0,-1.8089,-1.7916,-1.7624,-1.708,-1.6154,-1.5428,-1.5223,-1.453,-1.4063,-1.4335,-1.3555,-1.3055,-1.3443,-1.3924,-1.4057,-1.3841,-1.3855,-1.378,-1.337,-1.3216,-1.2922,-0.9828,-1.1825,-1.5249,-1.6035,-1.4989,-1.4915,-1.2834,-0.9486,-0.946,-0.8082,-0.5863,-0.5598,-0.5829,-0.6298,-0.6487,0.0,0.0,0.0,-0.412,-0.3343,-0.3328,-0.323,-0.3187,-0.366,-0.3853,-0.3896,-0.4132,-0.4285,-0.4351,-0.4316,-0.5254,-0.7085,0.0,0.0,-0.728,-0.6414,-0.5806,-0.5501,-0.4903,-0.4619,-0.4619,-0.4619,-0.4686,-0.4862,-0.4664,-0.4751,-0.5212,-0.5122,-0.5518,-0.6443,-0.7382,-0.8786,0.0,0.0,0.0,0.0,0.0,0.0,0.0,0.0,0.0,0.0,0.0,-1.6807,-1.6259,0.0,0.0,0.0,-1.2817,-1.2082,-1.1189,-1.1207,0.0,0.0,0.0,0.0,0.0,0.0,0.0,-1.5376,-1.4992,-1.4657,-1.46,-1.538,-1.5864,-1.5603,-1.584,-1.6309,-1.7046,0.0,-1.7702,-1.756,-1.8178,-1.8525,-1.8164,-1.7944,-1.7752,-1.737,-1.6508,-1.5937,-1.5909,-1.5177,-1.4511,-1.408,-1.3623,-1.3086,-1.2558,-1.2913,-1.3172,-1.2877,-1.305,-1.3077,-1.2644,-1.2624,-1.2287,-0.3945,-0.482,-1.2808,-1.4352,-1.1621,-1.1558,-0.9285,-0.5667,-0.5628,-0.4997,-0.3956,-0.3173,-0.3387,-0.4312,-0.4471,0.0,-0.376,-0.3609,-0.3265,-0.2808,-0.3253,-0.35,-0.3634,-0.4105,-0.432,-0.4318,-0.424,-0.4287,-0.439,-0.4363,-0.4412,-0.4636,-0.5086,-0.5578,-0.603,-0.5672,-0.5374,-0.5253,-0.4832,-0.4643,-0.4641,-0.4635,-0.4771,-0.5054,-0.4996,-0.5186,-0.5606,-0.5601,-0.5646,-0.5765,-0.6716,-0.7719,-0.8707,0.0,0.0,0.0,0.0,0.0,0.0,0.0,0.0,0.0,0.0,0.0,0.0,0.0,0.0,0.0,-1.1128,0.0,-1.0211,-1.0626,0.0,0.0,0.0,-1.2938,-1.3382,-1.3408,-1.3499,-1.3804,0.0,0.0,-1.3694,-1.4604,-1.5527,-1.6359,-1.6274,-1.6667,-1.8112,-1.8133,-1.8036,-1.799,-1.8063,-1.8091,-1.8081,-1.7715,-1.7396,-1.7395,-1.6856,-1.6463,-1.6747,-1.6255,-1.5449,-1.4568,-1.4351,-1.3859,-1.2628,-1.2646,-1.2779,-1.2592,-1.2733,-1.2817,-1.2599,-1.2403,-1.1976,-0.426,-0.4497,-0.658,-0.6959,-0.6205,-0.6163,-0.5591,-0.4643,-0.4645,-0.4101,-0.3157,-0.2979,-0.2835,-0.2801,-0.2873,-0.2794,-0.2657,-0.2622,-0.2755,-0.2965,-0.3071,-0.3544,-0.4338,-0.4451,-0.4555,-0.4506,-0.4534,-0.4546,-0.4538,-0.4518,-0.4555,-0.4601,-0.4744,-0.4855,-0.5037,-0.506,-0.4995,-0.492,-0.4821,-0.4872,-0.507,-0.481,-0.492,-0.5354,-0.5131,-0.5218,-0.5665,-0.5662,-0.5792,-0.5999,-0.6156,-0.6742,-0.7842,-0.9737,0.0,0.0,0.0,0.0,0.0,0.0,0.0,0.0,0.0,-1.5056,-1.3977,0.0,-1.14,0.0,-1.0414,-1.0048,-0.9963,-1.0495,0.0,0.0,-1.2032,-1.2598,-1.2999,-1.2648,-1.264,-1.328,-1.2825,-1.2494,-1.2637,-1.3425,-1.4242,-1.4973,-1.5901,-1.6698,-1.7377,-1.757,-1.7642,-1.7678,-1.7889,-1.8081,-1.8072,-1.7277,-1.6785,-1.7021,-1.6448,-1.6183,-1.683,-1.6287,-1.5519,-1.47,-1.3871,-1.3114,-1.2497,-1.2412,-1.2533,-1.2689,-1.2654,-1.2642,-1.2789,-1.2922,-1.2866,-0.3093,-0.3093,-0.3093,-0.3099,-0.3126,-0.3957,-0.408,-0.3673,-0.3683,-0.3132,-0.2241,-0.2264,-0.2139,-0.1921,-0.1973,-0.2083,-0.226,-0.2538,-0.2928,-0.338,-0.3572,-0.4047,-0.4619,-0.4619,-0.4619,-0.4619,-0.4619,-0.4594,-0.4632,-0.4632,-0.4634,-0.4632,-0.4632,-0.4635,-0.4646,-0.4776,-0.4793,-0.478,-0.4782,-0.4885,-0.5037,-0.4841,-0.501,-0.5504,-0.5349,-0.549,-0.5926,-0.5973,-0.5995,-0.6089,-0.6021,-0.6296,-0.7014,-0.8585,-1.0197,0.0,0.0,0.0,0.0,0.0,0.0,0.0,0.0,0.0,0.0,0.0,-1.0742,-1.0448,-1.0097,-0.9943,-1.0035,-1.0327,-1.07,-1.1111,-1.1434,-1.1761,-1.2057,-1.1811,-1.1774,-1.2211,-1.1959,-1.1906,-1.2434,-1.3275,-1.4208,-1.5053,-1.613,-1.6947,-1.7171,-1.7424,-1.7597,-1.7541,-1.777,-1.8071,-1.8319,-1.7358,-1.679,-1.7351,-1.7131,-1.7009,-1.7746,-1.7894,-1.744,-1.6094,-1.5217,-1.4365,-1.3358,-1.2973,-1.292,-1.3065,-1.2977,-1.2849,-1.2842,-1.3089,-1.3108,-0.1538,-0.149,-0.1538,-0.1538,-0.1631,-0.3282,-0.3483,-0.2733,-0.2731,-0.2213,-0.1404,-0.1474,-0.1518,-0.1498,-0.1629,-0.1928,-0.2339,-0.2906,-0.3365,-0.3837,-0.4317,-0.4558,-0.4606,-0.4654,-0.4606,-0.4606,-0.4654,-0.4647,-0.4722,-0.4724,-0.4724,-0.4724,-0.4716,-0.4669,-0.4596,-0.4659,-0.4738,-0.4782,-0.4782,-0.4834,-0.4834,-0.4834,-0.5085,-0.5636,-0.5636,-0.5844,-0.6295,-0.6339,-0.6241,-0.614,-0.6119,-0.6158,-0.6328,-0.7672,-0.9018,0.0,-1.1615,0.0,0.0,0.0,0.0,0.0,0.0,0.0,0.0,-1.1205,-1.0588,-1.0175,-0.9997,-0.9954,-1.0143,-1.018,-1.0293,-1.0631,-1.07,-1.0775,-1.0962,-1.1029,-1.1091,-1.1128,-1.1421,-1.1954,-1.2714,-1.3746,-1.485,-1.5701,-1.6594,-1.7175,-1.7223,-1.7512,-1.7695,-1.7542,-1.7687,-1.805,-1.8444,-1.7673,-1.7209,-1.807,-1.8083,-1.8237,-1.8692,-1.9576,-1.9606,-1.7846,-1.6959,-1.6201,-1.4621,-1.3991,-1.3726,-1.3773,-1.3627,-1.336,-1.3017,-1.3038,-1.2929,-0.16,-0.16,-0.16,-0.16,-0.1596,-0.1958,-0.1972,-0.1754,-0.1746,-0.1651,-0.151,-0.1515,-0.175,-0.2125,-0.2229,-0.254,-0.3013,-0.313,-0.3456,-0.394,-0.409,-0.434,-0.4736,-0.4783,-0.4785,-0.4736,-0.4785,-0.4794,-0.481,-0.481,-0.476,-0.4808,-0.4743,-0.4702,-0.4681,0.0,0.0,0.0,-0.4782,-0.4885,-0.5087,-0.4935,-0.5135,-0.5889,-0.5687,0.0,-0.6354,-0.6354,-0.6393,-0.6319,-0.6282,0.0,0.0,0.0,0.0,0.0,0.0,0.0,0.0,0.0,0.0,0.0,-1.2288,-1.1946,-1.1556,-1.0801,-1.0218,-0.9997,-0.9922,-0.9922,-0.9954,-0.9954,-0.9992,-1.0067,-1.0073,-1.0143,-1.0336,-1.0707,-1.0993,-1.1186,-1.2214,-1.2994,-1.3269,-1.448,-1.5494,-1.5803,-1.6581,-1.7177,-1.7237,-1.7448,-1.7598,-1.7712,-1.7979,-1.8218,-1.8612,-1.8015,-1.756,-1.7851,-1.8057,-1.8181,-1.8247,-1.8975,-1.9295,-1.8177,-1.7302,-1.657,-1.5738,-1.4934,-1.4379,-1.4707,-1.4693,-1.4329,-1.3347,-1.3173,-1.3194,-0.1566,0.0,-0.1566,-0.1566,0.0,-0.16,-0.1585,-0.1568,-0.1539,-0.1478,-0.1479,-0.1542,-0.1693,-0.1986,-0.2341,-0.2622,-0.2927,-0.3464,-0.3835,-0.4089,-0.43,-0.4533,-0.4782,-0.4782,-0.4782,-0.4782,-0.4782,-0.4782,-0.4782,-0.4782,-0.4782,-0.4782,-0.4749,-0.4708,-0.4706,-0.4618,-0.4616,-0.4704,-0.4801,-0.4897,-0.5045,-0.5045,-0.5291,-0.583,-0.578,0.0,0.0,0.0,0.0,0.0,0.0,0.0,0.0,-0.6975,0.0,-0.8053,-0.873,-0.9591,-1.0553,-1.0756,-1.0862,-1.1083,-1.1094,-1.1125,-1.1095,-1.055,-1.0218,-1.018,-1.0218,-1.0218,-1.0186,-1.0291,-1.0445,-1.0527,-1.0667,-1.0818,-1.1023,-1.1245,-1.1648,-1.2159,-1.2857,-1.3574,-1.4389,-1.535,-1.6137,-1.655,-1.7144,-1.7605,-1.7596,-1.7728,-1.7926,-1.8353,-1.8552,-1.8887,-1.9359,-1.8722,-1.8338,-1.8837,-1.8998,-1.9015,-1.9042,-1.9851,-2.0081,-1.8836,-1.7932,-1.7192,-1.6083,-1.5359,-1.4997,-1.513,-1.5177,-1.497,-1.4222,-1.4075,-1.4157,-0.1566,-0.1566,-0.1566,-0.1566,-0.1566,-0.1566,-0.1566,-0.1563,0.0,0.0,0.0,-0.1568,-0.1678,-0.178,-0.2351,-0.2696,-0.2956,-0.3797,-0.4271,-0.4373,-0.4714,-0.4833,-0.4883,-0.4833,-0.4823,-0.4859,-0.4861,-0.48,-0.4784,-0.4782,-0.4782,-0.4776,-0.4749,-0.47,-0.4681,-0.461,-0.4619,-0.4619,-0.4804,-0.4896,-0.4944,-0.5185,-0.5424,-0.5713,-0.5797,-0.5988,-0.6236,-0.6344,-0.6357,-0.6357,-0.6426,-0.6443,-0.6545,-0.6784,-0.7073,-0.7523,-0.7749,-0.8135,-0.8687,-0.9116,-0.9381,-0.9545,-1.0113,-1.0532,-1.0674,-1.04,-1.0255,-1.0406,-1.0445,-1.0474,-1.0474,-1.0705,-1.0897,-1.1093,-1.1317,-1.1553,-1.168,-1.1894,-1.2194,-1.2948,-1.3407,-1.4129,-1.5404,-1.6181,-1.6842,-1.7446,-1.776,-1.8031,-1.8078,-1.8105,-1.8328,-1.8785,-1.9047,-1.9498,-2.0087,-1.9676,-1.9239,-1.9538,-1.9692,-1.9817,-1.9785,-2.0439,-2.0402,-1.898,-1.8389,-1.753,-1.639,-1.5738,-1.5484,-1.5471,-1.5478,-1.5404,-1.5229,-1.5156,-1.5089,-0.1566,-0.1566,-0.1566,-0.1566,-0.1566,-0.1566,-0.1566,-0.1566,-0.1607,-0.1604,-0.1605,-0.1609,-0.1861,-0.2365,-0.2518,-0.3162,-0.4048,-0.4216,-0.4508,-0.4984,-0.5023,-0.5069,-0.5069,-0.5069,-0.5028,-0.4957,-0.5004,-0.491,-0.4792,-0.4784,-0.4782,-0.4774,-0.4751,-0.4671,-0.4598,-0.4627,-0.4619,-0.4619,-0.4804,-0.4993,-0.5232,-0.528,-0.5424,-0.5713,-0.5726,-0.5831,-0.6113,-0.6227,-0.6342,-0.6293,-0.6385,-0.6426,-0.6412,-0.6459,-0.6504,-0.6586,-0.6633,-0.7075,-0.8045,-0.7754,-0.7928,-0.8944,-0.9817,-1.0302,-1.0278,-1.0218,-1.0143,-1.0003,-1.0236,-1.0323,-1.0334,-1.0523,-1.0705,-1.075,-1.0945,-1.1088,-1.1231,-1.1682,-1.2093,-1.234,-1.3939,-1.511,-1.5565,-1.6782,-1.7711,-1.7906,-1.794,-1.808,-1.8259,-1.8359,-1.8521,-1.8836,-1.9097,-1.9549,-2.0134,-2.0305,-1.9621,-1.8463,-1.9236,-1.917,-1.7687,-1.838,-1.884,-1.848,-1.768,-1.7159,-1.6904,-1.6318,-1.5839,-1.5691,-1.5732,-1.5664,-1.5638,-1.5645,-1.5524,-0.1632,-0.1618,-0.1566,-0.1566,-0.1566,-0.1566,-0.1566,-0.1566,-0.1566,-0.1768,-0.2024,-0.2114,-0.2443,-0.3021,-0.3421,-0.3894,-0.4435,-0.4647,-0.4913,-0.5124,-0.513,-0.5106,-0.5106,-0.5106,-0.5088,-0.5047,-0.5047,-0.5,-0.4916,-0.491,-0.4885,-0.4784,-0.4794,-0.4755,-0.4714,-0.4669,-0.4743,-0.4881,-0.4969,-0.5055,-0.5192,-0.5419,-0.5575,-0.5715,-0.5768,-0.5849,-0.5988,-0.6102,-0.6168,-0.617,-0.6217,-0.6276,-0.6339,-0.6344,-0.6374,-0.6381,-0.6387,-0.6634,-0.7083,-0.7092,-0.7746,-0.9156,-0.953,-0.9946,-1.0399,-1.0423,-1.044,-1.0606,-1.0734,-1.0795,-1.08,-1.1011,-1.115,-1.115,-1.1396,-1.1606,-1.1737,-1.1985,-1.2439,-1.3069,-1.4421,-1.556,-1.6049,-1.7212,-1.8,-1.7991,-1.7991,-1.814,-1.8443,-1.8322,-1.8342,-1.8746,-1.9212,-1.9643,-1.9998,-1.9765,-1.9376,-1.8816,-1.8826,-1.8417,-1.7276,-1.7735,-1.7757,-1.7307,-1.6832,-1.6586,-1.6433,-1.5961,-1.573,-1.5784,-1.5825,-1.5825,-1.5825,-1.5825,-1.5725,-0.1654,-0.1627,-0.1627,-0.1623,-0.1566,-0.1566,-0.1566,-0.1566,-0.1566,-0.1923,-0.2394,-0.2502,-0.2959,-0.3629,-0.4216,-0.4559,-0.4749,-0.5084,-0.5219,-0.5267,-0.5202,-0.5169,-0.5169,-0.5169,-0.5159,-0.5141,-0.5139,-0.5092,-0.501,-0.5054,-0.4955,-0.4871,-0.4794,-0.4782,-0.4782,-0.4769,-0.4835,-0.5016,-0.5097,-0.5136,-0.5252,-0.5539,-0.5724,-0.5775,-0.5901,-0.5931,-0.5909,-0.6021,-0.6072,-0.6048,-0.607,-0.6177,-0.6268,-0.6276,-0.6279,-0.638,-0.6399,-0.6382,-0.6342,-0.6826,-0.7763,-0.915,-0.9312,-0.9681,-1.0529,-1.0672,-1.0766,-1.1014,-1.107,-1.1155,-1.1148,-1.1379,-1.152,-1.1531,-1.1827,-1.2052,-1.2277,-1.2369,-1.2869,-1.388,-1.4845,-1.5718,-1.6583,-1.7456,-1.7991,-1.7991,-1.7991,-1.8128,-1.8365,-1.8254,-1.8331,-1.8577,-1.9191,-1.9711,-1.9808,-1.9341,-1.8991,-1.9039,-1.818,-1.7379,-1.6909,-1.6965,-1.6915,-1.603,-1.5933,-1.588,-1.5493,-1.5404,-1.5452,-1.5547,-1.5642,-1.573,-1.5784,-1.5825,-1.5825,-0.1684,-0.1712,-0.171,-0.1642,-0.1619,-0.1617,-0.1566,-0.1566,-0.1566,-0.1938,-0.2476,-0.2449,-0.3104,-0.4145,-0.4283,-0.4691,-0.5262,-0.5373,-0.5367,-0.5365,-0.5361,-0.5357,-0.5349,-0.5353,-0.5312,-0.5186,-0.5176,-0.513,-0.51,-0.5092,-0.5047,-0.4959,-0.4875,-0.4786,-0.4784,-0.4776,-0.4822,-0.482,-0.5023,-0.5266,-0.5608,-0.569,-0.5821,-0.6056,-0.6062,-0.6015,-0.5918,-0.6021,-0.6034,-0.5942,-0.6029,-0.6092,-0.6105,-0.6105,-0.6159,-0.6276,-0.6287,-0.6238,-0.6172,-0.6858,-0.7622,-0.827,-0.9147,-0.9932,-1.0867,-1.097,-1.0873,-1.0781,-1.0925,-1.1033,-1.1044,-1.125,-1.1332,-1.1364,-1.1709,-1.2,-1.208,-1.2412,-1.2997,-1.388,-1.4803,-1.5726,-1.6576,-1.7448,-1.7991,-1.7991,-1.7991,-1.8051,-1.8153,-1.8331,-1.8382,-1.8321,-1.8774,-1.9506,-1.9847,-1.943,-1.8585,-1.7763,-1.6929,-1.6122,-1.5381,-1.5076,-1.4943,-1.5134,-1.4918,-1.501,-1.5166,-1.5131,-1.5124,-1.5267,-1.5404,-1.5588,-1.573,-1.5778,-1.5778,-0.1714,-0.1687,-0.1687,-0.167,-0.1643,-0.1624,-0.1566,-0.1566,-0.1566,-0.1927,-0.2399,-0.2457,-0.3137,-0.427,-0.437,-0.4814,-0.538,-0.5382,-0.5382,-0.5382,-0.5382,-0.5382,-0.5382,-0.5382,-0.5359,-0.5328,-0.5324,-0.5277,-0.5194,-0.5137,-0.5088,-0.5047,-0.4961,-0.4916,-0.491,-0.4813,-0.4885,-0.5037,-0.5101,-0.5407,-0.5801,-0.5731,-0.5805,-0.6086,-0.6086,-0.6064,-0.6021,-0.6062,-0.6062,-0.6018,-0.6062,-0.6121,-0.6237,-0.6243,-0.6246,-0.6352,-0.6306,-0.6184,-0.5988,-0.6795,-0.762,-0.8316,-0.925,-1.0162,-1.107,-1.116,-1.1112,-1.1053,-1.1102,-1.116,-1.116,-1.1246,-1.1311,-1.1311,-1.1483,-1.1656,-1.1828,-1.1995,-1.254,-1.3662,-1.4587,-1.5587,-1.6583,-1.7456,-1.7951,-1.7991,-1.8,-1.8076,-1.8305,-1.8323,-1.84,-1.8674,-1.8999,-1.917,-1.928,-1.8851,-1.8023,-1.7193,-1.6395,-1.5542,-1.4502,-1.4321,-1.4447,-1.43,-1.4404,-1.4586,-1.4838,-1.4885,-1.4885,-1.5029,-1.5124,-1.5356,-1.5588,-1.5635,-1.5635,-0.1744,-0.1717,-0.1708,-0.1688,-0.1713,-0.1639,-0.1624,-0.1567,-0.1566,-0.1823,-0.2191,-0.2437,-0.3081,-0.4036,-0.4314,-0.4795,-0.5324,-0.5382,-0.5365,-0.5347,-0.5343,-0.5343,-0.5345,-0.5345,-0.5357,-0.5377,-0.538,-0.5345,-0.5275,-0.519,-0.5145,-0.5132,-0.5055,-0.5062,-0.5,-0.4916,-0.4976,-0.5229,-0.5207,-0.5491,-0.5919,-0.5838,-0.5898,-0.6133,-0.6181,-0.6168,-0.6135,-0.6102,-0.607,-0.6037,-0.6007,-0.6045,-0.6159,-0.6168,-0.6219,-0.6317,-0.6265,-0.6127,-0.5915,-0.6506,-0.7337,-0.8384,-0.9157,-1.0033,-1.1003,-1.1311,-1.1311,-1.1295,-1.1311,-1.13,-1.1311,-1.1311,-1.1311,-1.1311,-1.1348,-1.1483,-1.1661,-1.1871,-1.2625,-1.3873,-1.4873,-1.5752,-1.6845,-1.7711,-1.8211,-1.8211,-1.8162,-1.8254,-1.8459,-1.8297,-1.8205,-1.8768,-1.8845,-1.8845,-1.8709,-1.8254,-1.7643,-1.681,-1.6025,-1.5029,-1.418,-1.4255,-1.4609,-1.4754,-1.4483,-1.4513,-1.501,-1.5016,-1.4688,-1.4885,-1.4981,-1.5124,-1.5445,-1.5493,-1.5588,-0.1776,-0.1799,-0.1716,-0.169,-0.1714,-0.1712,-0.1643,-0.162,-0.1618,-0.1684,-0.1869,-0.2378,-0.2956,-0.3604,-0.4108,-0.4746,-0.5318,-0.5377,-0.5333,-0.5209,-0.5198,-0.5194,-0.5194,-0.5196,-0.5294,-0.5365,-0.5369,-0.5369,-0.5361,-0.5284,-0.5184,-0.5178,-0.5147,-0.5102,-0.509,-0.5062,-0.5122,-0.5375,-0.5298,-0.5498,-0.5944,-0.5982,-0.6108,-0.6352,-0.6365,-0.6358,-0.6263,-0.6149,-0.6043,-0.5923,-0.585,-0.5788,-0.592,-0.5945,-0.6013,-0.6094,-0.6105,-0.604,-0.5909,-0.5938,-0.6669,-0.8193,-0.8671,-0.9375,-1.1089,-1.1311,-1.1311,-1.1311,-1.1311,-1.1311,-1.1311,-1.1311,-1.1311,-1.1305,-1.1521,-1.1613,-1.1699,-1.2283,-1.3457,-1.4664,-1.5587,-1.6542,-1.7716,-1.8307,-1.8485,-1.8519,-1.8545,-1.8596,-1.8571,-1.8305,-1.8136,-1.8136,-1.8213,-1.8299,-1.8837,-1.8294,-1.7371,-1.6675,-1.5718,-1.4519,-1.4388,-1.4388,-1.4835,-1.5061,-1.4609,-1.4663,-1.5235,-1.5188,-1.4675,-1.4592,-1.4688,-1.4873,-1.5207,-1.5452,-1.5547,-0.1789,-0.1776,-0.1746,-0.177,-0.1688,-0.1722,-0.1656,-0.1698,-0.2056,-0.2233,-0.2378,-0.2902,-0.3531,-0.4097,-0.4307,-0.479,-0.5375,-0.5322,-0.5275,-0.5184,-0.5186,-0.5157,-0.5157,-0.5159,-0.515,-0.5284,-0.5294,-0.5324,-0.5375,-0.5347,-0.5331,-0.5316,-0.5241,-0.5194,-0.5177,-0.5314,-0.5529,-0.5784,-0.5796,-0.6047,-0.6345,-0.6329,-0.6289,-0.6387,-0.6387,-0.6368,-0.6377,-0.6333,-0.6257,-0.614,-0.6165,-0.6168,-0.6146,-0.6206,-0.6139,-0.61,-0.6086,-0.5999,-0.5868,-0.6287,-0.7139,-0.8368,-0.9069,-0.9854,-1.1003,-1.1311,-1.1311,-1.1311,-1.1311,-1.1311,-1.1311,-1.1311,-1.1311,-1.1311,-1.1397,-1.1483,-1.1521,-1.1903,-1.2826,-1.458,-1.6206,-1.7546,-1.7897,-1.8365,-1.8571,-1.8614,-1.8844,-1.8973,-1.8947,-1.8631,-1.8391,-1.8391,-1.8358,-1.8228,-1.7758,-1.7822,-1.7363,-1.6711,-1.5904,-1.5029,-1.4621,-1.4346,-1.4663,-1.4889,-1.4526,-1.4436,-1.4908,-1.486,-1.4394,-1.4394,-1.4496,-1.464,-1.4927,-1.5118,-1.5356,-0.1795,-0.1791,-0.1773,-0.1746,-0.1716,-0.1688,-0.1722,-0.1766,-0.227,-0.2537,-0.2675,-0.336,-0.3986,-0.4337,-0.4604,-0.4924,-0.5331,-0.5217,-0.516,-0.5153,-0.5092,-0.5063,-0.5063,-0.5065,-0.5128,-0.518,-0.5275,-0.5322,-0.5373,-0.5382,-0.5382,-0.5375,-0.5316,-0.5233,-0.5328,-0.5519,-0.5736,-0.6042,-0.6165,-0.6367,-0.6613,-0.6556,-0.6443,-0.6488,-0.6408,-0.6387,-0.6387,-0.6401,-0.635,-0.6336,-0.6306,-0.6306,-0.6279,-0.6377,-0.635,-0.6173,-0.6149,-0.604,-0.5873,-0.6367,-0.7101,-0.7981,-0.8894,-0.9859,-1.0738,-1.1132,-1.1267,-1.1311,-1.1311,-1.1311,-1.1311,-1.1392,-1.1392,-1.1354,-1.1354,-1.1397,-1.144,-1.178,-1.3039,-1.4956,-1.6788,-1.7829,-1.8034,-1.8374,-1.8614,-1.8793,-1.9076,-1.923,-1.9281,-1.9033,-1.8818,-1.8827,-1.8776,-1.8388,-1.7849,-1.7559,-1.6824,-1.6134,-1.5611,-1.4946,-1.4675,-1.4442,-1.4394,-1.458,-1.4532,-1.4394,-1.4298,-1.4298,-1.4298,-1.4298,-1.4346,-1.449,-1.4688,-1.4831,-1.5086,-0.1795,-0.1794,-0.1794,-0.1774,-0.1797,-0.1766,-0.174,-0.1767,-0.2296,-0.2594,-0.2719,-0.3724,-0.4271,-0.4417,-0.487,-0.5112,-0.5162,-0.5162,-0.5137,-0.5004,-0.4979,-0.4971,-0.4969,-0.4971,-0.5063,-0.5176,-0.5333,-0.5377,-0.5382,-0.5382,-0.5382,-0.538,-0.5375,-0.5365,-0.5375,-0.5612,-0.5839,-0.6091,-0.6275,-0.6532,-0.6732,-0.6668,-0.6594,-0.6584,-0.6438,-0.6387,-0.6387,-0.6342,-0.6339,-0.6311,-0.6229,-0.6207,-0.6282,-0.638,-0.6382,-0.6276,-0.6309,-0.6146,-0.5945,-0.595,-0.6445,-0.744,-0.8088,-0.9178,-1.0299,-1.0924,-1.1348,-1.1354,-1.1321,-1.1311,-1.1354,-1.1527,-1.157,-1.1392,-1.1527,-1.1656,-1.1785,-1.2338,-1.3542,-1.5594,-1.7115,-1.7878,-1.8076,-1.8417,-1.8768,-1.9067,-1.9282,-1.9332,-1.9421,-1.9141,-1.911,-1.899,-1.8587,-1.7924,-1.7684,-1.7327,-1.6327,-1.5424,-1.4939,-1.4394,-1.4442,-1.4346,-1.4532,-1.4669,-1.4484,-1.4346,-1.4298,-1.4298,-1.4298,-1.4298,-1.4346,-1.4304,-1.4398,-1.4558,-1.4795,-0.1795,-0.1795,-0.1795,-0.1778,-0.1857,-0.2147,-0.207,-0.1847,-0.3004,-0.3415,-0.3349,-0.4316,-0.482,-0.489,-0.5055,-0.5088,-0.5059,-0.5055,-0.5024,-0.4969,-0.4908,-0.4879,-0.4879,-0.4879,-0.4973,-0.5151,-0.531,-0.5382,-0.5388,-0.5386,-0.5382,-0.5382,-0.5384,-0.5382,-0.5437,-0.5626,-0.5943,-0.621,-0.6389,-0.6564,-0.6748,-0.6684,-0.6584,-0.6449,-0.6406,-0.6387,-0.6384,-0.6352,-0.6347,-0.6276,-0.6306,-0.6344,-0.6382,-0.6415,-0.6385,-0.6285,-0.6265,-0.6206,-0.6062,-0.6073,-0.6755,-0.8092,-0.8768,-0.9731,-1.1126,-1.1449,-1.1596,-1.1525,-1.1407,-1.1311,-1.1354,-1.1527,-1.1684,-1.157,-1.1785,-1.1871,-1.2017,-1.2942,-1.4193,-1.5418,-1.668,-1.7466,-1.7983,-1.8504,-1.8914,-1.9153,-1.9529,-1.9762,-1.9175,-1.8828,-1.8136,-1.7668,-1.7374,-1.7232,-1.6769,-1.6395,-1.5822,-1.5124,-1.4582,-1.4298,-1.4298,-1.4346,-1.458,-1.4627,-1.4442,-1.4346,-1.4346,-1.4268,-1.425,-1.4256,-1.4238,-1.4213,-1.4157,-1.4296,-1.4459,-0.1795,-0.1795,-0.1795,-0.1785,-0.1818,-0.2113,-0.2197,-0.218,-0.329,-0.3742,-0.3805,-0.4586,-0.5028,-0.5045,-0.5022,-0.4996,-0.5021,-0.4941,-0.4939,-0.5004,-0.4877,-0.4784,-0.4798,-0.4859,-0.503,-0.5206,-0.5359,-0.5447,-0.5475,-0.5445,-0.5429,-0.5426,-0.5398,-0.5382,-0.5437,-0.5656,-0.5989,-0.6262,-0.6476,-0.666,-0.6818,-0.6749,-0.6627,-0.6521,-0.6411,-0.6411,-0.6443,-0.6414,-0.6404,-0.6355,-0.6352,-0.6384,-0.6387,-0.6384,-0.6404,-0.6352,-0.6325,-0.6279,-0.6173,-0.6202,-0.6836,-0.8254,-0.8889,-0.9764,-1.1181,-1.161,-1.1838,-1.1801,-1.1715,-1.1612,-1.1618,-1.1833,-1.1965,-1.196,-1.1886,-1.1931,-1.2158,-1.3318,-1.4518,-1.551,-1.6317,-1.7051,-1.7809,-1.8212,-1.8712,-1.8871,-1.9557,-1.981,-1.902,-1.8605,-1.7827,-1.7211,-1.7091,-1.6634,-1.5743,-1.5398,-1.5202,-1.4801,-1.437,-1.4298,-1.4298,-1.4298,-1.4442,-1.4442,-1.4346,-1.4346,-1.4298,-1.4159,-1.4099,-1.4129,-1.4135,-1.3984,-1.3898,-1.3884,-1.405,-0.1795,-0.1795,-0.1795,-0.1794,-0.1789,-0.1925,-0.2166,-0.2506,-0.3193,-0.3659,-0.4068,-0.4579,-0.4902,-0.4934,-0.4896,-0.4902,-0.4947,-0.4904,-0.4918,-0.4953,-0.4912,-0.4827,-0.4847,-0.503,-0.5188,-0.5349,-0.5453,-0.5545,-0.5548,-0.5549,-0.5512,-0.5492,-0.5431,-0.5386,-0.5439,-0.5656,-0.5938,-0.627,-0.6543,-0.6756,-0.6959,-0.6853,-0.6722,-0.6594,-0.6441,-0.6438,-0.657,-0.6481,-0.6416,-0.6389,-0.6431,-0.6387,-0.6387,-0.6387,-0.6431,-0.6371,-0.6381,-0.6377,-0.6301,-0.6276,-0.6765,-0.7814,-0.8738,-0.9571,-1.0683,-1.1646,-1.2116,-1.211,-1.2062,-1.2046,-1.2086,-1.2166,-1.2263,-1.2297,-1.2043,-1.1912,-1.2132,-1.3368,-1.4415,-1.5425,-1.6017,-1.6463,-1.7336,-1.7616,-1.7845,-1.8187,-1.8881,-1.8951,-1.8589,-1.81,-1.7962,-1.7375,-1.6469,-1.6026,-1.5113,-1.5025,-1.4826,-1.4613,-1.4298,-1.4298,-1.4298,-1.4298,-1.4298,-1.4298,-1.4298,-1.4298,-1.4268,-1.4159,-1.4032,-1.3996,-1.3918,-1.3755,-1.3634,-1.3589,-1.3568,-0.1795,-0.1795,-0.1795,-0.1795,-0.1847,-0.2204,-0.2455,-0.2711,-0.3568,-0.3977,-0.4282,-0.4732,-0.4914,-0.4873,-0.4806,-0.4885,-0.4951,-0.4951,-0.4983,-0.5057,-0.5051,-0.5037,-0.5055,-0.5149,-0.5269,-0.5384,-0.5475,-0.5497,-0.5578,-0.5558,-0.5571,-0.5508,-0.5484,-0.5437,-0.5448,-0.5493,-0.5772,-0.6219,-0.6328,-0.6566,-0.6832,-0.6828,-0.6695,-0.6499,-0.6406,-0.6452,-0.6616,-0.6679,-0.6559,-0.64,-0.6387,-0.6387,-0.6387,-0.6387,-0.6387,-0.6387,-0.6387,-0.6426,-0.6399,-0.6388,-0.686,-0.7867,-0.8747,-0.9902,-1.0956,-1.1831,-1.224,-1.2285,-1.2172,-1.211,-1.2105,-1.2162,-1.2202,-1.2193,-1.2159,-1.2197,-1.2352,-1.2829,-1.3656,-1.4665,-1.5077,-1.5666,-1.6365,-1.6855,-1.7085,-1.7421,-1.7854,-1.8065,-1.7651,-1.727,-1.704,-1.5901,-1.5065,-1.491,-1.4711,-1.4663,-1.4567,-1.4424,-1.4298,-1.4298,-1.4298,-1.4298,-1.4298,-1.4298,-1.4298,-1.4298,-1.4292,-1.4238,-1.4099,-1.3888,-1.3797,-1.367,-1.3387,-1.323,-1.3177,-0.1795,-0.1795,-0.1795,-0.1795,-0.1849,-0.2165,-0.2532,-0.3058,-0.3624,-0.4209,-0.4573,-0.4872,-0.5,-0.4951,-0.4899,-0.4975,-0.5024,-0.5028,-0.5079,-0.5163,-0.5204,-0.52,-0.5198,-0.5259,-0.5347,-0.5435,-0.552,-0.5614,-0.568,-0.5665,-0.5614,-0.5569,-0.5524,-0.5465,-0.5388,-0.5437,-0.5717,-0.6219,-0.6325,-0.6518,-0.684,-0.6825,-0.6706,-0.6497,-0.6465,-0.657,-0.6692,-0.6812,-0.6766,-0.6575,-0.646,-0.6441,-0.6389,-0.6387,-0.6387,-0.6387,-0.6387,-0.6387,-0.6387,-0.6437,-0.6933,-0.7819,-0.8665,-0.9406,-1.0364,-1.1351,-1.1874,-1.1854,-1.2173,-1.2366,-1.2391,-1.2397,-1.2343,-1.2267,-1.2305,-1.2411,-1.24,-1.274,-1.3405,-1.4172,-1.4566,-1.4805,-1.5709,-1.6137,-1.6344,-1.668,-1.7293,-1.7125,-1.6729,-1.6413,-1.6038,-1.5196,-1.466,-1.4674,-1.4594,-1.4563,-1.4496,-1.4346,-1.4298,-1.4298,-1.4298,-1.4298,-1.4298,-1.4298,-1.4298,-1.4286,-1.4262,-1.4177,-1.396,-1.3791,-1.3713,-1.3519,-1.323,-1.3012,-1.2898,-0.1795,-0.1795,-0.1795,-0.1795,-0.1795,-0.185,-0.2446,-0.3351,-0.3562,-0.4123,-0.4923,-0.5069,-0.5106,-0.5106,-0.5071,-0.5108,-0.512,-0.5122,-0.5179,-0.5255,-0.5314,-0.5322,-0.5271,-0.5328,-0.5412,-0.5494,-0.5534,-0.5663,-0.5702,-0.5669,-0.5578,-0.5536,-0.5533,-0.5463,-0.5398,-0.5382,-0.5717,-0.6105,-0.6161,-0.6436,-0.6756,-0.6773,-0.6669,-0.6671,-0.6673,-0.6719,-0.6825,-0.6921,-0.6896,-0.6668,-0.6649,-0.6581,-0.6486,-0.6411,-0.6398,-0.6389,-0.6387,-0.6387,-0.6387,-0.6437,-0.6734,-0.7574,-0.7875,-0.8467,-0.9649,-1.0707,-1.1434,-1.1726,-1.2311,-1.2651,-1.2743,-1.278,-1.2678,-1.2484,-1.2436,-1.2474,-1.254,-1.2798,-1.3374,-1.4238,-1.4064,-1.4358,-1.4949,-1.5493,-1.5681,-1.589,-1.648,-1.6537,-1.6319,-1.615,-1.5802,-1.5328,-1.4938,-1.4702,-1.4576,-1.4461,-1.4413,-1.4298,-1.4298,-1.4298,-1.4298,-1.4298,-1.4298,-1.4298,-1.4298,-1.425,-1.4177,-1.4026,-1.3827,-1.358,-1.3423,-1.3248,-1.3055,-1.2898,-1.2759,-0.1795,-0.1795,-0.1795,-0.1795,-0.1795,-0.1795,-0.2462,-0.3567,-0.3567,-0.4191,-0.5013,-0.5216,-0.5177,-0.5114,-0.5128,-0.5145,-0.5156,-0.5218,-0.5211,-0.5345,-0.5365,-0.5375,-0.5351,-0.5375,-0.5424,-0.5492,-0.5522,-0.5586,-0.5643,-0.5645,-0.5546,-0.5541,-0.5522,-0.5465,-0.5394,-0.5437,-0.5547,-0.588,-0.5933,-0.6164,-0.6523,-0.6629,-0.6661,-0.6729,-0.6844,-0.6907,-0.6959,-0.7111,-0.7098,-0.6923,-0.6817,-0.6719,-0.6608,-0.6522,-0.6481,-0.6416,-0.6389,-0.6387,-0.6387,-0.6437,-0.6484,-0.6833,-0.7528,-0.8471,-0.9505,-1.0489,-1.1473,-1.2214,-1.2667,-1.2759,-1.2807,-1.2807,-1.2727,-1.2673,-1.271,-1.2694,-1.2688,-1.2632,-1.2928,-1.3295,-1.3578,-1.3732,-1.4226,-1.4698,-1.4992,-1.5233,-1.5569,-1.5933,-1.5931,-1.5931,-1.5737,-1.5409,-1.5143,-1.4896,-1.4714,-1.4552,-1.4358,-1.4298,-1.4298,-1.4232,-1.4232,-1.425,-1.4232,-1.4262,-1.4298,-1.4214,-1.4063,-1.3948,-1.3761,-1.3402,-1.3113,-1.3055,-1.2934,-1.2777,-1.2534,-0.1795,-0.1795,-0.1795,-0.1795,-0.1795,-0.1851,-0.2467,-0.3419,-0.3587,-0.4237,-0.5095,-0.5308,-0.5279,-0.5239,-0.5239,-0.5269,-0.5298,-0.5308,-0.5333,-0.5373,-0.5382,-0.5382,-0.5382,-0.5384,-0.541,-0.5453,-0.5494,-0.5539,-0.5569,-0.552,-0.5553,-0.5512,-0.5506,-0.5461,-0.5394,-0.5384,-0.5547,-0.5766,-0.5822,-0.6015,-0.6358,-0.6458,-0.6637,-0.6851,-0.6956,-0.7002,-0.7122,-0.7172,-0.7172,-0.7065,-0.6997,-0.6883,-0.6722,-0.6649,-0.6532,-0.6484,-0.6458,-0.6392,-0.6387,-0.6387,-0.6437,-0.6387,-0.698,-0.7428,-0.8368,-0.9497,-1.0587,-1.138,-1.2073,-1.2807,-1.2807,-1.2807,-1.2807,-1.2807,-1.2807,-1.2807,-1.2743,-1.2651,-1.2662,-1.2926,-1.319,-1.3419,-1.3765,-1.4161,-1.4506,-1.4924,-1.524,-1.5527,-1.5796,-1.5762,-1.582,-1.5602,-1.5324,-1.5083,-1.4877,-1.4642,-1.4352,-1.4298,-1.4298,-1.4183,-1.4087,-1.4117,-1.4141,-1.4165,-1.4124,-1.4026,-1.3882,-1.3779,-1.3582,-1.3338,-1.3091,-1.2952,-1.2794,-1.2698,-1.2314,-0.1795,-0.1795,-0.1795,-0.1795,-0.1795,-0.1907,-0.2579,-0.3531,-0.3698,-0.4423,-0.5212,-0.5382,-0.5363,-0.5373,-0.5367,-0.538,-0.5377,-0.5375,-0.5377,-0.538,-0.5382,-0.5382,-0.5382,-0.5384,-0.5386,-0.5392,-0.5445,-0.5484,-0.5488,-0.5488,-0.5484,-0.5484,-0.5484,-0.5443,-0.5394,-0.5439,-0.5493,-0.5656,-0.571,-0.5877,-0.6142,-0.6291,-0.6528,-0.6852,-0.7021,-0.7117,-0.7177,-0.7207,-0.7207,-0.721,-0.721,-0.7103,-0.6888,-0.6725,-0.6559,-0.6594,-0.648,-0.6395,-0.6387,-0.6387,-0.6387,-0.6387,-0.6437,-0.6584,-0.7179,-0.8612,-0.9752,-1.0641,-1.1629,-1.2807,-1.2807,-1.2807,-1.2807,-1.2807,-1.2807,-1.2807,-1.2807,-1.2807,-1.2797,-1.2851,-1.3066,-1.3273,-1.3544,-1.3912,-1.4256,-1.457,-1.4878,-1.517,-1.5427,-1.5621,-1.5718,-1.5759,-1.5487,-1.5107,-1.4871,-1.4421,-1.4202,-1.416,-1.4208,-1.404,-1.3838,-1.3779,-1.3761,-1.3873,-1.3878,-1.3728,-1.3591,-1.3425,-1.3252,-1.3119,-1.3006,-1.2862,-1.2734,-1.2583,-1.2057,-0.1795,-0.1795,-0.1795,-0.1795,-0.1851,-0.23,-0.2917,-0.3586,-0.4089,-0.4706,-0.5326,-0.5382,-0.5382,-0.5382,-0.5382,-0.5382,-0.5382,-0.5382,-0.5382,-0.5382,-0.5382,-0.5382,-0.5382,-0.5382,-0.5382,-0.5384,-0.5406,-0.5414,-0.5412,-0.5402,-0.5416,-0.5408,-0.541,-0.5392,-0.539,-0.5384,-0.5437,-0.5491,-0.5547,-0.5656,-0.5815,-0.5968,-0.6282,-0.6724,-0.6995,-0.7124,-0.7196,-0.721,-0.721,-0.721,-0.721,-0.7185,-0.7087,-0.6866,-0.6687,-0.6497,-0.6416,-0.6387,-0.6387,-0.6387,-0.6387,-0.6387,-0.6387,-0.6883,-0.7624,-0.8764,-0.9702,-1.093,-1.1868,-1.2807,-1.2807,-1.2807,-1.2807,-1.2807,-1.2807,-1.2807,-1.2807,-1.2807,-1.2807,-1.2813,-1.298,-1.3187,-1.3424,-1.3696,-1.3971,-1.4287,-1.4568,-1.4862,-1.5117,-1.5358,-1.5559,-1.56,-1.5638,-1.5215,-1.4823,-1.4313,-1.3931,-1.3877,-1.3859,-1.3705,-1.3524,-1.3325,-1.3332,-1.3345,-1.3384,-1.3312,-1.3182,-1.3069,-1.2969,-1.2891,-1.2794,-1.2771,-1.2607,-1.24,-1.1709,-0.1795,-0.1795,-0.1795,-0.1795,-0.1907,-0.2468,-0.3029,-0.3645,-0.4257,-0.4819,-0.527,-0.5382,-0.5382,-0.5382,-0.5382,-0.5382,-0.5382,-0.5382,-0.5382,-0.5382,-0.5382,-0.5382,-0.5382,-0.5382,-0.5382,-0.5382,-0.5382,-0.5382,-0.5384,-0.5386,-0.5382,-0.5384,-0.5382,-0.5382,-0.5382,-0.5382,-0.5382,-0.5382,-0.5437,-0.5435,-0.5603,-0.5712,-0.61,-0.6601,-0.6824,-0.7046,-0.721,-0.721,-0.721,-0.721,-0.721,-0.7177,-0.7092,-0.6912,-0.6752,-0.6627,-0.6457,-0.6387,-0.6387,-0.6387,-0.6387,-0.6387,-0.6387,-0.6584,-0.7229,-0.812,-0.9501,-1.0974,-1.2111,-1.2807,-1.2807,-1.2807,-1.2807,-1.2807,-1.2807,-1.2807,-1.2807,-1.2807,-1.2807,-1.2807,-1.2867,-1.3008,-1.3199,-1.3496,-1.3774,-1.4055,-1.4303,-1.4527,-1.4821,-1.5036,-1.5234,-1.5294,-1.5263,-1.4926,-1.4524,-1.4045,-1.3701,-1.3642,-1.3476,-1.3324,-1.3171,-1.3006,-1.2762,-1.2632,-1.2688,-1.2772,-1.2874,-1.2801,-1.2736,-1.271,-1.2698,-1.2686,-1.246,-1.21,-1.1322,-0.1795,-0.1795,-0.1795,-0.1795,-0.1907,-0.258,-0.3141,-0.3699,-0.4369,-0.4987,-0.5326,-0.5382,-0.5382,-0.5382,-0.5382,-0.5382,-0.5382,-0.5382,-0.5382,-0.5382,-0.5382,-0.5382,-0.5382,-0.5382,-0.5382,-0.5382,-0.5382,-0.5382,-0.5382,-0.5382,-0.5382,-0.5382,-0.5382,-0.5382,-0.5382,-0.5382,-0.5382,-0.5382,-0.5382,-0.5382,-0.5437,-0.5656,-0.6044,-0.6548,-0.6657,-0.6879,-0.7154,-0.721,-0.721,-0.721,-0.7202,-0.7116,-0.7021,-0.6907,-0.6831,-0.6768,-0.657,-0.6416,-0.6387,-0.6387,-0.6387,-0.6387,-0.6387,-0.6437,-0.6681,-0.7673,-0.8958,-1.0828,-1.1814,-1.2565,-1.271,-1.2807,-1.2807,-1.2807,-1.2807,-1.2807,-1.2807,-1.2807,-1.2807,-1.2807,-1.2807,-1.2916,-1.3099,-1.3225,-1.3479,-1.3623,-1.3856,-1.402,-1.4236,-1.4572,-1.4756,-1.4814,-1.474,-1.4464,-1.4142,-1.3751,-1.3499,-1.3394,-1.3185,-1.2978,-1.2824,-1.2664,-1.2428,-1.2187,-1.2187,-1.2299,-1.2428,-1.258,-1.2549,-1.2558,-1.2625,-1.2485,-1.21,-1.1408,-1.0577,-0.1795,-0.1795,-0.1795,-0.1795,-0.1963,-0.2971,-0.3475,-0.3699,-0.4765,-0.5326,-0.5382,-0.5382,-0.5382,-0.5382,-0.5382,-0.5382,-0.5382,-0.5382,-0.5382,-0.5382,-0.5382,-0.5382,-0.5382,-0.5382,-0.5382,-0.5382,-0.5382,-0.5382,-0.5382,-0.5382,-0.5382,-0.5382,-0.5382,-0.5382,-0.5382,-0.5382,-0.5382,-0.5382,-0.5386,-0.5388,-0.5444,-0.5665,-0.6,-0.6272,-0.6548,-0.6771,-0.7043,-0.7099,-0.7154,-0.7154,-0.721,-0.7202,-0.7172,-0.7029,-0.691,-0.6771,-0.6594,-0.6387,-0.6389,-0.6387,-0.6387,-0.6387,-0.6387,-0.6387,-0.6684,-0.7425,-0.8859,-1.0925,-1.1424,-1.1965,-1.2613,-1.2759,-1.2807,-1.2807,-1.2807,-1.2807,-1.2807,-1.2807,-1.2807,-1.2807,-1.2807,-1.2877,-1.3083,-1.3077,-1.318,-1.3267,-1.3388,-1.3561,-1.38,-1.4186,-1.4356,-1.443,-1.4348,-1.4083,-1.3824,-1.3445,-1.3273,-1.3201,-1.2949,-1.2647,-1.2532,-1.238,-1.2073,-1.1903,-1.1837,-1.1777,-1.1882,-1.2006,-1.2238,-1.2192,-1.1966,-1.1752,-1.1542,-1.0712,-0.9797,-0.1795,-0.1795,-0.1795,-0.1795,-0.1963,-0.3083,-0.3587,-0.3867,-0.4877,-0.5382,-0.5382,-0.5382,-0.5382,-0.5382,-0.5382,-0.5382,-0.5382,-0.5382,-0.5382,-0.5382,-0.5382,-0.5382,-0.5382,-0.5382,-0.5382,-0.5382,-0.5382,-0.5382,-0.5382,-0.5382,-0.5382,-0.5382,-0.5382,-0.5382,-0.5382,-0.5382,-0.5382,-0.5396,-0.5422,-0.5453,-0.5508,-0.556,-0.5762,-0.5993,-0.6158,-0.6379,-0.6657,-0.6879,-0.6879,-0.6935,-0.7043,-0.721,-0.7185,-0.7054,-0.6953,-0.6902,-0.6676,-0.647,-0.64,-0.6392,-0.6387,-0.6387,-0.6387,-0.6387,-0.6634,-0.7378,-0.8517,-1.0092,-1.0881,-1.1619,-1.2462,-1.2759,-1.2807,-1.2807,-1.2807,-1.2807,-1.2807,-1.2807,-1.2807,-1.2807,-1.2818,-1.2867,-1.2937,-1.2937,-1.2958,-1.3051,-1.3186,-1.3355,-1.364,-1.3993,-1.409,-1.4099,-1.3958,-1.3711,-1.3418,-1.3122,-1.3019,-1.2926,-1.2756,-1.2487,-1.2276,-1.2035,-1.1817,-1.1368,-1.0978,-1.1035,-1.1226,-1.1179,-1.1127,-1.1149,-1.1182,-1.0842,-1.0409,-0.9763,-0.8846,-0.1795,-0.1795,-0.1795,-0.1795,-0.1907,-0.3083,-0.3587,-0.3755,-0.4877,-0.5382,-0.5382,-0.5382,-0.5382,-0.5382,-0.5382,-0.5382,-0.5382,-0.5382,-0.5382,-0.5382,-0.5382,-0.5382,-0.5382,-0.5382,-0.5382,-0.5382,-0.5382,-0.5382,-0.5382,-0.5382,-0.5382,-0.5382,-0.5382,-0.5382,-0.5382,-0.5386,-0.539,-0.5431,-0.5471,-0.5496,-0.55,-0.5502,-0.5621,-0.574,-0.5822,-0.5933,-0.6272,-0.6495,-0.6606,-0.6659,-0.6768,-0.6935,-0.6974,-0.6924,-0.6964,-0.6902,-0.6687,-0.6448,-0.6388,-0.6369,-0.6395,-0.6387,-0.6387,-0.6437,-0.6484,-0.7229,-0.8024,-0.911,-1.0096,-1.113,-1.2116,-1.2511,-1.2807,-1.2807,-1.2807,-1.2807,-1.2807,-1.2807,-1.2807,-1.2807,-1.2807,-1.2807,-1.2856,-1.2835,-1.2835,-1.2802,-1.2942,-1.3163,-1.3507,-1.3895,-1.3883,-1.386,-1.3702,-1.3487,-1.3133,-1.2905,-1.2824,-1.2662,-1.2448,-1.233,-1.2147,-1.1946,-1.1725,-1.1141,-1.0333,-1.0362,-1.0581,-1.028,-1.0028,-1.0144,-1.013,-0.9662,-0.9144,-0.8584,-0.8105,-0.1795,-0.1795,-0.1795,-0.1795,-0.1851,-0.3083,-0.3587,-0.3699,-0.4877,-0.5326,-0.5382,-0.5382,-0.5382,-0.5382,-0.5382,-0.5382,-0.5382,-0.5382,-0.5382,-0.5382,-0.5382,-0.5382,-0.5382,-0.5382,-0.5382,-0.5382,-0.5382,-0.5382,-0.5382,-0.5382,-0.5382,-0.5382,-0.5382,-0.5382,-0.5388,-0.5398,-0.5443,-0.5488,-0.5535,-0.5539,-0.5535,-0.5518,-0.5589,-0.574,-0.5824,-0.5933,-0.6272,-0.6274,-0.633,-0.633,-0.6439,-0.655,-0.6707,-0.6689,-0.6754,-0.6793,-0.6621,-0.6381,-0.6313,-0.6329,-0.64,-0.6389,-0.6387,-0.6387,-0.6337,-0.6437,-0.7083,-0.817,-0.9209,-1.0243,-1.1277,-1.2063,-1.2462,-1.2807,-1.2807,-1.2807,-1.2807,-1.2807,-1.2807,-1.2807,-1.2807,-1.2807,-1.2807,-1.2807,-1.2807,-1.2824,-1.3012,-1.3238,-1.3545,-1.3852,-1.3723,-1.3672,-1.3575,-1.3315,-1.2921,-1.2694,-1.2618,-1.2373,-1.2104,-1.2125,-1.2077,-1.1807,-1.0967,-1.0656,-0.9925,-0.9931,-0.968,-0.8978,-0.8667,-0.9087,-0.9039,-0.8484,-0.8185,-0.7797,-0.7533,-0.1795,-0.1795,-0.1795,-0.1795,-0.1851,-0.2692,-0.3253,-0.3699,-0.4482,-0.51,-0.5382,-0.5382,-0.5382,-0.5382,-0.5382,-0.5382,-0.5382,-0.5382,-0.5382,-0.5382,-0.5382,-0.5382,-0.5382,-0.5382,-0.5382,-0.5382,-0.5382,-0.5382,-0.5382,-0.5382,-0.5382,-0.5382,-0.5382,-0.5382,-0.539,-0.5318,-0.5445,-0.5582,-0.5639,-0.5671,-0.5663,-0.5608,-0.5549,-0.5577,-0.5562,-0.5607,-0.5717,-0.5938,-0.5991,-0.6047,-0.6161,-0.6328,-0.6439,-0.6439,-0.6526,-0.6586,-0.6374,-0.6234,-0.6187,-0.6194,-0.6225,-0.6197,-0.6289,-0.6337,-0.6189,-0.6287,-0.6933,-0.7773,-0.8368,-0.9353,-1.0979,-1.1565,-1.1912,-1.2511,-1.2759,-1.2662,-1.2662,-1.2613,-1.271,-1.2662,-1.271,-1.2807,-1.2807,-1.2807,-1.2807,-1.2835,-1.305,-1.3308,-1.3572,-1.3771,-1.3658,-1.3464,-1.3346,-1.2933,-1.2544,-1.2411,-1.2355,-1.1994,-1.1636,-1.1481,-1.1213,-1.008,-0.9411,-0.9319,-0.9195,-0.8704,-0.8149,-0.7445,-0.7353,-0.7826,-0.7698,-0.7221,-0.7007,-0.7007,-0.7007,-0.1795,-0.1795,-0.1795,-0.1795,-0.1851,-0.2468,-0.3029,-0.3643,-0.4257,-0.4819,-0.5382,-0.5382,-0.5382,-0.5382,-0.5382,-0.5382,-0.5382,-0.5382,-0.5382,-0.5382,-0.5382,-0.5382,-0.5382,-0.5382,-0.5382,-0.5382,-0.5382,-0.5382,-0.5382,-0.5382,-0.5382,-0.5382,-0.5382,-0.527,-0.4779,-0.4953,-0.5146,-0.5524,-0.5727,-0.5778,-0.5763,-0.5686,-0.5536,-0.5502,-0.5479,-0.5442,-0.5493,-0.5603,-0.5714,-0.577,-0.5882,-0.6049,-0.6105,-0.6161,-0.6216,-0.619,-0.6155,-0.6041,-0.6016,-0.603,-0.6014,-0.5909,-0.5987,-0.6037,-0.6089,-0.6189,-0.6637,-0.7276,-0.7773,-0.8662,-1.0337,-1.0435,-1.0783,-1.1277,-1.1965,-1.2063,-1.2116,-1.2116,-1.2365,-1.2516,-1.2613,-1.2613,-1.1922,-1.1819,-1.2165,-1.2358,-1.3001,-1.3217,-1.3405,-1.3566,-1.3615,-1.3383,-1.3141,-1.2634,-1.2109,-1.1749,-1.1331,-1.0749,-1.0445,-1.0283,-0.9797,-0.8804,-0.8528,-0.8896,-0.8528,-0.7473,-0.6966,-0.6745,-0.6612,-0.6609,-0.6479,-0.6435,-0.652,-0.6609,-0.6741,-0.1739,-0.1795,-0.1795,-0.1795,-0.1851,-0.2468,-0.2973,-0.3531,-0.4145,-0.4706,-0.5214,-0.527,-0.5326,-0.5326,-0.5326,-0.5382,-0.5382,-0.5382,-0.5382,-0.5382,-0.5382,-0.5382,-0.5382,-0.5382,-0.5382,-0.5382,-0.5382,-0.5382,-0.5382,-0.5382,-0.5382,-0.4989,-0.4651,-0.4545,-0.3701,-0.37,-0.4338,-0.5411,-0.5683,-0.5604,-0.578,-0.571,-0.5622,-0.5533,-0.5447,-0.5408,-0.5439,-0.5437,-0.5493,-0.5549,-0.5549,-0.5659,-0.5768,-0.5824,-0.5938,-0.6156,-0.5929,-0.5766,-0.5728,-0.5805,-0.5726,-0.5677,-0.5761,-0.5787,-0.5939,-0.6042,-0.6192,-0.6833,-0.7279,-0.7776,-0.8517,-0.8962,-0.9456,-1.0092,-1.0828,-1.1072,-1.1126,-1.1175,-1.1277,-1.1326,-1.2019,-1.2316,-1.1277,-1.0734,-1.1228,-1.1786,-1.2683,-1.3047,-1.2953,-1.2848,-1.2725,-1.2446,-1.2073,-1.1623,-1.101,-1.0771,-1.0302,-0.9689,-0.9229,-0.9071,-0.8872,-0.8321,-0.8268,-0.8538,-0.7826,-0.6757,-0.6482,-0.6352,-0.626,-0.6127,-0.6041,-0.5997,-0.6127,-0.6302,-0.652,-0.1234,-0.1795,-0.1795,-0.1795,-0.1851,-0.2019,-0.2468,-0.3029,-0.3643,-0.4035,-0.426,-0.4594,-0.4819,-0.4875,-0.5212,-0.5382,-0.5382,-0.5382,-0.5382,-0.5382,-0.5382,-0.5382,-0.5382,-0.5382,-0.5382,-0.5382,-0.5382,-0.5382,-0.5382,-0.527,-0.4761,-0.4255,-0.3087,-0.31,-0.3818,-0.3875,-0.341,-0.5136,-0.5147,-0.4885,-0.5734,-0.5714,-0.568,-0.5586,-0.5496,-0.5431,-0.5386,-0.5384,-0.5382,-0.5382,-0.5382,-0.5437,-0.5547,-0.5547,-0.5603,-0.5717,-0.5547,-0.5505,-0.541,-0.539,-0.5394,-0.546,-0.5526,-0.5591,-0.5737,-0.5942,-0.6139,-0.6289,-0.6587,-0.7083,-0.773,-0.777,-0.8212,-0.9004,-0.9542,-0.9546,-0.9596,-0.9694,-0.9743,-0.9743,-1.0137,-1.0489,-0.9998,-0.9402,-0.9702,-0.9929,-1.0581,-1.1203,-1.1304,-1.1205,-1.1099,-1.0791,-1.0493,-1.0175,-0.984,-0.9585,-0.9244,-0.8676,-0.814,-0.7792,-0.7583,-0.7531,-0.7212,-0.7048,-0.6608,-0.613,-0.6086,-0.6044,-0.5866,-0.5733,-0.5777,-0.5863,-0.6041,-0.6213,-0.6428,-0.0953,-0.1795,-0.1795,-0.1795,-0.1795,-0.1795,-0.2132,-0.275,-0.3309,-0.3699,-0.3977,-0.4369,-0.448,-0.465,-0.4875,-0.51,-0.51,-0.51,-0.5326,-0.5326,-0.5382,-0.5382,-0.5382,-0.5384,-0.5382,-0.5384,-0.5328,-0.527,-0.4706,-0.4761,-0.4088,-0.2746,-0.107,-0.1939,-0.2772,-0.2518,-0.2188,-0.3661,-0.3894,-0.4346,-0.4988,-0.5348,-0.5621,-0.5588,-0.5504,-0.5435,-0.5398,-0.5382,-0.5382,-0.5382,-0.5382,-0.5382,-0.5382,-0.5382,-0.5382,-0.5382,-0.5375,-0.5349,-0.529,-0.521,-0.5278,-0.5291,-0.532,-0.5345,-0.5436,-0.5589,-0.5789,-0.5939,-0.5937,-0.6237,-0.6734,-0.6725,-0.7024,-0.7816,-0.8113,-0.8113,-0.8117,-0.8212,-0.8707,-0.8609,-0.8707,-0.8856,-0.8711,-0.8319,-0.8074,-0.8204,-0.8346,-0.903,-0.9705,-0.9713,-0.9713,-0.9523,-0.9339,-0.914,-0.8807,-0.8363,-0.8005,-0.7595,-0.7194,-0.6815,-0.6611,-0.6557,-0.6051,-0.5696,-0.5824,-0.5911,-0.5822,-0.5688,-0.5688,-0.5733,-0.5777,-0.5863,-0.5952,-0.6127,-0.6254,-0.0897,-0.1739,-0.1795,-0.1795,-0.1795,-0.1795,-0.2132,-0.2693,-0.3253,-0.3755,-0.4311,-0.4201,-0.4201,-0.4369,-0.448,-0.4592,-0.4594,-0.4592,-0.4875,-0.51,-0.51,-0.516,-0.5168,-0.5108,-0.5004,-0.517,-0.4948,-0.4227,-0.3645,-0.2979,-0.2417,-0.1629,-0.0227,-0.0634,-0.0817,-0.0823,-0.0949,-0.2285,-0.2854,-0.3279,-0.3849,-0.4585,-0.4931,-0.4975,-0.5081,-0.5205,-0.5286,-0.5382,-0.5382,-0.5382,-0.5382,-0.5382,-0.5382,-0.5382,-0.5382,-0.5382,-0.5382,-0.5373,-0.5353,-0.5273,-0.5188,-0.5134,-0.4994,-0.5023,-0.5188,-0.5338,-0.5539,-0.5639,-0.5636,-0.5636,-0.5734,-0.5684,-0.5734,-0.6229,-0.6675,-0.6728,-0.6731,-0.7077,-0.767,-0.7918,-0.8014,-0.7965,-0.7372,-0.693,-0.6883,-0.6792,-0.7006,-0.7472,-0.8147,-0.8582,-0.8571,-0.8574,-0.8403,-0.8222,-0.7834,-0.7267,-0.7025,-0.6656,-0.6445,-0.611,-0.5891,-0.5874,-0.5765,-0.5704,-0.5694,-0.5688,-0.5688,-0.5688,-0.5688,-0.5733,-0.5777,-0.5777,-0.5822,-0.5908,-0.6038,-0.0392,-0.1739,-0.1795,-0.1795,-0.1795,-0.1795,-0.1907,-0.2075,-0.2243,-0.2467,-0.2579,-0.3029,-0.3307,-0.3309,-0.4089,-0.4369,-0.4424,-0.448,-0.4592,-0.465,-0.4484,-0.4236,-0.4131,-0.4177,-0.4128,-0.392,-0.3531,-0.2956,-0.2277,-0.1422,-0.0452,0.0281,0.0973,0.1046,0.1055,0.1178,-0.0119,-0.1078,-0.1509,-0.1919,-0.2448,-0.3088,-0.3627,-0.4154,-0.4378,-0.4624,-0.5236,-0.5386,-0.5382,-0.5382,-0.5382,-0.5382,-0.5382,-0.5382,-0.5382,-0.5382,-0.5382,-0.538,-0.5367,-0.5296,-0.5152,-0.5118,-0.4996,-0.5061,-0.5115,-0.5188,-0.5288,-0.5388,-0.5388,-0.5336,-0.5286,-0.5236,-0.5186,-0.5434,-0.5732,-0.5732,-0.5734,-0.5932,-0.6478,-0.6575,-0.6672,-0.6725,-0.6132,-0.6134,-0.6084,-0.5734,-0.5784,-0.6232,-0.6681,-0.7176,-0.7419,-0.744,-0.7262,-0.7083,-0.6662,-0.6167,-0.5981,-0.5783,-0.5734,-0.5756,-0.5773,-0.5757,-0.5757,-0.5707,-0.5694,-0.5688,-0.5688,-0.5688,-0.5688,-0.5688,-0.5733,-0.5733,-0.5733,-0.5822,-0.5863,-0.0168,-0.1683,-0.1795,-0.1795,-0.1795,-0.1795,-0.1795,-0.1795,-0.1795,-0.1907,-0.2188,-0.2581,-0.2693,-0.2806,-0.3421,-0.3699,-0.3699,-0.3699,-0.3811,-0.4035,-0.3698,-0.3739,-0.3581,-0.3232,-0.3075,-0.2696,-0.2132,-0.1436,-0.0635,0.0578,0.1668,0.1421,0.214,0.2165,0.2068,0.173,0.1076,0.0239,-0.0298,-0.0533,-0.1007,-0.166,-0.2633,-0.324,-0.3486,-0.4184,-0.518,-0.5328,-0.5382,-0.5382,-0.5382,-0.5382,-0.5382,-0.5382,-0.5382,-0.5382,-0.5382,-0.5382,-0.5373,-0.5341,-0.5235,-0.5137,-0.5053,-0.5015,-0.4985,-0.5037,-0.5085,-0.5135,-0.5085,-0.5037,-0.4985,-0.4935,-0.4885,-0.4832,-0.4832,-0.4832,-0.4832,-0.4832,-0.4933,-0.4983,-0.5133,-0.5334,-0.5336,-0.5386,-0.5386,-0.5236,-0.5186,-0.5336,-0.5684,-0.6032,-0.6232,-0.6321,-0.6051,-0.5774,-0.5477,-0.5514,-0.5602,-0.5665,-0.5699,-0.571,-0.5688,-0.5691,-0.5699,-0.5699,-0.5691,-0.5688,-0.5688,-0.5688,-0.5688,-0.5688,-0.5688,-0.5688,-0.5688,-0.5733,-0.5777,-0.0056,-0.1683,-0.1795,-0.1795,-0.1795,-0.1795,-0.1795,-0.1795,-0.1795,-0.2076,-0.2524,-0.2581,-0.2525,-0.2581,-0.2861,-0.2917,-0.2973,-0.2973,-0.3197,-0.3531,-0.325,-0.3168,-0.2963,-0.2553,-0.2063,-0.1679,-0.0874,0.035,0.1352,0.2236,0.2635,0.2428,0.2427,0.2391,0.226,0.2053,0.157,0.1312,0.0651,0.0235,0.0,-0.0939,-0.2104,-0.2822,-0.3157,-0.3655,-0.4732,-0.5214,-0.5326,-0.5326,-0.5382,-0.5382,-0.5382,-0.5382,-0.5382,-0.5382,-0.5382,-0.5382,-0.5382,-0.5365,-0.5263,-0.5173,-0.51,-0.4994,-0.4953,-0.4891,-0.4935,-0.4985,-0.4935,-0.4935,-0.4885,-0.4834,-0.4834,-0.4782,-0.4782,-0.4782,-0.4782,-0.4782,-0.4784,-0.4834,-0.4885,-0.5035,-0.5035,-0.5085,-0.5135,-0.4935,-0.4885,-0.4885,-0.4985,-0.5236,-0.5336,-0.5432,-0.5335,-0.5227,-0.5367,-0.5408,-0.5491,-0.5565,-0.566,-0.5688,-0.5688,-0.5688,-0.5688,-0.5688,-0.5688,-0.5688,-0.5688,-0.5688,-0.5688,-0.5688,-0.5688,-0.5688,-0.5688,-0.5688,-0.5688,0.084,-0.0785,-0.1514,-0.1795,-0.1795,-0.1795,-0.1795,-0.1795,-0.1795,-0.1907,-0.2019,-0.2019,-0.2075,-0.2132,-0.2468,-0.2581,-0.2637,-0.2581,-0.275,-0.2748,-0.2579,-0.2377,-0.2063,-0.1372,-0.0925,-0.0235,0.0769,0.2025,0.2813,0.3352,0.3573,0.3351,0.3053,0.2707,0.2514,0.231,0.1996,0.1913,0.1605,0.1235,0.1051,0.1063,0.0474,-0.0524,-0.1097,-0.2179,-0.3284,-0.4088,-0.465,-0.5156,-0.5326,-0.5382,-0.5382,-0.5382,-0.5382,-0.5382,-0.5382,-0.5382,-0.5377,-0.5363,-0.5271,-0.5169,-0.5081,-0.4983,-0.4906,-0.4808,-0.4782,-0.4782,-0.4782,-0.4782,-0.4782,-0.4782,-0.4782,-0.4782,-0.4782,-0.4782,-0.4782,-0.4782,-0.4782,-0.4834,-0.4885,-0.4834,-0.4834,-0.4834,-0.4834,-0.4834,-0.4834,-0.4834,-0.4782,-0.4883,-0.4935,-0.497,-0.4909,-0.4916,-0.5109,-0.5256,-0.5298,-0.5435,-0.5515,-0.5599,-0.5688,-0.5599,-0.5552,-0.5644,-0.5688,-0.5644,-0.5644,-0.5688,-0.5688,-0.5688,-0.5688,-0.5688,-0.5688,-0.5688,-0.5688,0.1401,0.0112,-0.0785,-0.1458,-0.1739,-0.1795,-0.1795,-0.1795,-0.1795,-0.1795,-0.1795,-0.1795,-0.1795,-0.1795,-0.2188,-0.2302,-0.2302,-0.23,-0.23,-0.2132,-0.1912,-0.1588,-0.1028,-0.023,0.0468,0.1127,0.2293,0.3349,0.3834,0.3895,0.3813,0.3648,0.326,0.3036,0.2904,0.2546,0.2245,0.217,0.2162,0.2085,0.1937,0.1778,0.1253,0.0411,-0.0291,-0.1153,-0.2165,-0.3151,-0.3974,-0.4706,-0.5044,-0.5382,-0.5382,-0.5382,-0.5382,-0.5382,-0.5382,-0.5382,-0.5373,-0.5331,-0.5263,-0.5157,-0.5057,-0.4955,-0.4827,-0.4782,-0.4782,-0.4782,-0.4782,-0.4782,-0.4782,-0.4782,-0.4782,-0.4782,-0.4782,-0.4782,-0.4782,-0.4782,-0.4782,-0.4784,-0.4834,-0.4834,-0.4784,-0.4784,-0.4784,-0.4634,-0.4632,-0.4632,-0.4632,-0.4582,-0.4583,-0.4524,-0.4476,-0.4685,-0.4966,-0.5033,-0.5104,-0.5201,-0.5329,-0.5327,-0.5327,-0.5327,-0.5371,-0.5419,-0.5463,-0.5463,-0.5463,-0.5552,-0.5599,-0.5552,-0.5644,-0.5688,-0.5688,-0.5688,-0.5688,0.1793,0.0841,-0.0056,-0.0953,-0.1739,-0.1795,-0.1795,-0.1795,-0.1795,-0.1795,-0.1795,-0.1795,-0.1795,-0.1795,-0.1795,-0.1797,-0.1854,-0.1966,-0.1908,-0.1582,-0.1574,-0.0911,-0.0115,0.0694,0.1533,0.2403,0.3302,0.3688,0.3877,0.3873,0.3796,0.3524,0.3413,0.331,0.3108,0.2931,0.2757,0.256,0.2494,0.2379,0.2175,0.1972,0.1316,0.0714,0.0176,-0.0346,-0.1488,-0.2326,-0.3034,-0.4086,-0.4761,-0.5214,-0.5382,-0.5382,-0.5382,-0.5382,-0.5382,-0.5382,-0.5367,-0.5304,-0.5216,-0.5118,-0.5024,-0.4939,-0.4811,-0.4782,-0.4782,-0.4782,-0.4782,-0.4782,-0.4782,-0.4782,-0.4782,-0.4782,-0.4782,-0.4782,-0.4782,-0.4782,-0.4782,-0.4782,-0.4782,-0.4782,-0.4782,-0.4782,-0.4682,-0.4531,-0.4431,-0.4431,-0.4381,-0.4381,-0.4383,-0.423,-0.4111,-0.4368,-0.4734,-0.4817,-0.4855,-0.4963,-0.5057,-0.501,-0.501,-0.5146,-0.5146,-0.5099,-0.5146,-0.5191,-0.528,-0.5327,-0.5371,-0.5419,-0.5508,-0.5599,-0.5688,-0.5688,-0.5688,0.2353,0.0841,-0.0056,-0.0897,-0.1683,-0.1795,-0.1795,-0.1795,-0.1796,-0.1795,-0.1797,-0.1795,-0.1795,-0.1795,-0.1795,-0.1803,-0.1764,-0.1754,-0.1147,-0.0755,-0.0684,-0.0057,0.0754,0.1692,0.2687,0.3336,0.3741,0.3817,0.3916,0.3868,0.3881,0.3734,0.3554,0.3444,0.3383,0.3201,0.3011,0.2882,0.2885,0.2828,0.2646,0.2319,0.1945,0.1632,0.15,0.0764,-0.0058,-0.0515,-0.1869,-0.3316,-0.4592,-0.51,-0.527,-0.5326,-0.5382,-0.5382,-0.5382,-0.5382,-0.5355,-0.5275,-0.5132,-0.5112,-0.5018,-0.4922,-0.4813,-0.4782,-0.4782,-0.4782,-0.4782,-0.4782,-0.4782,-0.4782,-0.4782,-0.4782,-0.4782,-0.4782,-0.4782,-0.4782,-0.4782,-0.4782,-0.4782,-0.4782,-0.4782,-0.4782,-0.4784,-0.4582,-0.428,-0.428,-0.428,-0.423,-0.4029,-0.3778,-0.3525,-0.4086,-0.446,-0.4565,-0.4599,-0.4749,-0.4743,-0.4563,-0.4607,-0.4966,-0.501,-0.4877,-0.4921,-0.501,-0.5099,-0.5057,-0.5193,-0.5282,-0.5371,-0.5463,-0.5599,-0.5688,-0.5688]}]]